[[{"header":{"parameterUnit":"m.s-1","parameterCategory":1,"la1":30.6,"la2":29.2853,"lo1":-89.7004,"lo2":-87.6739,"dy":0.0162,"dx":0.0183,"nx":112,"ny":82,"refTime":"2023-10-11T12:00:00:Z","depth":0,"parameterNumber":2,"parameterNumberName":"U-component_of_WINDS"},"data":[0.0,0.0,0.0,0.0,0.0,0.0,0.0,0.0,0.0,0.0,0.0,0.0,0.0,0.0,0.0,0.0,0.0,0.0,0.0,0.0,0.0,0.0,0.0,0.0,0.0,0.0,0.0,0.0,0.0,0.0,0.0,0.0,0.0,0.0,0.0,0.0,0.0,0.0,0.0,0.0,0.0,0.0,0.0,0.0,0.0,0.0,0.0,0.0,0.0,0.0,0.0,0.0,0.0,0.0,0.0,0.0,0.0,0.0,0.0,0.0,0.0,0.0,0.0,0.0,0.0,0.0,0.0,0.0,0.0,0.0,0.0,0.0,0.0,0.0,0.0,0.0,0.0,0.0,0.0,0.0,0.0,0.0,0.0,0.0,0.0,0.0,0.0,0.0,0.0,0.0,5.2587,5.3318,5.328,5.3203,5.3203,5.3203,5.3203,5.3203,0.0,0.0,0.0,0.0,0.0,0.0,0.0,0.0,0.0,0.0,0.0,0.0,0.0,0.0,0.0,0.0,0.0,0.0,0.0,0.0,0.0,0.0,0.0,0.0,0.0,0.0,0.0,0.0,0.0,0.0,0.0,0.0,0.0,0.0,0.0,0.0,0.0,0.0,0.0,0.0,0.0,0.0,0.0,0.0,0.0,0.0,0.0,0.0,0.0,0.0,0.0,0.0,0.0,0.0,0.0,0.0,0.0,0.0,0.0,0.0,0.0,0.0,0.0,0.0,0.0,0.0,0.0,0.0,0.0,0.0,0.0,0.0,0.0,0.0,0.0,0.0,0.0,0.0,0.0,0.0,0.0,0.0,0.0,0.0,0.0,0.0,0.0,0.0,0.0,0.0,0.0,0.0,0.0,0.0,0.0,0.0,0.0,0.0,0.0,0.0,0.0,0.0,0.0,0.0,5.4164,5.428,5.3626,5.3203,5.3203,5.3203,5.3203,5.3203,0.0,0.0,0.0,0.0,0.0,0.0,0.0,0.0,0.0,0.0,0.0,0.0,0.0,0.0,0.0,0.0,0.0,0.0,0.0,0.0,0.0,0.0,0.0,0.0,0.0,0.0,0.0,0.0,0.0,0.0,0.0,0.0,0.0,0.0,0.0,0.0,0.0,0.0,0.0,0.0,0.0,0.0,0.0,0.0,0.0,0.0,0.0,0.0,0.0,0.0,0.0,0.0,0.0,0.0,0.0,0.0,0.0,0.0,0.0,0.0,0.0,0.0,0.0,0.0,0.0,0.0,0.0,0.0,0.0,0.0,0.0,0.0,0.0,0.0,0.0,0.0,0.0,0.0,0.0,0.0,0.0,0.0,0.0,0.0,0.0,0.0,0.0,0.0,0.0,0.0,0.0,0.0,0.0,0.0,0.0,0.0,0.0,0.0,0.0,0.0,0.0,0.0,0.0,5.4895,5.5164,5.5164,5.478,5.4549,5.4549,5.4549,5.4549,5.4549,5.4549,0.0,0.0,0.0,0.0,0.0,0.0,0.0,0.0,0.0,0.0,0.0,0.0,0.0,0.0,0.0,0.0,0.0,0.0,0.0,0.0,0.0,0.0,0.0,0.0,0.0,0.0,0.0,0.0,0.0,0.0,0.0,0.0,0.0,0.0,0.0,0.0,0.0,0.0,0.0,0.0,0.0,0.0,0.0,0.0,0.0,0.0,0.0,0.0,0.0,0.0,0.0,0.0,0.0,0.0,0.0,0.0,0.0,0.0,0.0,0.0,0.0,0.0,0.0,0.0,0.0,0.0,0.0,0.0,0.0,0.0,0.0,0.0,0.0,0.0,0.0,0.0,0.0,0.0,0.0,0.0,0.0,0.0,0.0,0.0,0.0,0.0,0.0,0.0,0.0,0.0,0.0,0.0,0.0,0.0,0.0,0.0,0.0,0.0,0.0,0.0,0.0,0.0,5.5318,5.578,5.5972,5.5818,5.578,5.5972,5.5818,5.5703,5.5703,5.5703,0.0,0.0,0.0,0.0,0.0,0.0,0.0,0.0,0.0,0.0,0.0,0.0,0.0,0.0,0.0,0.0,0.0,0.0,0.0,0.0,0.0,0.0,0.0,0.0,0.0,0.0,0.0,0.0,0.0,0.0,0.0,0.0,0.0,0.0,0.0,0.0,0.0,0.0,0.0,0.0,0.0,0.0,0.0,0.0,0.0,0.0,0.0,0.0,0.0,0.0,0.0,0.0,0.0,0.0,0.0,0.0,0.0,0.0,0.0,0.0,0.0,0.0,0.0,0.0,0.0,0.0,0.0,0.0,0.0,0.0,0.0,0.0,0.0,0.0,0.0,0.0,0.0,0.0,0.0,0.0,0.0,0.0,0.0,0.0,0.0,0.0,0.0,0.0,0.0,0.0,0.0,0.0,0.0,0.0,0.0,0.0,0.0,0.0,0.0,0.0,0.0,0.0,5.5665,5.6011,5.6819,5.6165,5.6011,5.6819,5.6165,5.5703,5.5703,5.5703,0.0,0.0,0.0,0.0,0.0,0.0,0.0,0.0,0.0,0.0,0.0,0.0,0.0,0.0,0.0,0.0,0.0,0.0,0.0,0.0,0.0,0.0,0.0,0.0,0.0,0.0,0.0,0.0,0.0,0.0,0.0,0.0,0.0,0.0,0.0,0.0,0.0,0.0,0.0,0.0,0.0,0.0,0.0,0.0,0.0,0.0,0.0,0.0,0.0,0.0,0.0,0.0,0.0,0.0,0.0,0.0,0.0,0.0,0.0,0.0,0.0,0.0,0.0,0.0,0.0,0.0,0.0,0.0,0.0,0.0,0.0,0.0,0.0,0.0,0.0,0.0,0.0,0.0,0.0,0.0,0.0,0.0,0.0,0.0,0.0,0.0,0.0,0.0,0.0,0.0,0.0,0.0,0.0,0.0,0.0,0.0,0.0,0.0,0.0,0.0,0.0,0.0,5.7319,5.7434,5.778,5.7511,5.7434,5.778,5.7511,5.7319,5.7319,0.0,0.0,0.0,0.0,0.0,0.0,0.0,0.0,0.0,0.0,0.0,0.0,0.0,0.0,0.0,0.0,0.0,0.0,0.0,0.0,0.0,0.0,0.0,0.0,0.0,0.0,0.0,0.0,0.0,0.0,0.0,0.0,0.0,0.0,0.0,0.0,0.0,0.0,0.0,0.0,0.0,0.0,0.0,0.0,0.0,0.0,0.0,0.0,0.0,0.0,0.0,0.0,0.0,0.0,0.0,0.0,0.0,0.0,0.0,0.0,0.0,0.0,0.0,0.0,0.0,0.0,0.0,0.0,0.0,0.0,0.0,0.0,0.0,0.0,0.0,0.0,0.0,0.0,0.0,0.0,0.0,0.0,0.0,0.0,0.0,0.0,0.0,0.0,0.0,0.0,0.0,0.0,0.0,0.0,0.0,0.0,0.0,0.0,0.0,0.0,0.0,0.0,5.8204,5.8319,5.8396,5.8665,5.8473,5.8396,5.8665,5.8434,5.8319,5.8319,0.0,0.0,0.0,0.0,0.0,0.0,0.0,0.0,0.0,0.0,0.0,0.0,0.0,0.0,0.0,0.0,0.0,0.0,0.0,0.0,0.0,0.0,0.0,0.0,0.0,0.0,0.0,0.0,0.0,0.0,0.0,0.0,0.0,0.0,0.0,0.0,0.0,0.0,0.0,0.0,0.0,0.0,0.0,0.0,0.0,0.0,0.0,0.0,0.0,0.0,0.0,0.0,0.0,0.0,0.0,0.0,0.0,0.0,0.0,0.0,0.0,0.0,0.0,0.0,0.0,0.0,0.0,0.0,0.0,0.0,0.0,0.0,0.0,0.0,0.0,0.0,0.0,0.0,0.0,0.0,0.0,0.0,0.0,0.0,0.0,0.0,0.0,0.0,0.0,0.0,0.0,0.0,0.0,0.0,0.0,0.0,0.0,0.0,0.0,0.0,0.0,0.0,5.8319,5.8319,5.8627,5.9435,5.8819,5.8665,5.9435,5.8781,5.8319,0.0,0.0,0.0,0.0,0.0,0.0,0.0,0.0,0.0,0.0,0.0,0.0,0.0,0.0,0.0,0.0,0.0,0.0,0.0,0.0,0.0,0.0,0.0,0.0,0.0,0.0,0.0,0.0,0.0,0.0,0.0,0.0,0.0,0.0,0.0,0.0,0.0,0.0,0.0,0.0,0.0,0.0,0.0,0.0,0.0,0.0,0.0,0.0,0.0,0.0,0.0,0.0,0.0,0.0,0.0,0.0,0.0,0.0,0.0,0.0,0.0,0.0,0.0,0.0,0.0,0.0,0.0,0.0,0.0,0.0,0.0,0.0,0.0,0.0,0.0,0.0,0.0,0.0,0.0,0.0,0.0,0.0,0.0,0.0,0.0,0.0,0.0,0.0,0.0,0.0,0.0,0.0,0.0,0.0,0.0,0.0,0.0,0.0,0.0,0.0,0.0,0.0,0.0,5.9973,6.005,6.0165,6.0396,6.0204,6.0165,6.0396,6.0204,6.005,6.005,0.0,0.0,0.0,0.0,0.0,0.0,0.0,0.0,0.0,0.0,0.0,0.0,0.0,0.0,0.0,0.0,0.0,0.0,0.0,0.0,0.0,0.0,0.0,0.0,0.0,0.0,0.0,0.0,0.0,0.0,0.0,0.0,0.0,0.0,0.0,0.0,0.0,0.0,0.0,0.0,0.0,0.0,0.0,0.0,0.0,0.0,0.0,0.0,0.0,0.0,0.0,0.0,0.0,0.0,0.0,0.0,0.0,0.0,0.0,0.0,0.0,0.0,0.0,0.0,0.0,0.0,0.0,0.0,0.0,0.0,0.0,0.0,0.0,0.0,0.0,0.0,0.0,0.0,0.0,0.0,0.0,0.0,0.0,0.0,0.0,0.0,0.0,0.0,0.0,0.0,0.0,0.0,0.0,0.0,0.0,0.0,0.0,0.0,0.0,0.0,0.0,0.0,6.0742,6.0781,6.0781,6.0781,6.0781,6.0781,6.0781,6.0781,6.0781,6.0781,0.0,0.0,0.0,0.0,0.0,0.0,0.0,0.0,0.0,0.0,0.0,0.0,0.0,0.0,0.0,0.0,0.0,0.0,0.0,0.0,0.0,0.0,0.0,0.0,0.0,0.0,0.0,0.0,0.0,0.0,0.0,0.0,0.0,0.0,0.0,0.0,0.0,0.0,0.0,0.0,0.0,0.0,0.0,0.0,0.0,0.0,0.0,0.0,0.0,0.0,0.0,0.0,0.0,0.0,0.0,0.0,0.0,0.0,0.0,0.0,0.0,0.0,0.0,0.0,0.0,0.0,0.0,0.0,0.0,0.0,0.0,0.0,0.0,0.0,0.0,0.0,0.0,0.0,0.0,0.0,0.0,0.0,0.0,0.0,0.0,0.0,0.0,0.0,0.0,0.0,0.0,0.0,0.0,0.0,0.0,0.0,0.0,0.0,0.0,0.0,0.0,0.0,6.1012,6.1012,6.1012,6.1012,6.1012,6.1012,6.1012,6.1012,6.1012,6.0935,0.0,0.0,0.0,0.0,0.0,0.0,0.0,0.0,0.0,0.0,0.0,0.0,0.0,0.0,0.0,0.0,0.0,0.0,0.0,0.0,0.0,0.0,0.0,0.0,0.0,0.0,0.0,0.0,0.0,0.0,0.0,0.0,0.0,0.0,0.0,0.0,0.0,0.0,0.0,0.0,0.0,0.0,0.0,0.0,0.0,0.0,0.0,0.0,0.0,0.0,0.0,0.0,0.0,0.0,0.0,0.0,0.0,0.0,0.0,0.0,5.1279,5.0702,0.0,0.0,0.0,0.0,0.0,0.0,0.0,0.0,0.0,0.0,0.0,0.0,0.0,0.0,0.0,0.0,0.0,0.0,0.0,0.0,0.0,0.0,0.0,0.0,0.0,0.0,0.0,0.0,0.0,0.0,0.0,0.0,0.0,0.0,0.0,0.0,0.0,0.0,0.0,0.0,6.2704,6.2781,6.2781,6.2781,6.2781,6.2781,6.2781,6.2781,6.2512,6.1858,6.182,0.0,0.0,0.0,0.0,0.0,0.0,0.0,0.0,0.0,0.0,0.0,0.0,0.0,0.0,0.0,0.0,0.0,0.0,0.0,0.0,0.0,0.0,0.0,0.0,0.0,0.0,0.0,0.0,0.0,0.0,0.0,0.0,0.0,0.0,0.0,0.0,0.0,0.0,0.0,0.0,0.0,0.0,0.0,0.0,0.0,0.0,0.0,0.0,0.0,0.0,0.0,0.0,0.0,0.0,0.0,0.0,0.0,0.0,0.0,5.2279,5.1895,0.0,0.0,0.0,0.0,0.0,0.0,0.0,0.0,0.0,0.0,0.0,0.0,0.0,0.0,0.0,0.0,0.0,0.0,0.0,0.0,0.0,0.0,0.0,0.0,0.0,0.0,0.0,0.0,0.0,0.0,0.0,0.0,0.0,0.0,0.0,0.0,0.0,0.0,0.0,0.0,6.3243,6.332,6.332,6.332,6.332,6.332,6.332,6.332,6.3128,6.2704,6.2744,0.0,0.0,0.0,0.0,0.0,0.0,0.0,0.0,0.0,0.0,0.0,0.0,0.0,0.0,0.0,0.0,0.0,0.0,0.0,0.0,0.0,0.0,0.0,0.0,0.0,0.0,0.0,0.0,0.0,0.0,0.0,0.0,0.0,0.0,0.0,0.0,0.0,0.0,0.0,0.0,0.0,0.0,0.0,0.0,0.0,0.0,0.0,0.0,0.0,0.0,0.0,0.0,0.0,5.3203,5.328,5.3433,5.3433,5.351,5.3626,5.3818,5.3626,5.3203,5.3203,0.0,0.0,0.0,0.0,0.0,0.0,0.0,0.0,0.0,0.0,0.0,0.0,0.0,0.0,0.0,0.0,0.0,0.0,0.0,0.0,0.0,0.0,5.8511,5.8511,5.8627,5.8781,5.8934,0.0,0.0,0.0,0.0,0.0,0.0,0.0,0.0,0.0,0.0,0.0,6.3743,6.3743,6.3743,6.3743,6.3743,6.3743,6.3743,6.3743,6.3729,6.3584,6.3745,6.3399,0.0,0.0,0.0,0.0,0.0,0.0,0.0,0.0,0.0,0.0,0.0,0.0,0.0,0.0,0.0,0.0,0.0,0.0,0.0,0.0,0.0,0.0,0.0,0.0,0.0,0.0,0.0,0.0,0.0,0.0,0.0,0.0,4.9548,5.0433,0.0,0.0,0.0,0.0,0.0,0.0,0.0,0.0,0.0,0.0,0.0,0.0,0.0,5.3203,5.3203,5.3203,5.3203,5.3203,5.3203,5.3587,5.4318,5.4318,5.4703,5.5395,5.6165,0.0,5.3203,5.3203,0.0,0.0,0.0,0.0,0.0,0.0,0.0,0.0,0.0,0.0,0.0,0.0,0.0,0.0,0.0,0.0,0.0,0.0,0.0,0.0,0.0,0.0,5.9358,5.9358,5.9935,6.0666,6.1435,6.0396,5.9358,5.9358,6.0666,6.1743,0.0,0.0,0.0,0.0,0.0,0.0,6.5474,6.5551,6.5551,6.5551,6.5551,6.5551,6.5551,6.5551,6.5264,6.4616,6.4618,6.4328,6.3627,6.3455,0.0,0.0,0.0,0.0,0.0,0.0,0.0,0.0,0.0,0.0,0.0,0.0,0.0,0.0,0.0,0.0,0.0,0.0,0.0,0.0,0.0,0.0,0.0,0.0,0.0,0.0,0.0,0.0,0.0,5.0548,5.1125,5.201,5.2125,5.2241,0.0,0.0,0.0,0.0,0.0,0.0,0.0,0.0,0.0,5.3933,5.4357,5.4626,5.4626,5.5088,5.5318,5.5318,5.5818,5.628,5.6626,5.6626,5.6819,5.7165,5.755,5.7088,5.6088,5.6088,5.6088,5.6088,0.0,0.0,0.0,0.0,5.6088,5.6126,5.6511,5.6857,5.7203,5.7627,0.0,0.0,0.0,0.0,0.0,0.0,0.0,5.9088,5.9588,6.0319,6.0973,6.0973,6.1589,6.232,6.2704,6.2166,6.1627,6.1627,6.2243,6.2781,6.2781,6.3474,0.0,0.0,0.0,6.632,6.7205,6.7321,6.7321,6.7321,6.7321,6.7321,6.7321,6.7432,6.7123,6.6301,6.6445,6.5955,6.4581,6.4556,6.417,0.0,0.0,0.0,0.0,0.0,0.0,0.0,0.0,0.0,0.0,0.0,0.0,0.0,0.0,0.0,0.0,0.0,0.0,0.0,0.0,0.0,0.0,0.0,0.0,0.0,0.0,0.0,0.0,5.2241,5.2472,5.3126,5.3203,5.328,0.0,0.0,0.0,0.0,0.0,0.0,5.3857,5.4664,5.5126,5.5126,5.5934,5.6357,5.6357,5.7011,5.7319,5.7319,5.7973,5.8319,5.8319,5.8319,5.8319,5.8319,5.8511,5.8627,5.8588,5.8396,5.8319,5.8319,5.8319,5.8319,5.8319,5.8319,5.8319,5.8319,5.8319,5.8434,5.8627,5.8627,5.8781,5.8973,5.9204,0.0,0.0,0.0,0.0,6.0627,6.1281,6.1935,6.2397,6.2397,6.2858,6.3358,6.3589,6.382,6.382,6.3397,6.3474,6.3705,6.3935,6.4666,0.0,6.6397,6.7051,6.7667,6.8321,6.8398,6.8398,6.8398,6.8398,6.8424,6.8462,6.8613,6.8452,6.7888,6.8099,6.7626,6.6256,6.6029,6.5562,6.4731,0.0,0.0,0.0,0.0,0.0,0.0,0.0,0.0,0.0,0.0,0.0,0.0,0.0,0.0,0.0,0.0,0.0,0.0,0.0,0.0,0.0,0.0,0.0,0.0,0.0,0.0,0.0,0.0,0.0,5.3203,5.3203,0.0,0.0,0.0,0.0,5.5511,5.5549,5.5549,5.5549,5.6395,5.6857,5.6857,5.7703,5.8165,5.8165,5.8204,5.8242,5.8242,5.828,5.8319,5.8319,5.8319,5.8319,5.8357,5.9127,5.9435,5.9396,5.8627,5.8319,5.8319,5.8319,5.8319,5.8319,5.8319,5.8319,5.8319,5.8319,5.8819,5.9435,5.9435,6.0012,6.0819,6.1666,6.1897,0.0,0.0,6.3128,6.3128,6.3166,6.3205,6.3243,6.3243,6.3281,6.3551,6.4359,6.5166,6.5282,6.3628,6.3974,6.4782,6.5628,0.0,6.7282,6.8129,6.8321,6.8359,6.8398,6.8398,6.8398,6.8398,6.8398,6.8462,6.8678,6.87,6.8798,6.9106,6.9128,6.9138,6.9165,6.8288,6.7422,6.6673,6.5706,0.0,0.0,0.0,0.0,0.0,0.0,0.0,0.0,0.0,0.0,0.0,0.0,0.0,0.0,0.0,0.0,0.0,0.0,0.0,0.0,0.0,0.0,0.0,0.0,0.0,0.0,0.0,0.0,5.4741,5.4818,0.0,5.5241,5.528,5.5626,5.6472,5.6549,5.678,5.7357,5.7665,5.7857,5.7857,5.8127,5.8319,5.8319,5.8819,5.9088,5.9088,5.9627,5.9896,5.9896,6.0012,6.0364,6.0886,6.1271,6.175,6.2233,6.1961,6.108,5.9896,5.9896,5.9896,5.9896,5.9896,5.9896,5.9973,6.055,6.0935,6.1266,6.1945,6.2394,6.2796,6.2993,6.3068,6.3124,6.3253,6.332,6.332,6.332,6.3743,6.4282,6.4859,6.5359,6.5974,6.6859,6.7282,6.7321,6.6705,6.6821,6.7128,6.7475,6.7744,6.8244,6.9129,6.9244,6.9436,6.9937,7.0014,7.0014,7.0014,7.0131,7.0235,7.0286,7.0502,7.0431,6.9979,7.0073,6.9933,6.9411,6.9075,6.8723,6.8474,6.7553,6.6694,0.0,0.0,0.0,0.0,0.0,0.0,0.0,0.0,0.0,0.0,0.0,0.0,0.0,0.0,0.0,0.0,0.0,0.0,0.0,0.0,0.0,0.0,0.0,0.0,0.0,5.4895,5.5088,5.5626,5.5703,5.5818,5.6088,5.6126,5.6511,5.7357,5.7434,5.7703,5.828,5.855,5.8704,5.8704,5.8973,5.9127,5.9127,5.9973,6.0358,6.0396,6.1243,6.1674,6.1764,6.1833,6.2218,6.2792,6.2905,6.326,6.3804,6.3804,6.302,6.1813,6.1813,6.1813,6.1813,6.1813,6.1813,6.1891,6.247,6.2663,6.2799,6.3437,6.3712,6.3828,6.4028,6.4304,6.456,6.4685,6.4926,6.5134,6.5037,6.5436,6.6051,6.6628,6.7167,6.7705,6.8282,6.8629,6.8859,6.8859,6.859,6.8513,6.8783,6.8859,6.9129,6.9975,7.009,7.0283,7.0821,7.0898,7.0898,7.0898,7.1077,7.1257,7.128,7.1544,7.1482,7.098,7.1058,7.0899,7.028,7.0001,6.984,6.984,6.8981,6.7966,6.6795,0.0,0.0,0.0,0.0,0.0,0.0,0.0,0.0,0.0,0.0,0.0,0.0,0.0,0.0,0.0,0.0,0.0,0.0,0.0,0.0,0.0,0.0,0.0,5.5703,5.5703,5.5742,5.5742,5.5742,5.6088,5.6934,5.7049,5.7396,5.828,5.8357,5.8357,5.8396,5.9127,5.9588,5.9588,6.0435,6.0858,6.0881,6.1728,6.2151,6.2151,6.2959,6.3444,6.3613,6.3632,6.3701,6.3857,6.3857,6.3895,6.3934,6.3934,6.3934,6.3973,6.3857,6.3804,6.3804,6.3804,6.3804,6.3842,6.3881,6.3895,6.3934,6.3973,6.3973,6.4129,6.4984,6.5839,6.661,6.7271,6.8063,6.8657,6.8475,6.8398,6.8398,6.8436,6.8436,6.8475,6.8475,6.9129,6.9744,6.9744,6.9052,6.8744,6.959,6.9744,7.0014,7.0783,7.0898,0.0,7.0898,7.0898,7.0925,7.0925,7.1077,7.128,7.1481,7.1628,7.1789,7.1982,7.1987,7.2002,7.1981,7.1182,7.0738,7.0699,6.9879,6.8591,6.6873,0.0,0.0,0.0,0.0,0.0,0.0,0.0,0.0,0.0,0.0,0.0,0.0,0.0,0.0,0.0,0.0,0.0,0.0,0.0,0.0,0.0,5.6626,5.6395,5.578,5.6242,5.6626,5.6626,5.7203,5.7665,5.7934,5.7934,5.828,5.9127,5.9165,5.9435,6.0089,6.0935,6.1396,6.1396,6.2166,6.2683,6.2818,6.305,6.3265,6.3313,6.3546,6.3684,6.3744,6.3857,6.4247,6.4893,6.5035,6.5808,6.6939,6.6939,6.729,6.7594,6.4869,6.3804,6.3804,6.3804,6.4192,6.4814,6.5474,6.6166,6.6863,6.7498,6.7784,6.7907,6.8026,6.8238,6.8436,6.8474,6.8657,6.8816,6.8678,6.8613,6.876,6.922,6.936,6.9513,7.009,7.0398,7.0552,7.0552,7.0398,7.0283,7.0514,7.0552,7.0667,7.086,7.0898,7.0898,7.0898,7.1042,7.1124,7.1124,7.1374,7.1587,7.164,7.1819,7.193,7.1987,7.2017,7.1989,7.1991,7.1776,7.1363,7.0699,7.0465,6.9801,0.0,0.0,0.0,0.0,0.0,0.0,0.0,0.0,0.0,0.0,0.0,0.0,0.0,0.0,0.0,0.0,0.0,0.0,0.0,0.0,0.0,0.0,5.755,5.7357,5.6857,5.7242,5.755,5.755,5.7973,5.8434,5.8781,5.8819,5.9165,5.9973,6.0396,6.0827,6.14,6.2249,6.2776,6.282,6.3283,6.3574,6.3701,6.405,6.4449,6.4892,6.5241,6.5644,6.6047,6.6124,6.6498,6.7032,6.713,6.7732,6.863,6.863,6.8942,6.9171,0.0,0.0,0.0,0.0,6.6468,6.6964,6.747,6.8018,6.8609,6.9116,6.9341,6.9405,6.9327,6.9545,6.98,6.9565,6.9798,7.0042,6.9903,6.9886,6.9963,7.0341,7.0474,7.0544,7.0951,7.1077,7.1124,7.1067,7.1077,0.0,7.1147,7.1017,7.094,7.1124,7.1077,7.1067,7.1147,7.1239,7.132,7.132,7.1534,7.1689,7.168,7.1893,0.0,0.0,0.0,7.1988,7.1992,7.1986,0.0,0.0,0.0,7.0816,6.9957,6.9957,0.0,0.0,6.5468,6.5205,0.0,0.0,0.0,0.0,0.0,0.0,0.0,0.0,0.0,0.0,0.0,0.0,0.0,0.0,0.0,0.0,5.8434,5.8473,5.8588,5.8588,5.855,5.8434,5.8534,5.8941,5.9749,5.981,6.0217,6.1065,6.1835,6.2348,6.2432,6.3302,0.0,0.0,0.0,6.4245,6.4259,6.5114,6.5984,6.6736,6.7461,6.8307,6.9236,6.9236,6.928,6.9411,6.9411,6.945,6.9567,6.9567,6.9606,6.9684,6.9489,6.9411,6.9411,6.9411,6.9411,6.9411,6.9528,0.0,0.0,6.9645,6.9684,6.9684,6.9684,7.023,7.0805,7.061,7.1136,7.1689,7.1559,7.1513,7.1513,7.1481,7.1481,7.143,7.126,7.1358,7.143,7.126,7.1377,7.1481,7.1513,7.1197,7.1077,7.143,7.1339,7.128,7.1465,7.1497,7.1513,7.1513,7.1641,0.0,7.1716,7.1901,7.1993,7.1997,7.1997,7.2014,7.1992,7.1992,7.1991,7.1984,7.2006,7.1607,7.086,7.0855,7.0465,6.9645,6.7927,6.7429,0.0,0.0,0.0,0.0,0.0,0.0,0.0,0.0,0.0,0.0,0.0,0.0,0.0,0.0,0.0,5.9165,5.9281,5.9511,6.0204,6.0319,6.005,5.9358,5.9994,6.0829,6.1698,6.1867,6.2277,6.313,6.3363,6.3495,6.3487,6.4342,6.4823,6.4838,6.6174,6.6931,6.7119,6.7976,6.8564,6.8827,6.8983,0.0,6.9354,6.9354,6.936,6.9411,6.9411,6.9801,7.0465,7.0465,7.0855,7.1363,6.9957,6.9411,6.9411,6.9411,6.9411,6.9489,7.0191,7.0465,7.0543,7.1285,7.1519,7.1519,7.1519,7.1597,0.0,7.1702,7.1813,7.1916,7.17,7.1665,7.1641,7.1513,7.1481,7.1481,7.143,7.1465,7.1465,7.143,7.1465,7.1529,7.1653,7.1513,7.1395,7.1465,7.1448,7.1448,7.1481,7.1601,7.1665,7.1665,7.1846,7.193,7.1924,7.1997,7.1981,7.199,7.199,7.1991,7.1992,7.1992,7.1992,7.1991,7.199,7.191,7.1741,7.1763,7.1675,7.1441,6.9723,6.8976,0.0,0.0,0.0,0.0,0.0,0.0,0.0,0.0,0.0,0.0,0.0,5.9184,0.0,0.0,5.9665,6.0089,6.0586,6.1057,6.1481,6.1969,6.195,6.1018,6.1331,6.2025,6.2981,6.3099,6.3337,6.3765,6.4192,6.4648,6.5154,6.601,6.6735,6.7229,6.8047,6.8534,6.8656,6.9085,6.9536,7.0035,7.0035,7.027,7.0699,7.0699,7.0699,7.0699,7.0699,7.0933,7.1363,7.1363,7.1597,7.1909,7.105,7.0699,7.0699,7.0699,7.0699,7.0777,7.1206,7.1363,7.1402,7.187,7.1987,7.1987,7.1987,7.1987,7.1987,7.1987,7.1987,7.1982,7.1862,7.1854,7.1846,7.1749,7.1739,7.1728,7.1615,7.1692,7.1728,7.1615,7.1692,7.176,7.1846,7.217,7.2245,7.1817,7.1653,7.1628,7.1728,7.1828,7.1854,7.1854,7.193,7.1987,7.1987,7.2017,7.199,7.1992,7.1992,7.1992,7.1992,7.1992,7.1992,7.1992,7.1992,7.1992,7.1989,7.2017,7.2002,7.1987,7.1128,7.0465,0.0,0.0,0.0,0.0,0.0,0.0,0.0,0.0,5.9374,6.0112,6.0282,6.0515,6.1173,6.135,6.14,6.14,6.2046,6.2585,6.2585,6.3301,6.358,6.2965,6.2715,6.3014,6.4001,6.4144,6.4286,6.4597,6.5285,6.6112,6.7101,6.7803,6.857,6.9372,6.9567,6.9645,6.9645,6.9801,7.027,7.0933,7.0933,7.1324,7.1987,7.1987,7.1987,7.1987,7.1987,7.1987,7.1987,7.1987,7.1987,7.1987,7.1987,7.1987,7.1987,7.1987,7.1987,7.1987,7.1987,7.1987,7.1987,7.1987,7.1987,7.1987,7.1987,7.1987,7.1987,7.1987,7.1987,7.1987,7.1987,7.1987,7.1987,7.1987,7.1987,7.1976,7.1789,7.1909,7.2015,7.2023,7.2143,7.23,7.2456,7.308,7.3236,7.2378,7.2253,7.2305,7.245,7.2495,7.2495,7.2495,7.2495,7.2495,7.2495,7.2337,7.2265,7.2265,7.2109,7.1992,7.1992,7.1992,7.1992,7.1992,7.1992,7.1992,7.1992,7.1986,7.201,7.1987,7.1987,7.1636,6.1017,6.1214,6.1217,6.1329,6.1261,6.1198,0.0,0.0,6.0953,6.1031,6.1677,6.2221,6.2337,6.2944,6.3449,6.3449,6.358,6.3634,6.3634,6.3726,6.4092,6.4888,6.4265,6.4159,6.5065,6.5293,6.6037,6.752,6.7715,6.8144,6.9048,6.9165,6.9288,6.9411,7.0152,7.0543,7.0543,7.1324,7.1753,7.1831,7.1831,7.1909,7.1987,7.1987,7.1987,7.1987,7.1987,7.1987,7.1987,7.1987,7.1987,7.1987,7.1987,7.1987,7.1987,7.1987,7.1987,7.1987,7.1987,7.1987,7.1987,7.1987,7.1987,7.1987,7.1987,7.1987,7.1987,7.1987,7.1987,7.1987,7.1987,7.1987,7.1987,7.1987,7.1987,7.1987,7.1982,7.1982,7.2221,7.299,7.3153,7.3393,7.4095,7.429,7.4095,7.3275,7.3738,7.4207,7.4212,7.4212,7.4212,7.4212,7.4212,7.4251,7.4296,7.3587,7.3164,7.3164,7.2422,7.1992,7.1992,7.1992,7.1992,7.1992,7.1992,7.1992,7.1992,7.1986,7.201,7.1987,7.1987,7.1948,6.2306,6.2362,6.2265,0.0,6.205,6.2382,6.2382,6.2711,6.2999,6.2999,6.3185,6.3375,6.3375,6.3625,6.3804,0.0,6.4312,6.4671,6.4671,6.5621,6.6447,6.6869,6.7071,6.711,6.6954,6.7448,6.8083,6.8786,6.8864,6.9255,7.0113,7.0152,7.0387,7.0894,7.1285,7.1441,7.1441,7.1831,7.226,7.2768,7.2768,7.3002,7.3432,7.2963,7.2495,7.1987,7.1987,7.1987,7.1987,7.1987,7.1987,7.1987,7.1987,7.1987,7.1987,7.1987,7.1987,7.1987,7.1987,7.1987,7.1987,7.1987,7.1987,7.1987,7.1987,7.1987,7.1987,7.1987,7.1987,7.1987,7.1987,7.1987,7.2143,7.2651,7.2768,7.2885,7.3354,7.3432,7.3549,7.3939,7.4017,7.4095,7.4447,7.4915,7.5149,7.4798,7.4603,7.4486,7.4486,7.4486,7.4486,7.4486,7.4486,7.4525,7.4603,7.4282,7.4061,7.4062,7.3711,7.3281,7.2773,7.2773,7.2539,7.1992,7.1992,7.1992,7.1992,7.1986,7.201,7.1987,7.1987,7.1987,6.336,6.336,0.0,6.2579,6.2891,6.336,6.336,6.3867,6.4297,6.4297,6.4379,6.4458,6.4458,6.4559,6.4699,6.4932,6.5592,6.6174,6.6408,6.7592,6.8474,6.8474,6.9215,6.9528,6.8864,6.9176,6.9489,6.9723,6.9762,7.0152,7.1011,7.105,7.148,7.2339,7.2378,7.2456,7.269,7.269,7.3002,7.3627,7.3627,7.3939,7.4486,7.39,7.3275,7.269,7.269,7.269,7.269,7.269,7.269,7.269,7.269,7.269,7.2651,7.2456,7.2221,7.1987,7.1987,7.1987,7.1987,7.1987,7.1987,7.1987,7.1987,7.1987,7.1987,7.1987,7.2182,7.2378,7.2378,7.2534,7.2846,7.3471,7.3627,7.3783,7.4369,7.4486,7.4564,7.4798,7.4876,7.4915,7.5188,7.5735,7.6164,7.6164,7.5618,7.5227,7.5227,7.5227,7.5227,7.5227,7.5227,7.5227,7.5305,7.5087,7.4952,7.4961,7.4726,7.4336,7.3672,7.3672,7.3359,7.2734,7.2734,7.2734,7.2734,7.2728,7.2713,7.2729,7.269,7.269,6.4258,0.0,6.4258,6.4219,6.4258,6.4258,6.4258,6.4297,6.4297,6.4297,6.496,6.5541,6.5541,6.6204,6.6985,6.7844,6.8,6.8312,6.9176,6.9333,6.9372,6.9372,7.0113,7.066,7.0621,6.9879,6.9762,7.0582,7.066,7.105,7.1909,7.1948,7.2378,7.3236,7.3275,7.3627,7.4408,7.4408,7.4447,7.4447,7.4447,7.4486,7.4486,7.4486,7.4447,7.4408,7.4408,7.4408,7.4408,7.4408,7.4408,7.4408,7.4408,7.4408,7.433,7.3549,7.2729,7.1987,7.1987,7.1987,7.1987,7.1987,7.1987,7.1987,7.1987,7.1987,7.1987,7.1987,7.2612,7.3275,7.3275,7.3822,7.4447,7.4447,7.4447,7.4486,7.4486,7.4486,7.4759,7.5618,7.5774,7.6047,7.6867,7.7023,7.7062,7.7062,7.7023,7.7023,7.7023,7.7023,7.7023,7.7023,7.7023,7.7023,7.7023,7.632,7.5876,7.5859,7.5078,7.4609,7.457,7.457,7.4531,7.4531,7.4531,7.4531,7.4531,7.4527,7.451,7.4525,7.4447,7.4408,6.5155,0.0,6.5038,6.4453,6.4726,6.5155,6.5155,6.5585,6.5975,6.5975,6.6639,6.7264,6.7264,6.7966,6.863,6.8903,6.8942,6.9059,6.9372,6.9918,7.027,7.027,7.1011,7.1558,7.1558,7.1285,7.1245,7.1558,7.1558,7.1948,7.2807,7.2846,7.3236,7.4056,7.4095,7.4212,7.4486,7.4486,7.4798,7.5384,7.593,7.593,7.5345,7.5345,7.5032,7.4486,7.4486,7.4486,7.4486,7.4486,7.4486,7.4486,7.4486,7.4486,7.4486,7.4212,7.39,7.351,7.2378,7.1987,7.1987,7.1987,7.2378,7.2846,7.2846,7.3236,7.3666,7.3666,7.3861,7.4095,7.4095,7.429,7.4642,7.5227,7.5345,7.5501,7.6086,7.6242,7.632,7.6594,7.6672,7.675,7.7062,7.7101,7.7101,7.7101,7.7101,7.7101,7.7101,7.7101,7.7101,7.7101,7.7101,7.7101,7.7101,7.6867,7.6717,7.6775,7.6481,7.6055,7.5508,7.5469,7.5195,7.4609,7.4609,7.4609,7.4609,7.4605,7.4588,7.4603,7.4525,7.4486,6.6014,6.6014,6.5897,6.5312,6.5624,6.6014,6.6014,6.6678,6.7264,6.7264,6.7966,6.8552,6.8552,6.902,6.9489,6.9801,6.9879,6.9957,7.0309,7.0816,7.1167,7.1167,7.1675,7.2104,7.2417,7.2456,7.2456,7.2456,7.2456,7.2846,7.3666,7.3744,7.4095,7.4954,7.4954,7.511,7.5423,7.5423,7.5696,7.6281,7.6828,7.6828,7.6242,7.6242,7.5969,7.5423,7.5423,7.5423,7.5423,7.5423,7.5423,7.5423,7.5423,7.5423,7.5384,7.5071,7.4954,7.4759,7.3393,7.2885,7.2885,7.2885,7.3275,7.3744,7.3744,7.4095,7.4486,7.4486,7.472,7.4954,7.4954,7.5188,7.5579,7.6125,7.6242,7.6438,7.6984,7.7101,7.7101,7.7101,7.7101,7.7101,7.7101,7.7101,7.7101,7.7101,7.7101,7.7101,7.7101,7.7101,7.7101,7.7101,7.7101,7.7101,7.7101,7.7112,7.7112,7.7218,7.7181,7.6953,7.6406,7.6367,7.6094,7.5547,7.5547,7.5547,7.5547,7.5503,7.5486,7.5501,7.5462,7.5423,6.6795,6.6795,6.6795,6.6873,6.6873,6.6873,6.6912,6.7576,6.8161,6.8161,6.8864,6.945,0.0,0.0,6.9801,7.0621,7.0777,7.105,7.187,7.1987,7.1987,0.0,0.0,0.0,0.0,0.0,7.3393,7.3432,7.3393,7.3705,7.4525,7.4564,7.4954,7.5852,7.5852,7.6242,7.7101,7.7101,7.7101,7.7101,7.7101,7.7101,7.7101,7.7101,7.7101,7.7101,7.7101,7.7101,7.7101,7.7101,7.7101,7.7101,7.7101,7.7101,7.6984,7.6164,7.5852,7.5735,7.4915,7.4564,7.4486,7.4486,7.4525,7.4564,7.4564,7.4603,7.4642,7.4642,7.5227,7.5852,7.5852,7.6477,7.7101,7.7101,7.7101,7.7101,7.7101,7.7101,7.7101,7.7101,7.7101,7.7101,7.7101,7.7101,7.7101,7.7101,7.7101,7.7101,7.7101,7.7101,7.7101,7.7101,7.7101,7.7101,7.7101,7.7126,7.713,7.7185,7.7181,7.7187,7.7187,7.7187,7.7187,7.7187,7.7187,7.7187,7.7187,7.7144,7.7091,7.7101,7.7101,7.7101,6.6795,6.6795,6.6951,6.7615,6.7771,6.7927,6.8591,6.8903,6.9059,6.9059,6.9762,7.0387,0.0,0.0,0.0,7.1636,7.1675,0.0,7.1987,7.1987,0.0,7.1987,0.0,7.308,7.3275,7.3822,0.0,7.511,7.4564,7.4564,7.5423,7.5462,7.5852,7.675,7.6789,7.6867,7.7101,7.7101,7.7101,7.7101,7.7101,7.7101,7.7101,7.7101,7.7101,7.7101,7.7101,7.7101,7.7101,7.7101,7.7101,7.7101,7.7101,7.7101,7.7062,7.6867,7.6789,7.675,7.6516,7.5579,7.4486,7.4486,7.4954,7.5462,7.5462,7.593,7.6438,7.6438,7.6594,7.6789,7.6789,7.6945,7.7101,7.7101,7.7101,7.7101,7.7101,7.7101,7.7101,7.7101,7.7101,7.7101,7.7101,7.7101,7.7101,7.7101,7.7101,7.7101,7.7101,7.7101,7.7101,7.7101,7.7101,7.7101,7.7179,7.7185,7.7165,7.7183,7.7187,7.7187,7.7187,7.7187,7.7187,7.7187,7.7187,7.7187,7.7187,7.7187,7.7139,7.7101,7.7101,7.7101,6.6795,6.7068,6.7498,6.7966,6.8396,6.8786,6.9294,6.9684,6.9957,6.9957,7.066,7.1285,7.1285,7.1675,7.1987,0.0,0.0,0.0,7.1987,7.1987,7.1987,0.0,7.2768,0.0,7.3783,7.4564,7.5423,7.6281,7.554,7.5462,7.632,7.636,7.6594,7.7062,7.7101,7.7101,7.7101,7.7101,7.7101,7.7101,7.7101,7.7101,7.7101,7.7101,7.7101,7.7101,7.7101,7.7101,7.7101,7.7101,7.7101,7.7101,7.7101,7.7101,7.7101,7.7101,7.7101,7.7101,7.7101,7.6477,7.5657,7.5657,7.5969,7.636,7.636,7.6711,7.7101,7.7101,7.7101,7.7101,7.7101,7.7101,7.7101,7.7101,7.7101,7.7101,7.7101,7.7101,7.7101,7.7101,7.7101,7.7101,7.7101,7.7101,7.7101,7.7101,7.7101,7.7101,7.7101,7.7101,7.7101,7.7101,7.7101,7.714,7.7179,7.7218,7.7204,7.7187,7.7187,7.7187,7.7187,7.7187,7.7187,7.7187,7.7187,7.7187,7.7187,7.7187,7.7184,7.7083,7.7107,7.7101,6.6951,6.7537,6.8161,6.8396,6.902,6.9606,6.9723,7.0348,7.0855,7.0855,0.0,7.1987,7.1987,7.1987,7.1987,7.1987,0.0,7.1987,7.1987,7.1987,7.2026,7.2143,7.2924,7.3783,7.4603,7.5462,7.6281,7.7023,7.6399,7.6281,7.7062,7.7101,7.7101,7.7101,7.7101,7.7101,7.7101,7.7101,7.7101,7.7101,7.7101,7.7101,7.7101,7.7101,7.7101,7.7101,7.7101,7.7101,7.7101,7.7101,7.7101,7.7101,7.7101,7.7101,7.7101,7.7101,7.7101,7.7101,7.7101,7.7101,7.7101,7.7101,7.7101,7.7101,7.7101,7.7101,7.7101,7.7101,7.7101,7.7101,7.7101,7.7101,7.7101,7.7101,7.7101,7.7101,7.7101,7.7101,7.7101,7.7101,7.7101,7.7101,7.7101,7.7101,7.7101,7.7101,7.7101,7.714,7.7257,7.7179,7.7101,7.7101,7.7107,7.7146,7.719,7.719,7.7208,7.7187,7.7187,7.7187,7.7187,7.7187,7.7187,7.7187,7.7187,7.7187,7.7187,7.7187,7.7186,7.7097,7.7117,7.7101,6.7693,6.7966,6.8435,6.9879,7.0348,7.066,7.1363,7.1675,0.0,0.0,7.187,7.1987,7.1987,7.1987,7.1987,7.1987,7.1987,7.1987,7.1987,7.1987,7.226,0.0,7.3783,7.4642,7.5501,7.636,7.6945,7.7101,7.6945,7.6945,7.7101,7.7101,7.7101,7.7101,7.7101,7.7101,7.7101,7.7101,7.7101,7.7101,7.7101,7.7101,7.7101,7.7101,7.7101,7.7101,7.7101,7.7101,7.7101,7.7101,7.7101,7.7101,7.7101,7.7101,7.7101,7.7101,7.7101,7.7101,7.7101,7.7101,7.7101,7.7101,7.7101,7.7101,7.7101,7.7101,7.7101,7.7101,7.7101,7.7101,7.7101,7.7101,7.7101,7.7101,7.7101,7.7101,7.7101,7.7101,7.7101,7.7101,7.7101,7.7101,7.7101,7.7101,7.7101,7.7101,7.7101,7.7375,7.8077,7.7531,7.7101,7.7101,7.7083,7.7139,7.7186,7.7186,7.7187,7.7187,7.7187,7.7187,7.7187,7.7187,7.7187,7.7187,7.7187,7.7187,7.7187,7.7187,7.7186,7.7097,7.7117,7.7101,6.801,6.8747,6.9645,7.0504,7.105,7.148,7.1909,0.0,0.0,0.0,7.1987,7.1987,7.1987,7.1987,0.0,7.1987,7.1987,7.1987,7.1987,7.1987,7.2339,7.3197,7.4017,7.4837,7.5735,7.6594,7.7101,7.7101,7.7101,7.7101,7.7101,7.7101,7.7101,7.7101,7.7101,7.7101,7.7101,7.7101,7.7101,7.7101,7.7101,7.7101,7.7101,7.7101,7.7101,7.7101,7.7101,7.7101,7.7101,7.7101,7.7101,7.714,7.7609,7.7765,7.7843,7.8272,7.8468,7.8468,7.8468,7.8468,7.8468,7.8468,7.7843,7.7101,7.7101,7.7101,7.7101,7.7101,7.7101,7.7101,7.7101,7.7453,7.7765,7.7765,7.8116,7.8468,7.8468,7.8468,7.8468,7.8468,7.8468,7.8468,7.8468,7.8468,7.8468,7.8468,7.8468,7.8585,7.9014,7.8702,7.8468,7.8468,7.8449,7.8467,7.8515,7.8515,7.832,7.789,7.789,7.7656,7.7226,7.7187,7.7187,7.7187,7.7656,7.789,7.789,7.8281,7.8475,7.8464,7.844,7.8468,6.8318,6.9528,7.0738,7.0933,7.148,7.1987,7.1987,7.1987,0.0,7.1987,7.1987,7.1987,7.1987,0.0,7.1987,0.0,7.1987,7.1987,7.1987,7.2143,7.2612,0.0,7.429,0.0,7.5969,7.6711,7.7101,7.7101,7.7101,7.7101,7.7101,7.7101,7.7101,7.7101,7.7101,7.7101,7.7101,7.7101,7.7101,7.7101,7.7101,7.7101,7.7101,7.7101,7.7218,7.7375,7.7375,7.7492,7.7648,7.7648,7.7648,7.7726,7.8429,7.8663,7.8741,7.9444,7.9717,7.9717,7.9717,7.9717,7.9717,7.9717,7.878,7.7648,7.7648,7.7648,7.7648,7.7648,7.7648,7.7648,7.7648,7.8155,7.8663,7.8663,7.9209,7.9717,7.9717,7.9717,7.9717,7.9717,7.9717,7.9717,7.9717,7.9717,7.9717,7.9717,7.9717,7.9756,7.9951,7.999,8.0068,8.0224,7.9923,7.9707,7.9684,7.9687,7.9414,7.8789,7.875,7.8437,7.7773,7.7734,7.7734,7.7734,7.8398,7.875,7.875,7.9375,7.9686,7.9714,7.9689,7.9717,6.9059,6.9996,7.0894,7.1675,7.1948,7.1987,7.1987,0.0,7.1987,7.1987,7.1987,7.1987,7.1987,0.0,0.0,0.0,0.0,7.1987,7.1987,7.269,7.3471,7.429,0.0,0.0,7.6906,7.7062,7.7101,7.7101,7.7101,7.7101,7.7101,7.7101,7.7101,7.7101,7.7101,7.7101,7.7101,7.7101,7.7101,7.7101,7.7101,7.7101,7.7101,7.7101,7.7531,7.8272,7.8272,7.8741,7.9444,7.9444,7.9444,7.9483,7.9561,7.96,7.96,7.9678,7.9717,7.9717,7.9717,7.9717,7.9717,7.9717,7.96,7.9444,7.9444,7.9444,7.9444,7.9444,7.9444,7.9444,7.9444,7.9522,7.96,7.96,7.9639,7.9717,7.9717,7.9717,7.9717,7.9717,7.9717,7.9717,7.9717,7.9717,7.9717,7.9717,7.9717,7.999,8.0771,8.0888,8.1161,8.1981,8.0654,7.9684,7.9684,7.968,7.9687,7.9609,7.9609,7.9531,7.9453,7.9453,7.9453,7.9453,7.9531,7.9609,7.9609,7.9648,7.9686,7.9714,7.9689,7.9717,6.9294,7.0426,7.1558,7.1909,7.1987,7.1987,7.1987,0.0,7.1987,7.1987,7.1987,7.1987,7.1987,7.1987,0.0,0.0,0.0,0.0,7.1987,7.2768,7.3588,7.4408,7.5266,7.6125,7.7023,7.7101,7.7101,7.7101,7.7101,7.7101,7.7101,7.7101,7.7101,7.7101,7.7101,7.7101,7.7101,7.7101,7.7101,7.7101,7.7648,7.7882,7.7882,7.8429,7.8858,7.917,7.917,7.9366,7.9717,7.9717,7.9717,7.9756,8.0263,8.0498,8.0537,8.1083,8.1278,8.1278,8.1278,8.1278,8.1278,8.1278,8.1278,8.1083,8.0029,7.9717,7.9717,7.9717,7.9717,7.9717,7.9717,8.0107,8.0615,8.1122,8.1278,8.1278,8.1278,8.1278,8.1278,8.1278,8.1278,8.1278,8.1278,8.1278,8.1278,8.1278,8.1278,8.1396,8.1747,8.1786,8.1903,8.2254,8.1669,8.1278,8.1278,8.1273,8.1053,8.0508,8.0469,8.0234,7.9726,7.9687,7.9687,7.9687,8.0234,8.0469,8.0469,8.1014,8.1243,8.1276,8.1251,8.1278,6.9723,7.0855,7.1987,7.1987,7.1987,7.1987,7.1987,7.1987,7.1987,7.1987,7.1987,7.1987,7.1987,7.1987,7.1987,0.0,0.0,7.1987,7.1987,7.2963,7.3861,7.4447,0.0,7.6438,7.7023,7.7101,7.7101,7.7101,7.7101,7.7101,7.7101,7.7335,7.7375,7.7101,7.7335,7.7492,7.7492,7.7726,7.7882,7.7882,7.8507,7.878,7.8819,7.9405,7.9834,8.0068,8.0068,8.0224,8.0459,8.0459,8.0459,8.0537,8.1122,8.1396,8.1474,8.2059,8.2293,8.2293,8.2293,8.2293,8.2293,8.2293,8.2293,8.2059,8.0849,8.0459,8.0459,8.0459,8.0459,8.0459,8.0459,8.0927,8.1552,8.2137,8.2293,8.2293,8.2293,8.2293,8.2293,8.2293,8.2293,8.2293,8.2293,8.2293,8.2293,8.2293,8.2293,8.2293,8.2293,8.2293,8.2293,8.2293,8.2293,8.2293,8.2293,8.231,8.2021,8.1406,8.1367,8.1094,8.0508,8.0469,8.0469,8.0469,8.1054,8.1366,8.1401,8.2015,8.2289,8.2292,8.2305,8.2293,7.0465,7.1324,7.1987,7.1987,7.1987,7.1987,7.1987,7.1987,7.1987,7.1987,7.1987,7.1987,7.1987,7.1987,7.1987,7.1987,7.1987,0.0,7.1987,7.3432,7.4486,0.0,7.6047,7.7101,7.7101,7.7101,7.7101,7.7101,7.7101,7.7101,7.7101,7.7921,7.7999,7.714,7.7921,7.839,7.839,7.9248,7.9678,7.9678,7.9678,7.9678,7.9678,7.9717,8.0185,8.1005,8.1005,8.1474,8.2254,8.2254,8.2254,8.2254,8.2293,8.2293,8.2293,8.2293,8.2293,8.2293,8.2293,8.2293,8.2293,8.2293,8.2293,8.2293,8.2293,8.2254,8.2254,8.2254,8.2254,8.2254,8.2254,8.2293,8.2293,8.2293,8.2293,8.2293,8.2293,8.2293,8.2293,8.2293,8.2293,8.2293,8.2293,8.2293,8.2293,8.2293,8.2293,8.2293,8.2293,8.2293,8.2293,8.2293,8.2293,8.2293,8.2293,8.2293,8.232,8.2304,8.2304,8.2265,8.2265,8.2265,8.2265,8.2265,8.2265,8.23,8.2293,8.2293,8.231,8.2292,8.2305,8.2293,6.9723,7.0894,7.1987,7.1987,7.1987,7.1987,7.1987,7.1987,7.1987,7.1987,7.1987,7.1987,7.1987,7.1987,7.1987,7.1987,7.1987,7.1987,7.1987,0.0,0.0,7.4486,7.6047,7.7101,7.7101,7.7101,7.7101,7.7101,7.7101,7.7375,7.796,7.8233,7.8272,7.7999,7.8819,7.9287,7.9287,7.9561,7.9717,7.9717,8.0302,8.0576,8.0615,8.12,8.163,8.1903,8.1903,8.2059,8.2293,8.2293,8.2293,8.2293,8.2293,8.2293,8.2293,8.2293,8.2293,8.2293,8.2293,8.2293,8.2293,8.2293,8.2293,8.2293,8.2293,8.2293,8.2293,8.2293,8.2293,8.2293,8.2293,8.2293,8.2293,8.2293,8.2293,8.2293,8.2293,8.2293,8.2293,8.2293,8.2293,8.2293,8.2293,8.2293,8.2293,8.2293,8.2293,8.2293,8.2293,8.2293,8.2293,8.2293,8.2293,8.2293,8.2293,8.2293,8.2299,8.232,8.2301,8.2304,8.2304,8.2304,8.2304,8.2304,8.2295,8.231,8.2293,8.2293,8.2299,8.2305,8.2299,8.2293,0.0,7.0933,7.1987,7.1987,7.1987,7.1987,7.1987,7.1987,7.1987,7.1987,7.1987,7.1987,7.1987,7.1987,7.1987,7.1987,7.1987,7.1987,7.1987,7.3432,0.0,7.5384,7.6438,7.7101,7.7101,7.7101,7.7101,7.7101,7.7414,7.7843,7.835,7.9014,7.9366,7.9366,7.9912,8.0185,8.0185,8.0537,8.0693,8.0693,8.1239,8.1474,8.1513,8.2059,8.2293,8.2293,8.2293,8.2293,0.0,8.2293,8.2293,8.2293,8.2293,8.2293,8.2293,8.2293,8.2293,8.2293,8.2293,8.2293,8.2293,8.2293,8.2293,8.2293,8.2293,8.2293,8.2293,8.2293,8.2293,8.2293,8.2293,8.2293,8.2293,8.2293,8.2293,8.2293,8.2293,8.2293,8.2293,8.2293,8.2293,8.2293,8.2293,8.2293,8.2293,8.2293,8.2293,8.2293,8.2293,8.2293,8.2293,8.2293,8.2293,8.2293,8.2293,8.2293,8.2293,8.2293,8.2285,8.23,8.2303,8.2303,8.2303,8.2303,8.2285,8.231,8.231,8.2299,8.2293,8.2293,8.2293,8.2293,0.0,7.1285,7.1987,7.1987,7.1987,7.1987,7.1987,7.1987,0.0,7.1987,7.1987,7.1987,7.1987,7.1987,7.1987,7.1987,7.1987,7.1987,7.1987,7.3432,0.0,7.6906,7.7101,7.7101,7.7101,7.7101,7.714,7.7179,7.7921,7.8468,7.8585,8.0107,8.1044,8.1083,8.1083,8.1083,8.1083,8.1903,8.2293,8.2293,8.2293,8.2293,8.2293,8.2293,8.2293,8.2293,8.2293,8.2293,8.2293,8.2293,8.2293,8.2293,8.2293,8.2293,8.2293,8.2293,8.2293,8.2293,8.2293,8.2293,8.2293,8.2293,8.2293,8.2293,8.2293,8.2293,8.2293,8.2293,8.2293,8.2293,8.2293,8.2293,8.2293,8.2293,8.2293,8.2293,8.2293,8.2293,8.2293,8.2293,8.2293,8.2293,8.2293,8.2293,8.2293,8.2293,8.2293,8.2293,8.2293,8.2293,8.2293,8.2293,8.2293,8.2293,8.2293,8.2293,8.2293,8.2293,8.2293,8.2305,8.2289,8.2292,8.2292,8.2292,8.2292,8.2292,8.2292,8.2305,8.2293,8.2293,8.2293,8.2293,6.9645,0.0,7.1987,7.1987,7.1987,7.1987,0.0,7.1987,0.0,0.0,0.0,7.1987,7.1987,7.1987,7.1987,7.1987,7.1987,7.1987,7.1987,7.3432,7.5149,7.6906,7.7101,7.7101,7.7101,7.7101,7.7375,7.8038,7.8272,7.8975,8.0302,8.0771,8.1317,8.1981,8.1981,8.1981,8.1981,8.2215,8.2293,8.2293,8.2293,8.2293,8.2293,8.2293,8.2293,8.2293,8.2293,8.2293,8.2293,8.2293,8.2293,8.2293,8.2293,8.2293,8.2293,8.2293,8.2293,8.2293,8.2293,8.2293,8.2293,8.2293,8.2293,8.2293,8.2293,8.2293,8.2293,8.2293,8.2293,8.2293,8.2293,8.2293,8.2293,8.2293,8.2293,8.2293,8.2293,8.2293,8.2293,8.2293,8.2293,8.2293,8.2293,8.2293,8.2293,8.2293,8.2293,8.2293,8.2293,8.2293,8.2293,8.2293,8.2293,8.2293,8.2293,8.2293,8.2293,8.2293,8.2293,8.2293,8.2305,8.2305,8.2305,8.2305,8.2305,8.2305,8.2305,8.2293,8.2293,8.2293,8.2293,8.2293,6.9411,7.066,7.1987,7.1987,7.1987,7.1987,0.0,0.0,0.0,0.0,0.0,7.1987,7.1987,7.1987,7.1987,7.1987,7.1987,7.226,7.3041,7.3939,7.5149,7.6906,7.7101,7.7101,7.7101,7.7453,7.7882,7.835,7.9131,7.999,8.0966,8.1396,8.1825,8.2293,8.2293,8.2293,8.2293,8.2293,8.2293,8.2293,8.2293,8.2293,8.2293,8.2293,8.2293,8.2293,8.2293,8.2293,8.2293,8.2293,8.2293,8.2293,8.2293,8.2293,8.2293,8.2293,8.2293,8.2293,8.2293,8.2293,8.2293,8.2293,8.2293,8.2293,8.2293,8.2293,8.2293,8.2293,8.2293,8.2293,8.2293,8.2293,8.2293,8.2293,8.2293,8.2293,8.2293,8.2293,8.2293,8.2293,8.2293,8.2293,8.2293,8.2293,8.2293,8.2293,8.2293,8.2293,8.2293,8.2293,8.2293,8.2293,8.2293,8.2293,8.2293,8.2293,8.2293,8.2293,8.2293,8.2293,8.2293,8.2293,8.2293,8.2293,8.2293,8.2293,8.2293,8.2293,8.2293,8.2293,8.2293,8.2293,6.9411,7.066,7.1987,7.1987,7.1987,7.1987,0.0,0.0,0.0,0.0,0.0,0.0,0.0,7.1987,0.0,7.1987,7.2104,7.2729,7.429,7.4603,7.5305,7.6906,7.7101,7.7101,7.7101,7.7882,7.8468,7.8585,8.0107,8.1044,8.12,8.1903,8.2293,8.2293,8.2293,8.2293,8.2293,8.2293,8.2293,8.2293,8.2293,8.2293,8.2293,8.2293,8.2293,8.2293,8.2293,8.2293,8.2293,8.2293,8.2293,8.2293,8.2293,8.2293,8.2293,8.2293,8.2293,8.2293,8.2293,8.2293,8.2293,8.2293,8.2293,8.2293,8.2293,8.2293,8.2293,8.2293,8.2293,8.2293,8.2293,8.2293,8.2293,8.2293,8.2293,8.2293,8.2293,8.2293,8.2293,8.2293,8.2293,8.2293,8.2293,8.2293,8.2293,8.2293,8.2293,8.2293,8.2293,8.2293,8.2293,8.2293,8.2293,8.2293,8.2293,8.2293,8.2293,8.2293,8.2293,8.2293,8.2293,8.2293,8.2293,8.2293,8.2293,8.2293,8.2293,8.2293,8.2293,8.2293,8.2293,8.2293,6.9411,7.066,7.1987,7.1987,7.1987,7.1987,0.0,0.0,0.0,0.0,0.0,0.0,0.0,7.1987,7.1987,0.0,7.2612,7.3432,7.4369,7.5149,7.5969,7.6984,7.7101,7.7101,7.7101,7.7882,7.8702,7.9444,8.042,8.1317,8.2059,8.2215,8.2293,8.2293,8.2293,8.2293,8.2293,8.2293,8.2293,8.2293,8.2293,8.2293,8.2293,8.2293,8.2293,8.2293,8.2293,8.2293,8.2293,8.2293,8.2293,8.2293,8.2293,8.2293,8.2293,8.2293,8.2293,8.2293,8.2293,8.2293,8.2293,8.2293,8.2293,8.2293,8.2293,8.2293,8.2293,8.2293,8.2293,8.2293,8.2293,8.2293,8.2293,8.2293,8.2293,8.2293,8.2293,8.2293,8.2293,8.2293,8.2293,8.2293,8.2293,8.2293,8.2293,8.2293,8.2293,8.2293,8.2293,8.2293,8.2293,8.2293,8.2293,8.2293,8.2293,8.2293,8.2293,8.2293,8.2293,8.2293,8.2293,8.2293,8.2293,8.2293,8.2293,8.2293,8.2293,8.2293,8.2293,8.2293,8.2293,8.2293,6.9411,7.066,7.1987,7.1987,7.1987,0.0,0.0,0.0,0.0,0.0,0.0,0.0,0.0,0.0,7.1987,7.1987,7.2729,7.3588,7.4408,7.5266,7.6125,7.6984,7.7101,7.7296,7.7765,7.8585,7.9444,8.0341,8.12,8.1864,8.2293,8.2293,8.2293,8.2293,8.2293,8.2293,8.2293,8.2293,8.2293,8.2293,8.2293,8.2293,8.2293,8.2293,8.2293,8.2293,8.2293,8.2293,8.2293,8.2293,8.2293,8.2293,8.2293,8.2293,8.2293,8.2293,8.2293,8.2293,8.2293,8.2293,8.2293,8.2293,8.2293,8.2293,8.2293,8.2293,8.2293,8.2293,8.2293,8.2293,8.2293,8.2293,8.2293,8.2293,8.2293,8.2293,8.2293,8.2293,8.2293,8.2293,8.2293,8.2293,8.2293,8.2293,8.2293,8.2293,8.2293,8.2293,8.2293,8.2293,8.2293,8.2293,8.2293,8.2293,8.2293,8.2293,8.2293,8.2293,8.2293,8.2293,8.2293,8.2293,8.2293,8.2293,8.2293,8.2293,8.2293,8.2293,8.2293,8.2293,8.2293,8.2293,6.9645,7.0816,7.1987,7.1987,0.0,0.0,0.0,0.0,0.0,0.0,0.0,0.0,0.0,7.1987,0.0,7.1987,7.2885,7.3783,7.4408,7.5423,7.636,7.7023,7.7101,7.7453,7.8311,7.917,8.0068,8.0927,8.1825,8.2293,8.2293,8.2293,8.2293,8.2293,8.2293,8.2293,8.2293,8.2293,8.2293,8.2293,8.2293,8.2293,8.2293,8.2293,8.2293,8.2293,8.2293,8.2293,8.2293,8.2293,8.2293,8.2293,8.2293,8.2293,8.2293,8.2293,8.2293,8.2293,8.2293,8.2293,8.2293,8.2293,8.2293,8.2293,8.2293,8.2293,8.2293,8.2293,8.2293,8.2293,8.2293,8.2293,8.2293,8.2293,8.2293,8.2293,8.2293,8.2293,8.2293,8.2293,8.2293,8.2293,8.2293,8.2293,8.2293,8.2293,8.2293,8.2293,8.2293,8.2293,8.2293,8.2293,8.2293,8.2293,8.2293,8.2293,8.2293,8.2293,8.2293,8.2293,8.2293,8.2293,8.2293,8.2293,8.2293,8.2293,8.2293,8.2293,8.2293,8.2293,8.2293,8.2293,7.0387,7.1285,7.1987,7.1987,0.0,0.0,0.0,0.0,0.0,0.0,0.0,0.0,0.0,7.1987,7.1987,7.1987,7.3354,7.4447,7.4486,7.5969,7.7023,7.7101,7.7101,7.7453,7.8311,7.917,8.0068,8.0927,8.1825,8.2293,8.2293,8.2293,8.2293,8.2293,8.2293,8.2293,8.2293,8.2293,8.2293,8.2293,8.2293,8.2293,8.2293,8.2293,8.2293,8.2293,8.2293,8.2293,8.2293,8.2293,8.2293,8.2293,8.2293,8.2293,8.2293,8.2293,8.2293,8.2293,8.2293,8.2293,8.2293,8.2293,8.2293,8.2293,8.2293,8.2293,8.2293,8.2293,8.2293,8.2293,8.2293,8.2293,8.2293,8.2293,8.2293,8.2293,8.2293,8.2293,8.2293,8.2293,8.2293,8.2293,8.2293,8.2293,8.2293,8.2293,8.2293,8.2293,8.2293,8.2293,8.2293,8.2293,8.2293,8.2293,8.2293,8.2293,8.2293,8.2293,8.2293,8.2293,8.2293,8.2293,8.2293,8.2293,8.2293,8.2293,8.2293,8.2293,8.2293,8.2293,8.2293,8.2293,7.0465,7.1324,7.1987,7.1987,0.0,0.0,0.0,0.0,0.0,0.0,0.0,0.0,0.0,0.0,7.2182,7.2729,7.3744,7.4681,7.5227,7.632,7.7101,7.7101,7.757,7.8233,7.9131,7.999,8.0888,8.1747,8.2098,8.2293,8.2293,8.2293,8.2293,8.2293,8.2293,8.2293,8.2293,8.2293,8.2293,8.2293,8.2293,8.2293,8.2293,8.2293,8.2293,8.2293,8.2293,8.2293,8.2293,8.2293,8.2293,8.2293,8.2293,8.2293,8.2293,8.2293,8.2293,8.2293,8.2293,8.2293,8.2293,8.2293,8.2293,8.2293,8.2293,8.2293,8.2293,8.2293,8.2293,8.2293,8.2293,8.2293,8.2293,8.2293,8.2293,8.2293,8.2293,8.2293,8.2293,8.2293,8.2293,8.2293,8.2293,8.2293,8.2293,8.2293,8.2293,8.2293,8.2293,8.2293,8.2293,8.2293,8.2293,8.2293,8.2293,8.2293,8.2293,8.2293,8.2293,8.2293,8.2293,8.2293,8.2293,8.2293,8.2293,8.2293,8.2293,8.2293,8.2293,8.2293,8.2293,8.2293,7.0816,7.1558,7.1987,7.1987,0.0,0.0,0.0,0.0,0.0,0.0,0.0,0.0,0.0,0.0,0.0,7.3197,7.4212,7.511,7.5735,7.6555,7.7101,7.7101,7.7882,7.8741,7.9639,8.0498,8.1356,8.2215,8.2293,8.2293,8.2293,8.2293,8.2293,8.2293,8.2293,8.2293,8.2293,8.2293,8.2293,8.2293,8.2293,8.2293,8.2293,8.2293,8.2293,8.2293,8.2293,8.2293,8.2293,8.2293,8.2293,8.2293,8.2293,8.2293,8.2293,8.2293,8.2293,8.2293,8.2293,8.2293,8.2293,8.2293,8.2293,8.2293,8.2293,8.2293,8.2293,8.2293,8.2293,8.2293,8.2293,8.2293,8.2293,8.2293,8.2293,8.2293,8.2293,8.2293,8.2293,8.2293,8.2293,8.2293,8.2293,8.2293,8.2293,8.2293,8.2293,8.2293,8.2293,8.2293,8.2293,8.2293,8.2293,8.2293,8.2293,8.2293,8.2293,8.2293,8.2293,8.2293,8.2293,8.2293,8.2293,8.2293,8.2293,8.2293,8.2293,8.2293,8.2293,8.2293,8.2293,8.2293,7.1519,7.1987,7.1987,7.1987,0.0,0.0,0.0,0.0,0.0,0.0,0.0,0.0,7.2026,0.0,0.0,7.3315,7.472,7.5813,7.5813,7.6555,7.7101,7.7101,7.7882,7.8741,7.9639,8.0498,8.1356,8.2254,8.2293,8.2293,8.2293,8.2293,8.2293,8.2293,8.2293,8.2293,8.2293,8.2293,8.2293,8.2293,8.2293,8.2293,8.2293,8.2293,8.2293,8.2293,8.2293,8.2293,8.2293,8.2293,8.2293,8.2293,8.2293,8.2293,8.2293,8.2293,8.2293,8.2293,8.2293,8.2293,8.2293,8.2293,8.2293,8.2293,8.2293,8.2293,8.2293,8.2293,8.2293,8.2293,8.2293,8.2293,8.2293,8.2293,8.2293,8.2293,8.2293,8.2293,8.2293,8.2293,8.2293,8.2293,8.2293,8.2293,8.2293,8.2293,8.2293,8.2293,8.2293,8.2293,8.2293,8.2293,8.2293,8.2293,8.2293,8.2293,8.2293,8.2293,8.2293,8.2293,8.2293,8.2293,8.2293,8.2293,8.2293,8.2293,8.2293,8.2293,8.2293,8.2293,8.2293,8.2293,7.1675,7.1987,0.0,7.1987,0.0,0.0,0.0,0.0,0.0,0.0,0.0,7.2182,7.2807,7.3119,0.0,7.4876,7.5462,7.6008,7.6633,7.6945,7.7101,7.7101,7.8429,7.9405,7.9678,8.1044,8.202,8.2293,8.2293,8.2293,8.2293,8.2293,8.2293,8.2293,8.2293,8.2293,8.2293,8.2293,8.2293,8.2293,8.2293,8.2293,8.2293,8.2293,8.2293,8.2293,8.2293,8.2293,8.2293,8.2293,8.2293,8.2293,8.2293,8.2293,8.2293,8.2293,8.2293,8.2293,8.2293,8.2293,8.2293,8.2293,8.2293,8.2293,8.2293,8.2293,8.2293,8.2293,8.2293,8.2293,8.2293,8.2293,8.2293,8.2293,8.2293,8.2293,8.2293,8.2293,8.2293,8.2293,8.2293,8.2293,8.2293,8.2293,8.2293,8.2293,8.2293,8.2293,8.2293,8.2293,8.2293,8.2293,8.2293,8.2293,8.2293,8.2293,8.2293,8.2293,8.2293,8.2293,8.2293,8.2293,8.2293,8.2293,8.2293,8.2293,8.2293,8.2293,8.2293,8.2293,8.2293,8.2293,7.1753,7.1987,0.0,7.1987,7.1987,7.1987,7.1987,0.0,0.0,0.0,0.0,7.226,7.3158,7.3549,7.4212,7.5579,7.6086,7.6516,7.7023,7.7101,7.7218,7.757,7.8858,7.9834,8.0185,8.1474,8.2293,8.2293,8.2293,8.2293,8.2293,8.2293,8.2293,8.2293,8.2293,8.2293,8.2293,8.2293,8.2293,8.2293,8.2293,8.2293,8.2293,8.2293,8.2293,8.2293,8.2293,8.2293,8.2293,8.2293,8.2293,8.2293,8.2293,8.2293,8.2293,8.2293,8.2293,8.2293,8.2293,8.2293,8.2293,8.2293,8.2293,8.2293,8.2293,8.2293,8.2293,8.2293,8.2293,8.2293,8.2293,8.2293,8.2293,8.2293,8.2293,8.2293,8.2293,8.2293,8.2293,8.2293,8.2293,8.2293,8.2293,8.2293,8.2293,8.2293,8.2293,8.2293,8.2293,8.2293,8.2293,8.2293,8.2293,8.2293,8.2293,8.2293,8.2293,8.2293,8.2293,8.2293,8.2293,8.2293,8.2293,8.2293,8.2293,8.2293,8.2293,8.2293,8.2293,8.2293,8.2645,8.2762,7.1792,0.0,0.0,7.1987,7.1987,0.0,7.1987,7.1987,7.1987,7.1987,0.0,7.2378,7.3236,7.4056,7.4915,7.5774,7.6594,7.7101,7.7101,7.7101,7.7414,7.8311,7.917,8.0029,8.0927,8.1786,8.2293,8.2293,8.2293,8.2293,8.2293,8.2293,8.2293,8.2293,8.2293,8.2293,8.2293,8.2293,8.2293,8.2293,8.2293,8.2293,8.2293,8.2293,8.2293,8.2293,8.2293,8.2293,8.2293,8.2293,8.2293,8.2293,8.2293,8.2293,8.2293,8.2293,8.2293,8.2293,8.2293,8.2293,8.2293,8.2293,8.2293,8.2293,8.2293,8.2293,8.2293,8.2293,8.2293,8.2293,8.2293,8.2293,8.2293,8.2293,8.2293,8.2293,8.2293,8.2293,8.2293,8.2293,8.2293,8.2293,8.2293,8.2293,8.2293,8.2293,8.2293,8.2293,8.2293,8.2293,8.2293,8.2293,8.2293,8.2293,8.2293,8.2293,8.2293,8.2293,8.2293,8.2293,8.2293,8.2293,8.2293,8.2293,8.2293,8.2293,8.2293,8.2371,8.2411,8.245,8.323,8.3621,7.1948,7.1987,0.0,0.0,7.1987,7.1987,7.1987,7.1987,7.1987,7.1987,7.2534,7.3275,7.4095,7.4954,7.5813,7.6672,7.6984,7.7101,7.7101,7.7101,7.7414,7.8311,7.917,8.0029,8.0927,8.1786,8.2293,8.2293,8.2293,8.2293,8.2293,8.2293,8.2293,8.2293,8.2293,8.2293,8.2293,8.2293,8.2293,8.2293,8.2293,8.2293,8.2293,8.2293,8.2293,8.2293,8.2293,8.2293,8.2293,8.2293,8.2293,8.2293,8.2293,8.2293,8.2293,8.2293,8.2293,8.2293,8.2293,8.2293,8.2293,8.2293,8.2293,8.2293,8.2293,8.2293,8.2293,8.2293,8.2293,8.2293,8.2293,8.2293,8.2293,8.2293,8.2293,8.2293,8.2293,8.2293,8.2293,8.2293,8.2293,8.2293,8.2293,8.2293,8.2293,8.2293,8.2293,8.2293,8.2293,8.2293,8.2293,8.2293,8.2293,8.2293,8.2293,8.2293,8.2293,8.2293,8.2293,8.2293,8.2293,8.2293,8.2293,8.2293,8.2293,8.2293,8.2293,8.2918,8.323,8.3269,8.4128,8.4519,7.1987,0.0,0.0,7.1987,0.0,7.1987,7.1987,7.1987,7.1987,7.1987,7.269,7.3549,7.4369,7.5227,7.6086,7.6945,7.7101,7.7101,7.7101,7.7101,7.757,7.8858,7.9405,8.0224,8.1513,8.202,8.2293,8.2293,8.2293,8.2293,8.2293,8.2293,8.2293,8.2293,8.2293,8.2293,8.2293,8.2293,8.2293,8.2293,8.2293,8.2293,8.2293,8.2293,8.2293,8.2293,8.2293,8.2293,8.2293,8.2293,8.2293,8.2293,8.2293,8.2293,8.2293,8.2293,8.2293,8.2293,8.2293,8.2293,8.2293,8.2293,8.2293,8.2293,8.2293,8.2293,8.2293,8.2293,8.2293,8.2293,8.2293,8.2293,8.2293,8.2293,8.2293,8.2293,8.2293,8.2293,8.2293,8.2293,8.2293,8.2293,8.2293,8.2293,8.2293,8.2293,8.2293,8.2293,8.2293,8.2293,8.2293,8.2293,8.2293,8.2293,8.2293,8.2293,8.2293,8.2293,8.2293,8.2293,8.2293,8.2684,8.2684,8.2293,8.2684,8.2879,8.2879,8.3699,8.4128,8.4128,8.5026,8.5416,7.1987,0.0,7.1987,7.1987,7.1987,0.0,7.1987,7.1987,7.2026,7.2182,7.2924,7.3705,7.4369,7.5345,7.6242,7.6984,7.7101,7.7101,7.7101,7.7101,7.7765,7.9483,7.9717,8.0381,8.2137,8.2293,8.2293,8.2293,8.2293,8.2293,8.2293,8.2293,8.2293,8.2293,8.2293,8.2293,8.2293,8.2293,8.2293,8.2293,8.2293,8.2293,8.2293,8.2293,8.2293,8.2293,8.2293,8.2293,8.2293,8.2293,8.2293,8.2293,8.2293,8.2293,8.2293,8.2293,8.2293,8.2293,8.2293,8.2293,8.2293,8.2293,8.2293,8.2293,8.2293,8.2293,8.2293,8.2293,8.2293,8.2293,8.2293,8.2293,8.2293,8.2293,8.2293,8.2293,8.2293,8.2293,8.2293,8.2293,8.2293,8.2293,8.2293,8.2293,8.2293,8.2293,8.2293,8.2293,8.2293,8.2293,8.2293,8.2293,8.2293,8.2293,8.2293,8.2293,8.2293,8.2293,8.245,8.2528,8.2528,8.3308,8.3426,8.2723,8.3386,8.3738,8.3738,8.4597,8.5026,8.5065,8.5924,8.6314,0.0,0.0,7.1987,0.0,7.1987,7.1987,0.0,0.0,7.2221,7.2963,7.3783,7.4369,7.4486,7.5813,7.6945,7.7062,7.7101,7.7101,7.7101,7.7101,7.7765,7.9483,7.9717,8.0381,8.2137,8.2293,8.2293,8.2293,8.2293,8.2293,8.2293,8.2293,8.2293,8.2293,8.2293,8.2293,8.2293,8.2293,8.2293,8.2293,8.2293,8.2293,8.2293,8.2293,8.2293,8.2293,8.2293,8.2293,8.2293,8.2293,8.2293,8.2293,8.2293,8.2293,8.2293,8.2293,8.2293,8.2293,8.2293,8.2293,8.2293,8.2293,8.2293,8.2293,8.2293,8.2293,8.2293,8.2293,8.2293,8.2293,8.2293,8.2293,8.2293,8.2293,8.2293,8.2293,8.2293,8.2293,8.2293,8.2293,8.2293,8.2293,8.2293,8.2293,8.2293,8.2293,8.2293,8.2293,8.2293,8.2293,8.2293,8.2293,8.2293,8.2293,8.2293,8.2293,8.2293,8.2293,8.2957,8.3347,8.3347,8.4167,8.4597,8.448,8.4558,8.4636,8.4636,8.5495,8.5924,8.5963,8.6822,8.7212,7.1987,7.1987,7.1987,0.0,7.1987,7.1987,7.1987,7.1987,7.226,7.3119,7.3939,7.4642,7.5149,7.6242,7.7101,7.7101,7.7101,7.7101,7.7101,7.7101,7.7765,7.9483,7.9717,8.0381,8.2137,8.2293,8.2293,8.2293,8.2293,8.2293,8.2293,8.2293,8.2293,8.2293,8.2293,8.2293,8.2293,8.2293,8.2293,8.2293,8.2293,8.2293,8.2293,8.2293,8.2293,8.2293,8.2293,8.2293,8.2293,8.2293,8.2293,8.2293,8.2293,8.2293,8.2293,8.2293,8.2293,8.2293,8.2293,8.2293,8.2293,8.2293,8.2293,8.2293,8.2293,8.2293,8.2293,8.2293,8.2293,8.2293,8.2293,8.2293,8.2293,8.2293,8.2293,8.2293,8.2293,8.2293,8.2293,8.2293,8.2293,8.2293,8.2293,8.2293,8.2293,8.2293,8.2293,8.2293,8.2293,8.2293,8.2293,8.2293,8.2293,8.2293,8.2293,8.2723,8.2957,8.2957,8.3777,8.4245,8.4245,8.5065,8.5534,8.5534,8.5534,8.5534,8.5534,8.6392,8.6822,8.6822,8.7212,8.7407,0.0,0.0,7.1987,7.1987,7.1987,7.1987,0.0,7.1987,7.226,7.3119,7.3939,7.4759,7.5657,7.6516,7.7101,7.7101,7.7101,7.7101,7.7101,7.7101,7.7765,7.9483,7.9717,8.0381,8.2137,8.2293,8.2293,8.2293,8.2293,8.2293,8.2293,8.2293,8.2293,8.2293,8.2293,8.2293,8.2293,8.2293,8.2293,8.2293,8.2293,8.2293,8.2293,8.2293,8.2293,8.2293,8.2293,8.2293,8.2293,8.2293,8.2293,8.2293,8.2293,8.2293,8.2293,8.2293,8.2293,8.2293,8.2293,8.2293,8.2293,8.2293,8.2293,8.2293,8.2293,8.2293,8.2293,8.2293,8.2293,8.2293,8.2293,8.2293,8.2293,8.2293,8.2293,8.2293,8.2293,8.2293,8.2293,8.2293,8.2293,8.2293,8.2293,8.2293,8.2293,8.2293,8.2293,8.2293,8.2293,8.2293,8.2293,8.2293,8.2293,8.2371,8.2606,8.3152,8.3582,8.3816,8.4636,8.5143,8.5143,8.5963,8.6431,8.6431,8.6431,8.6431,8.6431,8.7095,8.7407,8.7407,8.7407,8.7407,0.0,7.1987,0.0,7.1987,7.1987,7.1987,7.1987,7.1987,7.226,7.3119,7.3939,7.4759,7.5657,7.6516,7.7101,7.7101,7.7101,7.7101,7.7101,7.7101,7.7765,7.9483,7.9717,8.0381,8.2137,8.2293,8.2293,8.2293,8.2293,8.2293,8.2293,8.2293,8.2293,8.2293,8.2293,8.2293,8.2293,8.2293,8.2293,8.2293,8.2293,8.2293,8.2293,8.2293,8.2293,8.2293,8.2293,8.2293,8.2293,8.2293,8.2293,8.2293,8.2293,8.2293,8.2293,8.2293,8.2293,8.2293,8.2293,8.2293,8.2293,8.2293,8.2293,8.2293,8.2293,8.2293,8.2293,8.2293,8.2293,8.2293,8.2293,8.2293,8.2293,8.2293,8.2293,8.2293,8.2293,8.2293,8.2293,8.2293,8.2293,8.2293,8.2293,8.2293,8.2293,8.2293,8.2293,8.2293,8.2293,8.2293,8.2293,8.2293,8.2293,8.2606,8.3386,8.3465,8.3855,8.4675,8.5534,8.6041,8.6041,8.6861,8.7329,8.7329,8.7329,8.7329,8.7329,8.7368,8.7407,8.7407,8.7407,8.7407,0.0,0.0,0.0,7.1987,7.1987,7.1987,7.1987,7.1987,7.226,7.3119,7.3939,7.4759,7.5657,7.6516,7.7101,7.7101,7.7101,7.7101,7.7101,7.7101,7.7765,7.9483,7.9717,8.0381,8.2137,8.2293,8.2293,8.2293,8.2293,8.2293,8.2293,8.2293,8.2293,8.2293,8.2293,8.2293,8.2293,8.2293,8.2293,8.2293,8.2293,8.2293,8.2293,8.2293,8.2293,8.2293,8.2293,8.2293,8.2293,8.2293,8.2293,8.2293,8.2293,8.2293,8.2293,8.2293,8.2293,8.2293,8.2293,8.2293,8.2293,8.2293,8.2293,8.2293,8.2293,8.2293,8.2293,8.2293,8.2293,8.2293,8.2293,8.2293,8.2293,8.2293,8.2293,8.2293,8.2293,8.2293,8.2293,8.2293,8.2293,8.2293,8.2293,8.2293,8.2293,8.2293,8.2293,8.2293,8.2293,8.2293,8.2293,8.2293,8.2762,8.3191,8.3465,8.4519,8.5299,8.5612,8.6431,8.6939,8.6939,8.7212,8.7407,8.7407,8.7407,8.7407,8.7407,8.7407,8.7407,8.7407,8.7407,8.7407,7.1987,0.0,0.0,0.0,7.1987,7.1987,7.1987,7.1987,7.2143,7.2729,7.3744,7.4681,7.5266,7.632,7.7101,7.7101,7.7101,7.7101,7.7101,7.7101,7.7648,7.9092,7.9522,8.0263,8.1708,8.2137,8.2293,8.2293,8.2293,8.2293,8.2293,8.2293,8.2293,8.2293,8.2293,8.2293,8.2293,8.2293,8.2293,8.2293,8.2293,8.2293,8.2293,8.2293,8.2293,8.2293,8.2293,8.2293,8.2293,8.2293,8.2293,8.2293,8.2293,8.2293,8.2293,8.2293,8.2293,8.2293,8.2293,8.2489,8.2684,8.2684,8.2918,8.3152,8.3152,8.3152,8.3152,8.3152,8.3152,8.3152,8.3152,8.2918,8.2684,8.2684,8.2489,8.2293,8.2293,8.2293,8.2293,8.2293,8.2293,8.2293,8.2293,8.2293,8.2293,8.2293,8.2293,8.2293,8.2293,8.2293,8.2411,8.2684,8.3191,8.3738,8.4323,8.5416,8.6236,8.651,8.7095,8.7407,8.7407,8.7407,8.7407,8.7407,8.7407,8.7407,8.7407,8.7407,8.7407,8.7407,8.7407,8.7407,0.0,0.0,0.0,0.0,7.1987,7.1987,7.1987,7.1987,7.1987,7.1987,7.3315,7.4486,7.4486,7.593,7.7101,7.7101,7.7101,7.7101,7.7101,7.7101,7.7414,7.8311,7.9131,8.0029,8.0927,8.1786,8.2254,8.2293,8.2293,8.2293,8.2293,8.2293,8.2293,8.2293,8.2293,8.2293,8.2293,8.2293,8.2293,8.2293,8.2293,8.2293,8.2293,8.2293,8.2293,8.2293,8.2293,8.2293,8.2293,8.2293,8.2293,8.2293,8.2293,8.2293,8.2293,8.2293,8.2332,8.2332,8.2332,8.2879,8.3543,8.3543,8.4128,8.4792,8.4792,8.4792,8.4792,8.4792,8.4792,8.4792,8.4792,8.4167,8.3543,8.3543,8.2957,8.2371,8.2332,8.2332,8.2332,8.2293,8.2293,8.2293,8.2293,8.2293,8.2293,8.2293,8.2293,8.2293,8.2293,8.2332,8.2645,8.3426,8.3543,8.4245,8.5963,8.6119,8.651,8.7368,8.7407,8.7407,8.7407,8.7407,8.7407,8.7407,8.7407,8.7407,8.7407,8.7407,8.7407,8.7407,8.7407,8.7407,7.1987,0.0,0.0,0.0,0.0,0.0,7.1987,7.1987,7.1987,7.1987,7.3315,7.4486,7.4486,7.593,7.7101,7.7101,7.7101,7.7101,7.7101,7.7101,7.7414,7.8311,7.8624,7.9366,8.0849,8.12,8.163,8.2254,8.2293,8.2293,8.2293,8.2293,8.2293,8.2293,8.2293,8.2293,8.2293,8.2293,8.2293,8.2293,8.2293,8.2293,8.2293,8.2293,8.2293,8.2293,8.2293,8.2293,8.2293,8.2293,8.2293,8.2293,8.2293,8.2293,8.2293,8.2293,8.2684,8.3152,8.3152,8.3738,8.4441,8.4441,8.4597,8.4792,8.4792,8.4792,8.4792,8.4792,8.4792,8.4792,8.4792,8.4636,8.4441,8.4441,8.4284,8.3933,8.3308,8.3152,8.2996,8.2411,8.2293,8.2293,8.2293,8.2293,8.2293,8.2293,8.2293,8.2293,8.2293,8.2801,8.323,8.3465,8.4636,8.5573,8.6041,8.6666,8.7134,8.7368,8.7407,8.7407,8.7407,8.7407,8.7407,8.7407,8.7407,8.7407,8.7407,8.7407,8.7407,8.7407,8.7407,8.7407,0.0,0.0,0.0,0.0,0.0,0.0,7.1987,7.1987,7.1987,7.1987,7.308,7.4095,7.4447,7.5618,7.6672,7.7023,7.7101,7.7101,7.7101,7.7101,7.7296,7.7804,7.8194,7.878,7.9834,8.0576,8.12,8.1708,8.2098,8.2293,8.2293,8.2293,8.2293,8.2293,8.2293,8.2293,8.2293,8.2293,8.2293,8.2293,8.2293,8.2293,8.2293,8.2293,8.2293,8.2293,8.2293,8.2293,8.2293,8.2293,8.2293,8.2293,8.2293,8.2528,8.2801,8.2801,8.3347,8.405,8.405,8.4597,8.5338,8.5338,8.5573,8.5885,8.5885,8.5885,8.5885,8.5885,8.5885,8.5885,8.5885,8.5612,8.5338,8.5338,8.5065,8.4675,8.4167,8.405,8.3699,8.2528,8.2293,8.2293,8.2293,8.2293,8.2293,8.2293,8.2293,8.2411,8.2762,8.3191,8.3777,8.4519,8.5495,8.6236,8.6627,8.7095,8.7407,8.7407,8.7407,8.7407,8.7407,8.7407,8.7407,8.7407,8.7407,8.7407,8.7407,8.7407,8.7407,8.7407,8.7407,8.7407,0.0,0.0,0.0,0.0,7.1987,0.0,7.1987,7.1987,7.1987,7.1987,7.269,7.3549,7.4369,7.5227,7.6086,7.6945,7.7101,7.7101,7.7101,7.7101,7.7101,7.7101,7.7765,7.8272,7.839,7.9795,8.0771,8.1005,8.1825,8.2293,8.2293,8.2293,8.2293,8.2293,8.2293,8.2293,8.2293,8.2293,8.2293,8.2293,8.2293,8.2293,8.2293,8.2293,8.2293,8.2293,8.2293,8.2293,8.2293,8.2293,8.2293,8.2293,8.2411,8.2879,8.3504,8.3621,8.4206,8.4948,8.4948,8.5534,8.6236,8.6236,8.6783,8.7407,8.7407,8.7407,8.7407,8.7407,8.7407,8.7407,8.7407,8.6822,8.6236,8.6236,8.5651,8.5065,8.4987,8.4948,8.448,8.2879,8.2489,8.2411,8.2332,8.2293,8.2293,8.2293,8.2371,8.2684,8.3426,8.366,8.4362,8.5924,8.6197,8.6549,8.7329,8.7407,8.7407,8.7407,8.7407,8.7407,8.7407,8.7407,8.7407,8.7407,8.7407,8.7407,8.7407,8.7407,8.7407,8.7407,8.7407,8.7407,0.0,0.0,0.0,7.1987,7.1987,0.0,7.1987,7.1987,7.1987,7.1987,7.269,7.3549,7.4408,7.5266,7.6086,7.6945,7.7101,7.7101,7.7101,7.7101,7.7101,7.7101,7.7257,7.7648,7.8311,7.8702,7.9483,8.0888,8.1825,8.2293,8.2293,8.2293,8.2293,8.2293,8.2293,8.2293,8.2293,8.2293,8.2293,8.2293,8.2293,8.2293,8.2293,8.2293,8.2293,8.2293,8.2293,8.2293,8.2293,8.2293,8.2293,8.2371,8.2996,8.3347,8.3582,8.4284,8.5104,8.5846,8.5846,8.6431,8.7134,8.7134,8.7251,8.7407,8.7407,8.7407,8.7407,8.7407,8.7407,8.7407,8.7407,8.729,8.7134,8.7134,8.7017,8.6705,8.6002,8.5846,8.5534,8.4519,8.3738,8.3074,8.2411,8.2293,8.2293,8.2293,8.284,8.3308,8.3465,8.4714,8.5729,8.6041,8.6744,8.7212,8.7407,8.7407,8.7407,8.7407,8.7407,8.7407,8.7407,8.7407,8.7407,8.7407,8.7407,8.7407,8.7407,8.7407,8.7407,8.7407,8.7407,8.7407,7.1987,7.1987,7.1987,7.1987,7.1987,0.0,0.0,7.1987,7.1987,7.1987,7.2339,7.3041,7.433,7.4876,7.5579,7.6906,7.7101,7.7101,7.7101,7.7101,7.7101,7.7101,7.7101,7.7257,7.7726,7.8155,7.9131,8.0888,8.1396,8.1825,8.2293,8.2293,8.2293,8.2293,8.2293,8.2293,8.2293,8.2293,8.2293,8.2293,8.2293,8.2293,8.2293,8.2293,8.2293,8.2293,8.2293,8.2293,8.2293,8.2293,8.2528,8.2957,8.3347,8.4011,8.4831,8.5299,8.6002,8.6744,8.6744,8.7017,8.7407,8.7407,8.7407,8.7407,8.7407,8.7407,8.7407,8.7407,8.7407,8.7407,8.7407,8.7407,8.7407,8.7407,8.7407,8.729,8.6822,8.6744,8.651,8.5612,8.5104,8.4519,8.3699,8.3543,8.3543,8.3543,8.3894,8.4323,8.4753,8.5573,8.6275,8.6705,8.7134,8.7407,8.7407,8.7407,8.7407,8.7407,8.7407,8.7407,8.7407,8.7407,8.7407,8.7407,8.7407,8.7407,8.7407,8.7407,8.7407,8.7407,8.7407,8.7407,7.1987,7.1987,7.1987,7.1987,7.1987,7.1987,0.0,0.0,0.0,7.1987,7.1987,7.2456,7.3978,7.4408,7.4954,7.636,7.6867,7.7023,7.6867,7.6984,7.7101,7.7101,7.7101,7.7101,7.7101,7.7882,7.9053,8.0615,8.0927,8.1396,8.2254,8.2293,8.2293,8.2293,8.2293,8.2293,8.2293,8.2293,8.2293,8.2293,8.2293,8.2293,8.2293,8.2293,8.2293,8.2293,8.2293,8.2293,8.2293,8.2293,8.2879,8.3738,8.3738,8.4714,8.6119,8.6275,8.6783,8.7407,8.7407,8.7407,8.7407,8.7407,8.7407,8.7407,8.7407,8.7407,8.7407,8.7407,8.7407,8.7407,8.7407,8.7407,8.7407,8.7407,8.7407,8.7407,8.7407,8.7407,8.7173,8.651,8.6353,8.6002,8.4987,8.4792,8.4792,8.4792,8.4948,8.5299,8.6002,8.6236,8.6627,8.7329,8.7407,8.7407,8.7407,8.7407,8.7407,8.7407,8.7407,8.7407,8.7407,8.7407,8.7407,8.7407,8.7407,8.7407,8.7407,8.7407,8.7407,8.7407,8.7407,8.7407,7.1987,7.1987,7.1987,7.1987,7.1987,7.1987,7.1987,0.0,7.1987,7.1987,0.0,7.23,7.3275,0.0,0.0,7.4759,7.6086,7.6828,7.6047,7.6594,7.7101,7.7101,7.7101,7.7101,7.7101,7.7882,7.878,7.9756,8.0576,8.1396,8.2254,8.2293,8.2293,8.2293,8.2293,8.2293,8.2293,8.2293,8.2293,8.2293,8.2293,8.2293,8.2293,8.2293,8.2293,8.2293,8.2293,8.2293,8.2293,8.2293,8.323,8.4636,8.4636,8.526,8.6197,8.6978,8.7329,8.7407,8.7407,8.7407,8.7407,8.7407,8.7407,8.7407,8.7407,8.7407,8.7407,8.7407,8.7407,8.7407,8.7407,8.7407,8.7407,8.7407,8.7407,8.7407,8.7407,8.7407,8.7368,8.729,8.7251,8.6744,8.5065,8.4792,8.4792,8.4792,8.5456,8.6002,8.608,8.6783,8.729,8.7407,8.7407,8.7407,8.7407,8.7407,8.7407,8.7407,8.7407,8.7407,8.7407,8.7407,8.7407,8.7407,8.7407,8.7407,8.7407,8.7407,8.7407,8.7407,8.7407,8.7407,7.1987,7.1987,7.1987,7.1987,7.1987,7.1987,7.1987,7.1987,7.1987,7.1987,0.0,0.0,0.0,0.0,0.0,0.0,7.511,7.5657,7.5774,7.6125,7.6516,7.7023,7.7101,7.7101,7.7101,7.7414,7.7999,7.8897,7.9756,8.0615,8.1513,8.202,8.2293,8.2293,8.2293,8.2293,8.2293,8.2293,8.2293,8.2293,8.2293,8.2293,8.2293,8.2293,8.2293,8.2293,8.2293,8.2293,8.2293,8.2293,8.3308,8.4792,8.4792,8.5651,8.69,8.729,8.7407,8.7407,8.7407,8.7407,8.7407,8.7407,8.7407,8.7407,8.7407,8.7407,8.7407,8.7407,8.7407,8.7407,8.7407,8.7407,8.7407,8.7407,8.7407,8.7407,8.7407,8.7407,8.7407,8.7407,8.7407,8.7173,8.6431,8.6314,8.6314,8.6314,8.6627,8.6861,8.6861,8.7173,8.7407,8.7407,8.7407,8.7407,8.7407,8.7407,8.7407,8.7407,8.7407,8.7407,8.7407,8.7407,8.7407,8.7407,8.7407,8.7407,8.7407,8.7407,8.7407,8.7407,8.7407,8.7407,7.1987,7.1987,7.1987,7.1987,7.1987,7.1987,7.1987,7.1987,7.1987,7.1987,7.1987,0.0,0.0,0.0,0.0,0.0,0.0,7.4642,7.5071,7.5305,7.5852,7.6984,7.7101,7.7101,7.7101,7.7101,7.7453,7.8311,7.8975,7.9834,8.0927,8.1591,8.2059,8.2293,8.2293,8.2293,8.2293,8.2293,8.2293,8.2293,8.2293,8.2293,8.2293,8.2293,8.2293,8.2293,8.2293,8.2293,8.2293,8.2293,8.3308,8.4792,8.4792,8.5885,8.7407,8.7407,8.7407,8.7407,8.7407,8.7407,8.7407,8.7407,8.7407,8.7407,8.7407,8.7407,8.7407,8.7407,8.7407,8.7407,8.7407,8.7407,8.7407,8.7407,8.7407,8.7407,8.7407,8.7407,8.7407,8.7407,8.7407,8.7407,8.7407,8.7407,8.7407,8.7407,8.7407,8.7407,8.7407,8.7407,8.7407,8.7407,8.7407,8.7407,8.7407,8.7407,8.7407,8.7407,8.7407,8.7407,8.7407,8.7407,8.7407,8.7407,8.7407,8.7407,8.7407,8.7407,8.7407,8.7407,8.7407,8.7407,7.1987,7.1987,7.1987,7.1987,7.1987,7.1987,7.1987,7.1987,7.1987,7.1987,7.1987,7.2026,7.2026,0.0,0.0,0.0,0.0,0.0,0.0,7.4056,7.5188,7.6906,7.7101,7.7101,7.7101,7.7101,7.7453,7.8311,7.8429,7.917,8.0927,8.1044,8.1435,8.2254,8.2293,8.2293,8.2293,8.2293,8.2293,8.2293,8.2293,8.2293,8.2293,8.2293,8.2293,8.2293,8.2293,8.2293,8.2293,8.2293,8.3308,8.4792,8.4792,8.5885,8.7407,8.7407,8.7407,8.7407,8.7407,8.7407,8.7407,8.7407,8.7407,8.7407,8.7407,8.7407,8.7407,8.7407,8.7407,8.7407,8.7407,8.7407,8.7407,8.7407,8.7407,8.7407,8.7407,8.7407,8.7407,8.7407,8.7407,8.7407,8.7407,8.7407,8.7407,8.7407,8.7407,8.7407,8.7407,8.7407,8.7407,8.7407,8.7407,8.7407,8.7407,8.7407,8.7407,8.7407,8.7407,8.7407,8.7407,8.7407,8.7407,8.7407,8.7407,8.7407,8.7407,8.7407,8.7407,8.7407,8.7407,8.7407,7.1987,7.1987,7.1987,7.1987,7.1987,7.1987,7.1987,7.1987,7.1987,7.1987,7.1987,7.1987,7.1987,0.0,0.0,0.0,0.0,0.0,0.0,7.3978,7.4915,7.6086,7.675,7.7101,7.7101,7.7101,7.7218,7.7531,7.8077,7.8897,8.0068,8.0693,8.1396,8.2254,8.2293,8.2293,8.2293,8.2293,8.2293,8.2293,8.2293,8.2293,8.2293,8.2293,8.2293,8.2293,8.2293,8.2293,8.2293,8.2293,8.3308,8.4792,8.4792,8.5885,8.7407,8.7407,8.7407,8.7407,8.7407,8.7407,8.7407,8.7407,8.7407,8.7407,8.7407,8.7407,8.7407,8.7407,8.7407,8.7407,8.7407,8.7407,8.7407,8.7407,8.7407,8.7407,8.7407,8.7407,8.7407,8.7407,8.7407,8.7407,8.7407,8.7407,8.7407,8.7407,8.7407,8.7407,8.7407,8.7407,8.7407,8.7407,8.7407,8.7407,8.7407,8.7407,8.7407,8.7407,8.7407,8.7407,8.7407,8.7407,8.7407,8.7407,8.7407,8.7407,8.7407,8.7407,8.7407,8.7407,8.7407,8.7407,7.1987,7.1987,7.1987,7.1987,7.1987,7.1987,7.1987,7.1987,7.1987,7.1987,7.1987,7.1987,7.1987,7.1987,0.0,0.0,0.0,0.0,0.0,7.3549,7.4408,7.5227,7.6125,7.675,7.7062,7.7101,7.7101,7.7101,7.7609,7.8311,7.917,8.0068,8.0927,8.1825,8.2137,8.2293,8.2293,8.2293,8.2293,8.2293,8.2293,8.2293,8.2293,8.2293,8.2293,8.2293,8.2293,8.2293,8.2293,8.2293,8.3308,8.4792,8.4792,8.5885,8.7407,8.7407,8.7407,8.7407,8.7407,8.7407,8.7407,8.7407,8.7407,8.7407,8.7407,8.7407,8.7446,8.7798,8.7642,8.7486,8.7798,8.7642,8.7407,8.7407,8.7407,8.7407,8.7407,8.7407,8.7407,8.7407,8.7407,8.7407,8.7407,8.7407,8.7407,8.7407,8.7407,8.7407,8.7407,8.7407,8.7407,8.7407,8.7407,8.7407,8.7407,8.7407,8.7407,8.7407,8.7407,8.7407,8.7407,8.7407,8.7407,8.7407,8.7407,8.7407,8.7407,8.7407,8.7407,8.7407,8.7407,8.7407]},{"header":{"parameterUnit":"m.s-1","parameterCategory":1,"la1":30.6,"la2":29.2853,"lo1":-89.7004,"lo2":-87.6739,"dy":0.0162,"dx":0.0183,"nx":112,"ny":82,"refTime":"2023-10-11T12:00:00:Z","depth":0,"parameterNumber":3,"parameterNumberName":"V-component_of_WINDS"},"data":[0.0,0.0,0.0,0.0,0.0,0.0,0.0,0.0,0.0,0.0,0.0,0.0,0.0,0.0,0.0,0.0,0.0,0.0,0.0,0.0,0.0,0.0,0.0,0.0,0.0,0.0,0.0,0.0,0.0,0.0,0.0,0.0,0.0,0.0,0.0,0.0,0.0,0.0,0.0,0.0,0.0,0.0,0.0,0.0,0.0,0.0,0.0,0.0,0.0,0.0,0.0,0.0,0.0,0.0,0.0,0.0,0.0,0.0,0.0,0.0,0.0,0.0,0.0,0.0,0.0,0.0,0.0,0.0,0.0,0.0,0.0,0.0,0.0,0.0,0.0,0.0,0.0,0.0,0.0,0.0,0.0,0.0,0.0,0.0,0.0,0.0,0.0,0.0,0.0,0.0,-0.9273,-0.9401,-0.9395,-0.9381,-0.9381,-0.9381,-0.9381,-0.9381,0.0,0.0,0.0,0.0,0.0,0.0,0.0,0.0,0.0,0.0,0.0,0.0,0.0,0.0,0.0,0.0,0.0,0.0,0.0,0.0,0.0,0.0,0.0,0.0,0.0,0.0,0.0,0.0,0.0,0.0,0.0,0.0,0.0,0.0,0.0,0.0,0.0,0.0,0.0,0.0,0.0,0.0,0.0,0.0,0.0,0.0,0.0,0.0,0.0,0.0,0.0,0.0,0.0,0.0,0.0,0.0,0.0,0.0,0.0,0.0,0.0,0.0,0.0,0.0,0.0,0.0,0.0,0.0,0.0,0.0,0.0,0.0,0.0,0.0,0.0,0.0,0.0,0.0,0.0,0.0,0.0,0.0,0.0,0.0,0.0,0.0,0.0,0.0,0.0,0.0,0.0,0.0,0.0,0.0,0.0,0.0,0.0,0.0,0.0,0.0,0.0,0.0,0.0,0.0,-0.9551,-0.9571,-0.9456,-0.9381,-0.9381,-0.9381,-0.9381,-0.9381,0.0,0.0,0.0,0.0,0.0,0.0,0.0,0.0,0.0,0.0,0.0,0.0,0.0,0.0,0.0,0.0,0.0,0.0,0.0,0.0,0.0,0.0,0.0,0.0,0.0,0.0,0.0,0.0,0.0,0.0,0.0,0.0,0.0,0.0,0.0,0.0,0.0,0.0,0.0,0.0,0.0,0.0,0.0,0.0,0.0,0.0,0.0,0.0,0.0,0.0,0.0,0.0,0.0,0.0,0.0,0.0,0.0,0.0,0.0,0.0,0.0,0.0,0.0,0.0,0.0,0.0,0.0,0.0,0.0,0.0,0.0,0.0,0.0,0.0,0.0,0.0,0.0,0.0,0.0,0.0,0.0,0.0,0.0,0.0,0.0,0.0,0.0,0.0,0.0,0.0,0.0,0.0,0.0,0.0,0.0,0.0,0.0,0.0,0.0,0.0,0.0,0.0,0.0,-0.968,-0.9727,-0.9727,-0.9659,-0.9618,-0.9618,-0.9618,-0.9618,-0.9618,-0.9618,0.0,0.0,0.0,0.0,0.0,0.0,0.0,0.0,0.0,0.0,0.0,0.0,0.0,0.0,0.0,0.0,0.0,0.0,0.0,0.0,0.0,0.0,0.0,0.0,0.0,0.0,0.0,0.0,0.0,0.0,0.0,0.0,0.0,0.0,0.0,0.0,0.0,0.0,0.0,0.0,0.0,0.0,0.0,0.0,0.0,0.0,0.0,0.0,0.0,0.0,0.0,0.0,0.0,0.0,0.0,0.0,0.0,0.0,0.0,0.0,0.0,0.0,0.0,0.0,0.0,0.0,0.0,0.0,0.0,0.0,0.0,0.0,0.0,0.0,0.0,0.0,0.0,0.0,0.0,0.0,0.0,0.0,0.0,0.0,0.0,0.0,0.0,0.0,0.0,0.0,0.0,0.0,0.0,0.0,0.0,0.0,0.0,0.0,0.0,0.0,0.0,0.0,-0.9754,-0.9836,-0.9869,-0.9842,-0.9836,-0.9869,-0.9842,-0.9822,-0.9822,-0.9822,0.0,0.0,0.0,0.0,0.0,0.0,0.0,0.0,0.0,0.0,0.0,0.0,0.0,0.0,0.0,0.0,0.0,0.0,0.0,0.0,0.0,0.0,0.0,0.0,0.0,0.0,0.0,0.0,0.0,0.0,0.0,0.0,0.0,0.0,0.0,0.0,0.0,0.0,0.0,0.0,0.0,0.0,0.0,0.0,0.0,0.0,0.0,0.0,0.0,0.0,0.0,0.0,0.0,0.0,0.0,0.0,0.0,0.0,0.0,0.0,0.0,0.0,0.0,0.0,0.0,0.0,0.0,0.0,0.0,0.0,0.0,0.0,0.0,0.0,0.0,0.0,0.0,0.0,0.0,0.0,0.0,0.0,0.0,0.0,0.0,0.0,0.0,0.0,0.0,0.0,0.0,0.0,0.0,0.0,0.0,0.0,0.0,0.0,0.0,0.0,0.0,0.0,-0.9815,-0.9876,-1.0019,-0.9903,-0.9876,-1.0019,-0.9903,-0.9822,-0.9822,-0.9822,0.0,0.0,0.0,0.0,0.0,0.0,0.0,0.0,0.0,0.0,0.0,0.0,0.0,0.0,0.0,0.0,0.0,0.0,0.0,0.0,0.0,0.0,0.0,0.0,0.0,0.0,0.0,0.0,0.0,0.0,0.0,0.0,0.0,0.0,0.0,0.0,0.0,0.0,0.0,0.0,0.0,0.0,0.0,0.0,0.0,0.0,0.0,0.0,0.0,0.0,0.0,0.0,0.0,0.0,0.0,0.0,0.0,0.0,0.0,0.0,0.0,0.0,0.0,0.0,0.0,0.0,0.0,0.0,0.0,0.0,0.0,0.0,0.0,0.0,0.0,0.0,0.0,0.0,0.0,0.0,0.0,0.0,0.0,0.0,0.0,0.0,0.0,0.0,0.0,0.0,0.0,0.0,0.0,0.0,0.0,0.0,0.0,0.0,0.0,0.0,0.0,0.0,-1.0107,-1.0127,-1.0188,-1.0141,-1.0127,-1.0188,-1.0141,-1.0107,-1.0107,0.0,0.0,0.0,0.0,0.0,0.0,0.0,0.0,0.0,0.0,0.0,0.0,0.0,0.0,0.0,0.0,0.0,0.0,0.0,0.0,0.0,0.0,0.0,0.0,0.0,0.0,0.0,0.0,0.0,0.0,0.0,0.0,0.0,0.0,0.0,0.0,0.0,0.0,0.0,0.0,0.0,0.0,0.0,0.0,0.0,0.0,0.0,0.0,0.0,0.0,0.0,0.0,0.0,0.0,0.0,0.0,0.0,0.0,0.0,0.0,0.0,0.0,0.0,0.0,0.0,0.0,0.0,0.0,0.0,0.0,0.0,0.0,0.0,0.0,0.0,0.0,0.0,0.0,0.0,0.0,0.0,0.0,0.0,0.0,0.0,0.0,0.0,0.0,0.0,0.0,0.0,0.0,0.0,0.0,0.0,0.0,0.0,0.0,0.0,0.0,0.0,0.0,-1.0263,-1.0283,-1.0297,-1.0344,-1.031,-1.0297,-1.0344,-1.0304,-1.0283,-1.0283,0.0,0.0,0.0,0.0,0.0,0.0,0.0,0.0,0.0,0.0,0.0,0.0,0.0,0.0,0.0,0.0,0.0,0.0,0.0,0.0,0.0,0.0,0.0,0.0,0.0,0.0,0.0,0.0,0.0,0.0,0.0,0.0,0.0,0.0,0.0,0.0,0.0,0.0,0.0,0.0,0.0,0.0,0.0,0.0,0.0,0.0,0.0,0.0,0.0,0.0,0.0,0.0,0.0,0.0,0.0,0.0,0.0,0.0,0.0,0.0,0.0,0.0,0.0,0.0,0.0,0.0,0.0,0.0,0.0,0.0,0.0,0.0,0.0,0.0,0.0,0.0,0.0,0.0,0.0,0.0,0.0,0.0,0.0,0.0,0.0,0.0,0.0,0.0,0.0,0.0,0.0,0.0,0.0,0.0,0.0,0.0,0.0,0.0,0.0,0.0,0.0,0.0,-1.0283,-1.0283,-1.0337,-1.048,-1.0371,-1.0344,-1.048,-1.0365,-1.0283,0.0,0.0,0.0,0.0,0.0,0.0,0.0,0.0,0.0,0.0,0.0,0.0,0.0,0.0,0.0,0.0,0.0,0.0,0.0,0.0,0.0,0.0,0.0,0.0,0.0,0.0,0.0,0.0,0.0,0.0,0.0,0.0,0.0,0.0,0.0,0.0,0.0,0.0,0.0,0.0,0.0,0.0,0.0,0.0,0.0,0.0,0.0,0.0,0.0,0.0,0.0,0.0,0.0,0.0,0.0,0.0,0.0,0.0,0.0,0.0,0.0,0.0,0.0,0.0,0.0,0.0,0.0,0.0,0.0,0.0,0.0,0.0,0.0,0.0,0.0,0.0,0.0,0.0,0.0,0.0,0.0,0.0,0.0,0.0,0.0,0.0,0.0,0.0,0.0,0.0,0.0,0.0,0.0,0.0,0.0,0.0,0.0,0.0,0.0,0.0,0.0,0.0,0.0,-1.0575,-1.0588,-1.0609,-1.0649,-1.0616,-1.0609,-1.0649,-1.0616,-1.0588,-1.0588,0.0,0.0,0.0,0.0,0.0,0.0,0.0,0.0,0.0,0.0,0.0,0.0,0.0,0.0,0.0,0.0,0.0,0.0,0.0,0.0,0.0,0.0,0.0,0.0,0.0,0.0,0.0,0.0,0.0,0.0,0.0,0.0,0.0,0.0,0.0,0.0,0.0,0.0,0.0,0.0,0.0,0.0,0.0,0.0,0.0,0.0,0.0,0.0,0.0,0.0,0.0,0.0,0.0,0.0,0.0,0.0,0.0,0.0,0.0,0.0,0.0,0.0,0.0,0.0,0.0,0.0,0.0,0.0,0.0,0.0,0.0,0.0,0.0,0.0,0.0,0.0,0.0,0.0,0.0,0.0,0.0,0.0,0.0,0.0,0.0,0.0,0.0,0.0,0.0,0.0,0.0,0.0,0.0,0.0,0.0,0.0,0.0,0.0,0.0,0.0,0.0,0.0,-1.0711,-1.0717,-1.0717,-1.0717,-1.0717,-1.0717,-1.0717,-1.0717,-1.0717,-1.0717,0.0,0.0,0.0,0.0,0.0,0.0,0.0,0.0,0.0,0.0,0.0,0.0,0.0,0.0,0.0,0.0,0.0,0.0,0.0,0.0,0.0,0.0,0.0,0.0,0.0,0.0,0.0,0.0,0.0,0.0,0.0,0.0,0.0,0.0,0.0,0.0,0.0,0.0,0.0,0.0,0.0,0.0,0.0,0.0,0.0,0.0,0.0,0.0,0.0,0.0,0.0,0.0,0.0,0.0,0.0,0.0,0.0,0.0,0.0,0.0,0.0,0.0,0.0,0.0,0.0,0.0,0.0,0.0,0.0,0.0,0.0,0.0,0.0,0.0,0.0,0.0,0.0,0.0,0.0,0.0,0.0,0.0,0.0,0.0,0.0,0.0,0.0,0.0,0.0,0.0,0.0,0.0,0.0,0.0,0.0,0.0,0.0,0.0,0.0,0.0,0.0,0.0,-1.0758,-1.0758,-1.0758,-1.0758,-1.0758,-1.0758,-1.0758,-1.0758,-1.0758,-1.0744,0.0,0.0,0.0,0.0,0.0,0.0,0.0,0.0,0.0,0.0,0.0,0.0,0.0,0.0,0.0,0.0,0.0,0.0,0.0,0.0,0.0,0.0,0.0,0.0,0.0,0.0,0.0,0.0,0.0,0.0,0.0,0.0,0.0,0.0,0.0,0.0,0.0,0.0,0.0,0.0,0.0,0.0,0.0,0.0,0.0,0.0,0.0,0.0,0.0,0.0,0.0,0.0,0.0,0.0,0.0,0.0,0.0,0.0,0.0,0.0,-0.9042,-0.894,0.0,0.0,0.0,0.0,0.0,0.0,0.0,0.0,0.0,0.0,0.0,0.0,0.0,0.0,0.0,0.0,0.0,0.0,0.0,0.0,0.0,0.0,0.0,0.0,0.0,0.0,0.0,0.0,0.0,0.0,0.0,0.0,0.0,0.0,0.0,0.0,0.0,0.0,0.0,0.0,-1.1056,-1.107,-1.107,-1.107,-1.107,-1.107,-1.107,-1.107,-1.1023,-1.0907,-1.09,0.0,0.0,0.0,0.0,0.0,0.0,0.0,0.0,0.0,0.0,0.0,0.0,0.0,0.0,0.0,0.0,0.0,0.0,0.0,0.0,0.0,0.0,0.0,0.0,0.0,0.0,0.0,0.0,0.0,0.0,0.0,0.0,0.0,0.0,0.0,0.0,0.0,0.0,0.0,0.0,0.0,0.0,0.0,0.0,0.0,0.0,0.0,0.0,0.0,0.0,0.0,0.0,0.0,0.0,0.0,0.0,0.0,0.0,0.0,-0.9218,-0.915,0.0,0.0,0.0,0.0,0.0,0.0,0.0,0.0,0.0,0.0,0.0,0.0,0.0,0.0,0.0,0.0,0.0,0.0,0.0,0.0,0.0,0.0,0.0,0.0,0.0,0.0,0.0,0.0,0.0,0.0,0.0,0.0,0.0,0.0,0.0,0.0,0.0,0.0,0.0,0.0,-1.1151,-1.1165,-1.1165,-1.1165,-1.1165,-1.1165,-1.1165,-1.1165,-1.1131,-1.1056,-1.0359,0.0,0.0,0.0,0.0,0.0,0.0,0.0,0.0,0.0,0.0,0.0,0.0,0.0,0.0,0.0,0.0,0.0,0.0,0.0,0.0,0.0,0.0,0.0,0.0,0.0,0.0,0.0,0.0,0.0,0.0,0.0,0.0,0.0,0.0,0.0,0.0,0.0,0.0,0.0,0.0,0.0,0.0,0.0,0.0,0.0,0.0,0.0,0.0,0.0,0.0,0.0,0.0,0.0,-0.9381,-0.9395,-0.9422,-0.9422,-0.9435,-0.9456,-0.949,-0.9456,-0.9381,-0.9381,0.0,0.0,0.0,0.0,0.0,0.0,0.0,0.0,0.0,0.0,0.0,0.0,0.0,0.0,0.0,0.0,0.0,0.0,0.0,0.0,0.0,0.0,-1.0317,-1.0317,-1.0337,-1.0365,-1.0392,0.0,0.0,0.0,0.0,0.0,0.0,0.0,0.0,0.0,0.0,0.0,-1.124,-1.124,-1.124,-1.124,-1.124,-1.124,-1.124,-1.124,-1.1094,-1.0783,-0.9527,-0.9192,0.0,0.0,0.0,0.0,0.0,0.0,0.0,0.0,0.0,0.0,0.0,0.0,0.0,0.0,0.0,0.0,0.0,0.0,0.0,0.0,0.0,0.0,0.0,0.0,0.0,0.0,0.0,0.0,0.0,0.0,0.0,0.0,-0.8737,-0.8893,0.0,0.0,0.0,0.0,0.0,0.0,0.0,0.0,0.0,0.0,0.0,0.0,0.0,-0.9381,-0.9381,-0.9381,-0.9381,-0.9381,-0.9381,-0.9449,-0.9578,-0.9578,-0.9646,-0.9768,-0.9903,0.0,-0.9381,-0.9381,0.0,0.0,0.0,0.0,0.0,0.0,0.0,0.0,0.0,0.0,0.0,0.0,0.0,0.0,0.0,0.0,0.0,0.0,0.0,0.0,0.0,0.0,-1.0466,-1.0466,-1.0568,-1.0697,-1.0833,-1.0649,-1.0466,-1.0466,-1.0697,-1.0887,0.0,0.0,0.0,0.0,0.0,0.0,-1.1545,-1.1558,-1.1558,-1.1558,-1.1558,-1.1558,-1.1558,-1.1558,-1.0921,-0.9513,-0.9225,-0.8469,-0.7109,-0.8213,0.0,0.0,0.0,0.0,0.0,0.0,0.0,0.0,0.0,0.0,0.0,0.0,0.0,0.0,0.0,0.0,0.0,0.0,0.0,0.0,0.0,0.0,0.0,0.0,0.0,0.0,0.0,0.0,0.0,-0.8913,-0.9015,-0.9171,-0.9191,-0.9211,0.0,0.0,0.0,0.0,0.0,0.0,0.0,0.0,0.0,-0.951,-0.9585,-0.9632,-0.9632,-0.9713,-0.9754,-0.9754,-0.9842,-0.9924,-0.9985,-0.9985,-1.0019,-1.008,-1.0148,-1.0066,-0.989,-0.989,-0.989,-0.989,0.0,0.0,0.0,0.0,-0.989,-0.9897,-0.9964,-1.0025,-1.0086,-1.0161,0.0,0.0,0.0,0.0,0.0,0.0,0.0,-1.0419,-1.0507,-1.0636,-1.0751,-1.0751,-1.086,-1.0989,-1.1056,-1.0962,-1.0867,-1.0867,-1.0975,-1.107,-1.107,-1.1192,0.0,0.0,0.0,-1.1694,-1.185,-1.187,-1.187,-1.187,-1.187,-1.187,-1.187,-1.0982,-1.0181,-0.9318,-0.757,-0.6641,-0.6645,-0.65,-0.6038,0.0,0.0,0.0,0.0,0.0,0.0,0.0,0.0,0.0,0.0,0.0,0.0,0.0,0.0,0.0,0.0,0.0,0.0,0.0,0.0,0.0,0.0,0.0,0.0,0.0,0.0,0.0,0.0,-0.9211,-0.9252,-0.9367,-0.9381,-0.9395,0.0,0.0,0.0,0.0,0.0,0.0,-0.9496,-0.9639,-0.972,-0.972,-0.9863,-0.9937,-0.9937,-1.0053,-1.0107,-1.0107,-1.0222,-1.0283,-1.0283,-1.0283,-1.0283,-1.0283,-1.0317,-1.0337,-1.0331,-1.0297,-1.0283,-1.0283,-1.0283,-1.0283,-1.0283,-1.0283,-1.0283,-1.0283,-1.0283,-1.0304,-1.0337,-1.0337,-1.0365,-1.0399,-1.0439,0.0,0.0,0.0,0.0,-1.069,-1.0806,-1.0921,-1.1002,-1.1002,-1.1084,-1.1172,-1.1212,-1.1253,-1.1253,-1.1179,-1.1192,-1.1233,-1.1274,-1.1402,0.0,-1.1708,-1.1823,-1.1932,-1.2047,-1.206,-1.206,-1.206,-1.206,-1.1911,-1.1457,-1.0254,-0.9164,-0.8336,-0.5958,-0.5025,-0.5505,-0.4907,-0.4297,-0.3817,0.0,0.0,0.0,0.0,0.0,0.0,0.0,0.0,0.0,0.0,0.0,0.0,0.0,0.0,0.0,0.0,0.0,0.0,0.0,0.0,0.0,0.0,0.0,0.0,0.0,0.0,0.0,0.0,0.0,-0.9381,-0.9381,0.0,0.0,0.0,0.0,-0.9788,-0.9795,-0.9795,-0.9795,-0.9944,-1.0025,-1.0025,-1.0175,-1.0256,-1.0256,-1.0263,-1.027,-1.027,-1.0276,-1.0283,-1.0283,-1.0283,-1.0283,-1.029,-1.0426,-1.048,-1.0473,-1.0337,-1.0283,-1.0283,-1.0283,-1.0283,-1.0283,-1.0283,-1.0283,-1.0283,-1.0283,-1.0371,-1.048,-1.048,-1.0582,-1.0724,-1.0873,-1.0914,0.0,0.0,-1.1131,-1.1131,-1.1138,-1.1145,-1.1151,-1.1151,-1.1158,-1.1206,-1.1348,-1.1491,-1.1511,-1.1219,-1.128,-1.1423,-1.1572,0.0,-1.1864,-1.2013,-1.2047,-1.2054,-1.206,-1.206,-1.206,-1.206,-1.206,-1.1457,-0.9805,-0.9655,-0.8295,-0.5135,-0.4834,-0.4077,-0.2718,-0.3878,-0.3976,-0.2474,-0.3875,0.0,0.0,0.0,0.0,0.0,0.0,0.0,0.0,0.0,0.0,0.0,0.0,0.0,0.0,0.0,0.0,0.0,0.0,0.0,0.0,0.0,0.0,0.0,0.0,0.0,0.0,0.0,0.0,-0.9652,-0.9666,0.0,-0.9741,-0.9747,-0.9808,-0.9958,-0.9971,-1.0012,-1.0114,-1.0168,-1.0202,-1.0202,-1.0249,-1.0283,-1.0283,-1.0371,-1.0419,-1.0419,-1.0514,-1.0561,-1.0561,-0.9639,-0.9156,-0.9099,-0.8339,-0.7993,-0.7917,-0.7882,-0.8856,-1.0561,-1.0561,-1.0561,-1.0561,-1.0561,-1.0561,-1.0575,-1.0677,-1.0744,-1.0665,-0.9673,-0.8769,-0.8128,-0.9274,-0.9566,-0.9716,-1.0869,-1.1165,-1.1165,-1.1165,-1.124,-1.1335,-1.1436,-1.1525,-1.1633,-1.1789,-1.1864,-1.187,-1.1762,-1.1782,-1.1837,-1.1898,-1.1945,-1.2033,-1.2189,-1.221,-1.2244,-1.2332,-1.2345,-1.2345,-1.2345,-1.1421,-1.0497,-0.9878,-0.8189,-0.6627,-0.5507,-0.4132,-0.3053,-0.2424,-0.3016,-0.3001,-0.2391,-0.2949,-0.2912,0.0,0.0,0.0,0.0,0.0,0.0,0.0,0.0,0.0,0.0,0.0,0.0,0.0,0.0,0.0,0.0,0.0,0.0,0.0,0.0,0.0,0.0,0.0,0.0,0.0,-0.968,-0.9713,-0.9808,-0.9822,-0.9842,-0.989,-0.9897,-0.9964,-1.0114,-1.0127,-1.0175,-1.0276,-1.0324,-1.0351,-1.0351,-1.0399,-1.0426,-1.0426,-1.0575,-1.0643,-1.0649,-1.0799,-1.0598,-1.0059,-0.9103,-0.8329,-0.7849,-0.6889,-0.6509,-0.6565,-0.6565,-0.7598,-0.9238,-0.9238,-0.9238,-0.9238,-0.9238,-0.9238,-0.925,-0.9336,-0.9365,-0.9245,-0.8352,-0.74,-0.6709,-0.772,-0.8038,-0.8499,-1.01,-1.0574,-1.0754,-1.1322,-1.1538,-1.1647,-1.1748,-1.1843,-1.1938,-1.204,-1.2101,-1.2142,-1.2142,-1.2094,-1.2081,-1.2128,-1.2142,-1.2189,-1.2338,-1.2359,-1.2393,-1.2488,-1.2501,-1.2501,-1.2501,-1.094,-0.9698,-0.9226,-0.6889,-0.5312,-0.4652,-0.3258,-0.2321,-0.2147,-0.2292,-0.2439,-0.2439,-0.2409,-0.2373,-0.2333,0.0,0.0,0.0,0.0,0.0,0.0,0.0,0.0,0.0,0.0,0.0,0.0,0.0,0.0,0.0,0.0,0.0,0.0,0.0,0.0,0.0,0.0,0.0,-0.9822,-0.9822,-0.9829,-0.9829,-0.9829,-0.989,-1.0039,-1.0059,-1.012,-1.0276,-1.029,-1.029,-1.0297,-1.0426,-1.0507,-1.0507,-1.0656,-1.0731,-1.0598,-1.0745,-1.0819,-1.0819,-1.096,-1.0191,-0.8799,-0.866,-0.7822,-0.643,-0.643,-0.6434,-0.6438,-0.6438,-0.6438,-0.6442,-0.643,-0.6565,-0.6565,-0.6565,-0.6565,-0.6569,-0.6573,-0.6434,-0.6438,-0.6442,-0.6442,-0.6457,-0.6544,-0.663,-0.7148,-0.8856,-0.9414,-0.9955,-1.1612,-1.206,-1.206,-1.2067,-1.2067,-1.2074,-1.2074,-1.2189,-1.2298,-1.2298,-1.2176,-1.2121,-1.2271,-1.2298,-1.2345,-1.2481,-1.2501,0.0,-1.2501,-1.2501,-1.2347,-1.2347,-1.094,-0.9226,-0.7513,-0.5952,-0.4234,-0.2671,-0.2514,-0.2043,-0.1256,-0.2019,-0.247,-0.2469,-0.244,-0.2395,-0.2335,0.0,0.0,0.0,0.0,0.0,0.0,0.0,0.0,0.0,0.0,0.0,0.0,0.0,0.0,0.0,0.0,0.0,0.0,0.0,0.0,0.0,-0.9985,-0.9944,-0.9836,-0.9917,-0.9985,-0.9985,-1.0086,-1.0168,-1.0215,-1.0215,-1.0276,-1.0426,-1.0432,-1.048,-1.0595,-1.0744,-1.0826,-1.0826,-1.0962,-1.049,-0.9388,-0.9423,-0.8751,-0.7774,-0.7802,-0.796,-0.8109,-0.643,-0.5621,-0.5392,-0.3978,-0.3449,-0.3508,-0.3508,-0.3527,-0.369,-0.5675,-0.6565,-0.6565,-0.6565,-0.6605,-0.6669,-0.6737,-0.608,-0.5262,-0.5164,-0.4443,-0.3707,-0.4906,-0.5221,-0.5687,-0.7348,-0.7823,-0.8145,-0.9805,-1.0254,-1.0583,-1.1894,-1.223,-1.2257,-1.2359,-1.2413,-1.244,-1.244,-1.2413,-1.2393,-1.2433,-1.244,-1.2461,-1.2494,-1.2501,-1.2501,-1.2501,-1.1411,-1.063,-1.063,-0.8132,-0.642,-0.6268,-0.4393,-0.2983,-0.2514,-0.1414,-0.0628,-0.0314,-0.1723,-0.2492,-0.2469,-0.2461,-0.2438,0.0,0.0,0.0,0.0,0.0,0.0,0.0,0.0,0.0,0.0,0.0,0.0,0.0,0.0,0.0,0.0,0.0,0.0,0.0,0.0,0.0,0.0,-1.0148,-1.0114,-1.0025,-1.0093,-1.0148,-1.0148,-1.0222,-1.0304,-1.0365,-1.0371,-1.0432,-1.0575,-1.0649,-1.0452,-0.9862,-0.9999,-0.9662,-0.9108,-0.9176,-0.8793,-0.7822,-0.7864,-0.7486,-0.6677,-0.6713,-0.661,-0.6505,-0.5204,-0.4358,-0.3953,-0.2784,-0.2365,-0.2397,-0.2397,-0.2408,-0.2567,0.0,0.0,0.0,0.0,-0.4794,-0.4976,-0.5014,-0.4458,-0.3746,-0.3773,-0.3179,-0.2575,-0.3482,-0.3797,-0.4116,-0.578,-0.626,-0.659,-0.8274,-0.8736,-0.9056,-1.0042,-1.0218,-1.0543,-1.1238,-1.094,-1.063,-1.1256,-1.094,0.0,-1.0474,-1.1566,-1.203,-1.063,-1.094,-1.1256,-1.0474,-0.9537,-0.8915,-0.8915,-0.6573,-0.517,-0.5799,-0.3768,0.0,0.0,0.0,-0.0785,-0.0,-0.0942,0.0,0.0,0.0,-0.2473,-0.2443,-0.2443,0.0,0.0,-0.2286,-0.2989,0.0,0.0,0.0,0.0,0.0,0.0,0.0,0.0,0.0,0.0,0.0,0.0,0.0,0.0,0.0,0.0,-1.0304,-1.031,-1.0331,-1.0331,-1.0324,-1.0304,-1.0189,-1.0128,-1.0267,-1.0143,-1.0077,-1.0219,-1.0348,-0.9875,-0.8497,-0.8474,0.0,0.0,0.0,-0.6469,-0.6329,-0.6413,-0.6354,-0.6279,-0.6496,-0.5826,-0.4386,-0.4386,-0.3631,-0.2424,-0.2424,-0.2425,-0.2429,-0.2429,-0.2431,-0.2433,-0.2427,-0.2424,-0.2424,-0.2424,-0.2424,-0.2424,-0.2428,0.0,0.0,-0.2432,-0.2433,-0.2433,-0.2433,-0.2453,-0.2782,-0.4319,-0.4663,-0.517,-0.6733,-0.7201,-0.7201,-0.7513,-0.7513,-0.7981,-0.9382,-0.8604,-0.7981,-0.9382,-0.8448,-0.7513,-0.7201,-0.9848,-1.094,-0.7981,-0.8759,-0.9226,-0.7669,-0.7357,-0.7201,-0.7201,-0.5796,0.0,-0.5329,-0.3611,-0.2357,-0.22,-0.22,-0.1571,-0.0,0.0,-0.0314,-0.1099,-0.1886,-0.2188,-0.232,-0.2474,-0.2461,-0.2432,-0.2372,-0.3091,0.0,0.0,0.0,0.0,0.0,0.0,0.0,0.0,0.0,0.0,0.0,0.0,0.0,0.0,0.0,-1.0432,-1.0453,-1.0493,-1.0616,-1.0636,-1.0588,-1.0466,-0.9502,-0.8955,-0.8946,-0.8008,-0.7233,-0.7332,-0.7359,-0.7234,-0.6953,-0.7047,-0.6956,-0.6815,-0.6809,-0.6297,-0.4988,-0.5052,-0.4494,-0.3306,-0.3313,0.0,-0.2876,-0.2876,-0.2725,-0.2424,-0.2424,-0.2438,-0.2461,-0.2461,-0.2474,-0.2492,-0.2443,-0.2424,-0.2424,-0.2424,-0.2424,-0.2427,-0.2451,-0.2461,-0.2463,-0.2489,-0.2497,-0.2497,-0.2497,-0.25,0.0,-0.2817,-0.2978,-0.3297,-0.5014,-0.5483,-0.5796,-0.7201,-0.7513,-0.7513,-0.7981,-0.7669,-0.7669,-0.7981,-0.7669,-0.7045,-0.5639,-0.7201,-0.8292,-0.7669,-0.7825,-0.7825,-0.7513,-0.6264,-0.5483,-0.5483,-0.3922,-0.2983,-0.314,-0.22,-0.1256,-0.0471,-0.0471,-0.0314,-0.0,0.0,-0.0157,-0.0314,-0.0471,-0.0784,-0.1565,-0.2193,-0.2503,-0.2495,-0.2435,-0.2559,0.0,0.0,0.0,0.0,0.0,0.0,0.0,0.0,0.0,0.0,0.0,-0.9374,0.0,0.0,-1.0521,-1.0595,-1.0003,-0.9534,-0.96,-0.8985,-0.8844,-0.9528,-0.9029,-0.8303,-0.7594,-0.691,-0.6517,-0.6561,-0.6605,-0.6367,-0.5557,-0.563,-0.5399,-0.4554,-0.4609,-0.4342,-0.3598,-0.3621,-0.3188,-0.2446,-0.2446,-0.2454,-0.2469,-0.2469,-0.2469,-0.2469,-0.2469,-0.2477,-0.2492,-0.2492,-0.25,-0.2511,-0.2481,-0.2469,-0.2469,-0.2469,-0.2469,-0.2472,-0.2487,-0.2492,-0.2493,-0.251,-0.2514,-0.2514,-0.2514,-0.2514,-0.2514,-0.2514,-0.2514,-0.2671,-0.3609,-0.3766,-0.3922,-0.486,-0.5016,-0.5173,-0.6108,-0.5642,-0.5173,-0.6108,-0.5642,-0.4703,-0.3922,-0.4414,-0.5052,-0.5022,-0.5639,-0.5952,-0.5173,-0.4236,-0.3766,-0.3766,-0.2983,-0.2514,-0.2514,-0.1414,-0.0471,-0.0,0.0,0.0,0.0,0.0,0.0,0.0,0.0,-0.0157,-0.0628,-0.1414,-0.2043,-0.2514,-0.2484,-0.2461,0.0,0.0,0.0,0.0,0.0,0.0,0.0,0.0,-0.611,-0.6185,-0.7135,-0.8101,-0.8189,-0.9169,-0.9862,-0.9862,-0.8996,-0.8239,-0.8239,-0.7212,-0.6823,-0.7731,-0.7839,-0.7319,-0.6163,-0.5894,-0.5624,-0.5651,-0.5855,-0.5348,-0.4104,-0.4147,-0.3744,-0.2423,-0.2429,-0.2432,-0.2432,-0.2438,-0.2454,-0.2477,-0.2477,-0.2491,-0.2514,-0.2514,-0.2514,-0.2514,-0.2514,-0.2514,-0.2514,-0.2514,-0.2514,-0.2514,-0.2514,-0.2514,-0.2514,-0.2514,-0.2514,-0.2514,-0.2514,-0.2514,-0.2514,-0.2514,-0.2514,-0.2514,-0.2514,-0.2514,-0.2514,-0.2514,-0.2514,-0.2514,-0.2514,-0.2514,-0.2514,-0.2514,-0.2514,-0.2828,-0.4234,-0.3454,-0.2829,-0.4247,-0.3465,-0.2525,-0.253,-0.2552,-0.2557,-0.2527,-0.3629,-0.4106,-0.2688,-0.2532,-0.2532,-0.2532,-0.2532,-0.2532,-0.2532,-0.0947,0.0,0.0,0.0,0.0,0.0,0.0,0.0,0.0,0.0,0.0,-0.0,-0.0942,-0.1728,-0.2514,-0.2514,-0.2502,-0.2131,-0.3744,-0.4818,-0.308,-0.3613,-0.4548,0.0,0.0,-0.6406,-0.6415,-0.6619,-0.6677,-0.6689,-0.6893,-0.6949,-0.6949,-0.6823,-0.6688,-0.6688,-0.6557,-0.603,-0.4964,-0.4917,-0.4768,-0.4692,-0.3565,-0.2739,-0.28,-0.2809,-0.2826,-0.2713,-0.2718,-0.2571,-0.2424,-0.245,-0.2463,-0.2463,-0.2491,-0.2506,-0.2508,-0.2508,-0.2511,-0.2514,-0.2514,-0.2514,-0.2514,-0.2514,-0.2514,-0.2514,-0.2514,-0.2514,-0.2514,-0.2514,-0.2514,-0.2514,-0.2514,-0.2514,-0.2514,-0.2514,-0.2514,-0.2514,-0.2514,-0.2514,-0.2514,-0.2514,-0.2514,-0.2514,-0.2514,-0.2514,-0.2514,-0.2514,-0.2514,-0.2514,-0.2514,-0.2514,-0.2514,-0.2671,-0.2671,-0.2522,-0.2868,-0.2714,-0.2563,-0.2587,-0.2594,-0.2587,-0.2559,-0.2736,-0.2753,-0.2592,-0.2592,-0.2592,-0.2592,-0.2592,-0.2593,-0.2432,-0.0963,0.0,0.0,0.0,0.0,0.0,0.0,0.0,0.0,0.0,0.0,-0.0,-0.0942,-0.1728,-0.2514,-0.2514,-0.2512,-0.2176,-0.2723,-0.3127,0.0,-0.2709,-0.3133,-0.3133,-0.3561,-0.3991,-0.3991,-0.4695,-0.5266,-0.5266,-0.5986,-0.6565,0.0,-0.5768,-0.5232,-0.5232,-0.4589,-0.3919,-0.3358,-0.3222,-0.3224,-0.3216,-0.265,-0.2378,-0.2402,-0.2405,-0.2418,-0.2448,-0.245,-0.2458,-0.2476,-0.2489,-0.2495,-0.2495,-0.2508,-0.2523,-0.2541,-0.2541,-0.2549,-0.2564,-0.2548,-0.2532,-0.2514,-0.2514,-0.2514,-0.2514,-0.2514,-0.2514,-0.2514,-0.2514,-0.2514,-0.2514,-0.2514,-0.2514,-0.2514,-0.2514,-0.2514,-0.2514,-0.2514,-0.2514,-0.2514,-0.2514,-0.2514,-0.2514,-0.2514,-0.2514,-0.2514,-0.2514,-0.2514,-0.2519,-0.2537,-0.2541,-0.2545,-0.2562,-0.2564,-0.2568,-0.2582,-0.2585,-0.2587,-0.26,-0.2616,-0.2624,-0.2612,-0.2605,-0.2601,-0.2601,-0.2601,-0.2601,-0.2601,-0.2601,-0.2602,-0.2605,-0.1459,-0.0485,-0.0,0.0,0.0,0.0,0.0,0.0,0.0,0.0,0.0,-0.0,-0.0942,-0.1728,-0.2514,-0.2514,-0.2514,-0.2213,-0.2213,0.0,-0.2185,-0.2196,-0.2213,-0.2213,-0.223,-0.2245,-0.2245,-0.3092,-0.3801,-0.3801,-0.4656,-0.5376,-0.5395,-0.4443,-0.3902,-0.3916,-0.2951,-0.2391,-0.2391,-0.2417,-0.2428,-0.2405,-0.2416,-0.2427,-0.2435,-0.2436,-0.245,-0.248,-0.2481,-0.2496,-0.2526,-0.2527,-0.253,-0.2538,-0.2538,-0.2549,-0.2571,-0.2571,-0.2582,-0.2601,-0.2581,-0.2559,-0.2538,-0.2538,-0.2538,-0.2538,-0.2538,-0.2538,-0.2538,-0.2538,-0.2538,-0.2537,-0.253,-0.2522,-0.2514,-0.2514,-0.2514,-0.2514,-0.2514,-0.2514,-0.2514,-0.2514,-0.2514,-0.2514,-0.2514,-0.2521,-0.2527,-0.2527,-0.2533,-0.2544,-0.2566,-0.2571,-0.2577,-0.2597,-0.2601,-0.2604,-0.2612,-0.2615,-0.2616,-0.2626,-0.2645,-0.266,-0.266,-0.2641,-0.2627,-0.2627,-0.2627,-0.2627,-0.2627,-0.2627,-0.2627,-0.263,-0.213,-0.1145,-0.0,0.0,0.0,0.0,0.0,0.0,0.0,0.0,0.0,-0.0,-0.0952,-0.1745,-0.254,-0.2538,-0.2538,-0.2244,0.0,-0.2244,-0.2243,-0.2244,-0.2244,-0.2244,-0.2245,-0.2245,-0.2245,-0.2268,-0.2432,-0.2432,-0.2457,-0.2485,-0.2517,-0.2523,-0.2535,-0.2416,-0.2421,-0.2423,-0.2423,-0.2448,-0.2467,-0.2466,-0.244,-0.2436,-0.2465,-0.2467,-0.2481,-0.2511,-0.2512,-0.2527,-0.2557,-0.2559,-0.2571,-0.2598,-0.2598,-0.26,-0.26,-0.26,-0.2601,-0.2601,-0.2601,-0.26,-0.2598,-0.2598,-0.2598,-0.2598,-0.2598,-0.2598,-0.2598,-0.2598,-0.2598,-0.2596,-0.2568,-0.254,-0.2514,-0.2514,-0.2514,-0.2514,-0.2514,-0.2514,-0.2514,-0.2514,-0.2514,-0.2514,-0.2514,-0.2536,-0.2559,-0.2559,-0.2578,-0.26,-0.26,-0.26,-0.2601,-0.2601,-0.2601,-0.2611,-0.2641,-0.2646,-0.2656,-0.2684,-0.269,-0.2691,-0.2691,-0.269,-0.269,-0.269,-0.269,-0.269,-0.269,-0.269,-0.269,-0.269,-0.2665,-0.1821,-0.0165,0.0,0.0,0.0,0.0,0.0,0.0,0.0,0.0,-0.0,-0.0813,-0.1788,-0.2602,-0.26,-0.2598,-0.2275,0.0,-0.2271,-0.2251,-0.226,-0.2275,-0.2275,-0.229,-0.2304,-0.2304,-0.2327,-0.2349,-0.2349,-0.2373,-0.2397,-0.2406,-0.2408,-0.2412,-0.2423,-0.2442,-0.2454,-0.2454,-0.248,-0.2499,-0.2499,-0.2489,-0.2488,-0.2499,-0.2499,-0.2512,-0.2542,-0.2544,-0.2557,-0.2586,-0.2587,-0.2592,-0.2601,-0.2601,-0.2612,-0.2632,-0.2652,-0.2652,-0.2631,-0.2631,-0.262,-0.2601,-0.2601,-0.2601,-0.2601,-0.2601,-0.2601,-0.2601,-0.2601,-0.2601,-0.2601,-0.2592,-0.2581,-0.2567,-0.2527,-0.2514,-0.2514,-0.2514,-0.2527,-0.2544,-0.2544,-0.2557,-0.2572,-0.2572,-0.2579,-0.2587,-0.2587,-0.2594,-0.2607,-0.2627,-0.2631,-0.2637,-0.2657,-0.2662,-0.2665,-0.2675,-0.2677,-0.268,-0.2691,-0.2692,-0.2692,-0.2692,-0.2692,-0.2692,-0.2692,-0.2692,-0.2692,-0.2692,-0.2692,-0.2692,-0.2692,-0.2684,-0.2511,-0.1843,-0.0667,0.0,0.0,0.0,0.0,0.0,0.0,0.0,-0.0,-0.0814,-0.179,-0.2605,-0.2602,-0.2601,-0.2305,-0.2305,-0.2301,-0.2281,-0.2292,-0.2305,-0.2305,-0.2328,-0.2349,-0.2349,-0.2373,-0.2394,-0.2394,-0.241,-0.2427,-0.2438,-0.244,-0.2443,-0.2455,-0.2473,-0.2485,-0.2485,-0.2503,-0.2518,-0.2529,-0.253,-0.253,-0.253,-0.253,-0.2544,-0.2572,-0.2575,-0.2587,-0.2617,-0.2617,-0.2623,-0.2634,-0.2634,-0.2643,-0.2664,-0.2683,-0.2683,-0.2662,-0.2662,-0.2653,-0.2634,-0.2634,-0.2634,-0.2634,-0.2634,-0.2634,-0.2634,-0.2634,-0.2634,-0.2632,-0.2622,-0.2617,-0.2611,-0.2563,-0.2545,-0.2545,-0.2545,-0.2559,-0.2575,-0.2575,-0.2587,-0.2601,-0.2601,-0.2609,-0.2617,-0.2617,-0.2626,-0.2639,-0.2658,-0.2662,-0.2669,-0.2688,-0.2692,-0.2692,-0.2692,-0.2692,-0.2692,-0.2692,-0.2692,-0.2692,-0.2692,-0.2692,-0.2692,-0.2692,-0.2692,-0.2692,-0.2692,-0.2692,-0.2692,-0.2692,-0.2356,-0.2356,-0.2697,-0.101,0.0,0.0,0.0,0.0,0.0,0.0,0.0,-0.0,-0.0824,-0.1812,-0.2637,-0.2635,-0.2634,-0.2333,-0.2333,-0.2333,-0.2335,-0.2335,-0.2335,-0.2337,-0.236,-0.238,-0.238,-0.2405,-0.2425,0.0,0.0,-0.2438,-0.2466,-0.2472,-0.2481,-0.251,-0.2514,-0.2514,0.0,0.0,0.0,0.0,0.0,-0.2563,-0.2564,-0.2563,-0.2574,-0.2602,-0.2604,-0.2617,-0.2649,-0.2649,-0.2662,-0.2692,-0.2692,-0.2692,-0.2692,-0.2692,-0.2692,-0.2692,-0.2692,-0.2692,-0.2692,-0.2692,-0.2692,-0.2692,-0.2692,-0.2692,-0.2692,-0.2692,-0.2692,-0.2688,-0.266,-0.2649,-0.2645,-0.2616,-0.2604,-0.2601,-0.2601,-0.2602,-0.2604,-0.2604,-0.2605,-0.2607,-0.2607,-0.2627,-0.2649,-0.2649,-0.2671,-0.2692,-0.2692,-0.2692,-0.2692,-0.2692,-0.2692,-0.2692,-0.2692,-0.2692,-0.2692,-0.2692,-0.2692,-0.2692,-0.2692,-0.2692,-0.2692,-0.2692,-0.2692,-0.2692,-0.2692,-0.2692,-0.2692,-0.2692,-0.1851,-0.1683,-0.2527,-0.101,0.0,0.0,0.0,0.0,0.0,0.0,0.0,-0.0,-0.0842,-0.1682,-0.2692,-0.2692,-0.2692,-0.2333,-0.2333,-0.2338,-0.2361,-0.2367,-0.2372,-0.2395,-0.2406,-0.2412,-0.2412,-0.2436,-0.2458,0.0,0.0,0.0,-0.2502,-0.2503,0.0,-0.2514,-0.2514,0.0,-0.2514,0.0,-0.2552,-0.2559,-0.2578,0.0,-0.2623,-0.2604,-0.2604,-0.2634,-0.2635,-0.2649,-0.268,-0.2682,-0.2684,-0.2692,-0.2692,-0.2692,-0.2692,-0.2692,-0.2692,-0.2692,-0.2692,-0.2692,-0.2692,-0.2692,-0.2692,-0.2692,-0.2692,-0.2692,-0.2692,-0.2692,-0.2692,-0.2691,-0.2684,-0.2682,-0.268,-0.2672,-0.2639,-0.2601,-0.2601,-0.2617,-0.2635,-0.2635,-0.2652,-0.2669,-0.2669,-0.2675,-0.2682,-0.2682,-0.2687,-0.2692,-0.2692,-0.2692,-0.2692,-0.2692,-0.2692,-0.2692,-0.2692,-0.2692,-0.2692,-0.2692,-0.2692,-0.2692,-0.2692,-0.2692,-0.2692,-0.2692,-0.2692,-0.2692,-0.2692,-0.2692,-0.2692,-0.2695,-0.2527,-0.1852,-0.0842,-0.0337,0.0,0.0,0.0,0.0,0.0,0.0,0.0,-0.0,-0.0168,-0.1178,-0.2692,-0.2692,-0.2692,-0.2333,-0.2342,-0.2357,-0.2373,-0.2388,-0.2402,-0.242,-0.2433,-0.2443,-0.2443,-0.2467,-0.2489,-0.2489,-0.2503,-0.2514,0.0,0.0,0.0,-0.2514,-0.2514,-0.2514,0.0,-0.2541,0.0,-0.2577,-0.2604,-0.2634,-0.2664,-0.2638,-0.2635,-0.2665,-0.2667,-0.2675,-0.2691,-0.2692,-0.2692,-0.2692,-0.2692,-0.2692,-0.2692,-0.2692,-0.2692,-0.2692,-0.2692,-0.2692,-0.2692,-0.2692,-0.2692,-0.2692,-0.2692,-0.2692,-0.2692,-0.2692,-0.2692,-0.2692,-0.2692,-0.2692,-0.2692,-0.2692,-0.2671,-0.2642,-0.2642,-0.2653,-0.2667,-0.2667,-0.2679,-0.2692,-0.2692,-0.2692,-0.2692,-0.2692,-0.2692,-0.2692,-0.2692,-0.2692,-0.2692,-0.2692,-0.2692,-0.2692,-0.2692,-0.2692,-0.2692,-0.2692,-0.2692,-0.2692,-0.2692,-0.2692,-0.2692,-0.2692,-0.2692,-0.2692,-0.2692,-0.2692,-0.2694,-0.2695,-0.2697,-0.1853,-0.0168,0.0,0.0,0.0,0.0,0.0,0.0,0.0,0.0,0.0,0.0,-0.0674,-0.2018,-0.2524,-0.2692,-0.2338,-0.2358,-0.238,-0.2388,-0.241,-0.2431,-0.2435,-0.2457,-0.2474,-0.2474,0.0,-0.2514,-0.2514,-0.2514,-0.2514,-0.2514,0.0,-0.2514,-0.2514,-0.2514,-0.2515,-0.2519,-0.2547,-0.2577,-0.2605,-0.2635,-0.2664,-0.269,-0.2668,-0.2664,-0.2691,-0.2692,-0.2692,-0.2692,-0.2692,-0.2692,-0.2692,-0.2692,-0.2692,-0.2692,-0.2692,-0.2692,-0.2692,-0.2692,-0.2692,-0.2692,-0.2692,-0.2692,-0.2692,-0.2692,-0.2692,-0.2692,-0.2692,-0.2692,-0.2692,-0.2692,-0.2692,-0.2692,-0.2692,-0.2692,-0.2692,-0.2692,-0.2692,-0.2692,-0.2692,-0.2692,-0.2692,-0.2692,-0.2692,-0.2692,-0.2692,-0.2692,-0.2692,-0.2692,-0.2692,-0.2692,-0.2692,-0.2692,-0.2692,-0.2692,-0.2692,-0.2692,-0.2692,-0.2692,-0.2692,-0.2692,-0.2692,-0.2694,-0.2698,-0.2695,-0.2692,-0.2692,-0.2524,-0.2525,-0.2358,-0.2358,-0.1685,-0.0168,0.0,0.0,0.0,0.0,0.0,0.0,0.0,0.0,0.0,0.0,-0.0505,-0.1346,-0.2188,-0.2692,-0.2364,-0.2373,-0.239,-0.244,-0.2457,-0.2467,-0.2492,-0.2503,0.0,0.0,-0.251,-0.2514,-0.2514,-0.2514,-0.2514,-0.2514,-0.2514,-0.2514,-0.2514,-0.2514,-0.2523,0.0,-0.2577,-0.2607,-0.2637,-0.2667,-0.2687,-0.2692,-0.2687,-0.2687,-0.2692,-0.2692,-0.2692,-0.2692,-0.2692,-0.2692,-0.2692,-0.2692,-0.2692,-0.2692,-0.2692,-0.2692,-0.2692,-0.2692,-0.2692,-0.2692,-0.2692,-0.2692,-0.2692,-0.2692,-0.2692,-0.2692,-0.2692,-0.2692,-0.2692,-0.2692,-0.2692,-0.2692,-0.2692,-0.2692,-0.2692,-0.2692,-0.2692,-0.2692,-0.2692,-0.2692,-0.2692,-0.2692,-0.2692,-0.2692,-0.2692,-0.2692,-0.2692,-0.2692,-0.2692,-0.2692,-0.2692,-0.2692,-0.2692,-0.2692,-0.2692,-0.2692,-0.2692,-0.2692,-0.2692,-0.2692,-0.2692,-0.2702,-0.2727,-0.2707,-0.2692,-0.2692,-0.2018,-0.1178,-0.0505,-0.0505,-0.0337,-0.0,0.0,0.0,0.0,0.0,0.0,0.0,0.0,0.0,0.0,0.0,-0.0505,-0.1346,-0.2188,-0.2692,-0.2226,-0.2401,-0.2432,-0.2462,-0.2481,-0.2496,-0.2511,0.0,0.0,0.0,-0.2514,-0.2514,-0.2514,-0.2514,0.0,-0.2514,-0.2514,-0.2514,-0.2514,-0.2514,-0.2526,-0.2556,-0.2585,-0.2613,-0.2645,-0.2675,-0.2692,-0.2692,-0.2692,-0.2692,-0.2692,-0.2692,-0.2692,-0.2692,-0.2692,-0.2692,-0.2692,-0.2692,-0.2692,-0.2692,-0.2692,-0.2692,-0.2692,-0.2692,-0.2692,-0.2692,-0.2692,-0.2692,-0.2692,-0.2692,-0.2692,-0.2694,-0.271,-0.2716,-0.2718,-0.2733,-0.274,-0.274,-0.274,-0.274,-0.274,-0.274,-0.2718,-0.2692,-0.2692,-0.2692,-0.2692,-0.2692,-0.2692,-0.2692,-0.2692,-0.2705,-0.2716,-0.2716,-0.2728,-0.274,-0.274,-0.274,-0.274,-0.274,-0.274,-0.274,-0.274,-0.274,-0.274,-0.274,-0.274,-0.2744,-0.2759,-0.2748,-0.274,-0.274,-0.2054,-0.1198,-0.0171,0.0,0.0,0.0,0.0,0.0,0.0,0.0,0.0,0.0,0.0,0.0,0.0,0.0,-0.0514,-0.137,-0.2397,-0.274,-0.2386,-0.2428,-0.247,-0.2477,-0.2496,-0.2514,-0.2514,-0.2514,0.0,-0.2514,-0.2514,-0.2514,-0.2514,0.0,-0.2514,0.0,-0.2514,-0.2514,-0.2514,-0.2519,-0.2536,0.0,-0.2594,0.0,-0.2653,-0.2679,-0.2692,-0.2692,-0.2692,-0.2692,-0.2692,-0.2692,-0.2692,-0.2692,-0.2692,-0.2692,-0.2692,-0.2692,-0.2692,-0.2692,-0.2692,-0.2692,-0.2692,-0.2692,-0.2697,-0.2702,-0.2702,-0.2706,-0.2712,-0.2712,-0.2712,-0.2714,-0.2739,-0.2747,-0.275,-0.2774,-0.2784,-0.2784,-0.2784,-0.2784,-0.2784,-0.2784,-0.2751,-0.2712,-0.2712,-0.2712,-0.2712,-0.2712,-0.2712,-0.2712,-0.2712,-0.2729,-0.2747,-0.2747,-0.2766,-0.2784,-0.2784,-0.2784,-0.2784,-0.2784,-0.2784,-0.2784,-0.2784,-0.2784,-0.2784,-0.2784,-0.2784,-0.2785,-0.2792,-0.2793,-0.2796,-0.2801,-0.2442,-0.1739,-0.0695,-0.0174,0.0,0.0,0.0,0.0,0.0,0.0,0.0,0.0,0.0,0.0,0.0,0.0,-0.0522,-0.1391,-0.2435,-0.2784,-0.2412,-0.2444,-0.2476,-0.2503,-0.2512,-0.2514,-0.2514,0.0,-0.2514,-0.2514,-0.2514,-0.2514,-0.2514,0.0,0.0,0.0,0.0,-0.2514,-0.2514,-0.2538,-0.2566,-0.2594,0.0,0.0,-0.2686,-0.2691,-0.2692,-0.2692,-0.2692,-0.2692,-0.2692,-0.2692,-0.2692,-0.2692,-0.2692,-0.2692,-0.2692,-0.2692,-0.2692,-0.2692,-0.2692,-0.2692,-0.2692,-0.2692,-0.2707,-0.2733,-0.2733,-0.275,-0.2774,-0.2774,-0.2774,-0.2776,-0.2778,-0.278,-0.278,-0.2782,-0.2784,-0.2784,-0.2784,-0.2784,-0.2784,-0.2784,-0.278,-0.2774,-0.2774,-0.2774,-0.2774,-0.2774,-0.2774,-0.2774,-0.2774,-0.2777,-0.278,-0.278,-0.2781,-0.2784,-0.2784,-0.2784,-0.2784,-0.2784,-0.2784,-0.2784,-0.2784,-0.2784,-0.2784,-0.2784,-0.2784,-0.2793,-0.2821,-0.2825,-0.2834,-0.2863,-0.2816,-0.2609,-0.2609,-0.1043,0.0,0.0,0.0,0.0,0.0,0.0,0.0,0.0,0.0,0.0,0.0,0.0,-0.0522,-0.1391,-0.2435,-0.2784,-0.242,-0.2459,-0.2499,-0.2511,-0.2514,-0.2514,-0.2514,0.0,-0.2514,-0.2514,-0.2514,-0.2514,-0.2514,-0.2514,0.0,0.0,0.0,0.0,-0.2514,-0.2541,-0.257,-0.2598,-0.2628,-0.2658,-0.269,-0.2692,-0.2692,-0.2692,-0.2692,-0.2692,-0.2692,-0.2692,-0.2692,-0.2692,-0.2692,-0.2692,-0.2692,-0.2692,-0.2692,-0.2692,-0.2712,-0.272,-0.272,-0.2739,-0.2754,-0.2765,-0.2765,-0.2772,-0.2784,-0.2784,-0.2784,-0.2785,-0.2803,-0.2811,-0.2812,-0.2831,-0.2838,-0.2838,-0.2838,-0.2838,-0.2838,-0.2838,-0.2838,-0.2831,-0.2795,-0.2784,-0.2784,-0.2784,-0.2784,-0.2784,-0.2784,-0.2797,-0.2815,-0.2833,-0.2838,-0.2838,-0.2838,-0.2838,-0.2838,-0.2838,-0.2838,-0.2838,-0.2838,-0.2838,-0.2838,-0.2838,-0.2838,-0.2842,-0.2855,-0.2856,-0.286,-0.2872,-0.2852,-0.2838,-0.2838,-0.1596,-0.053,-0.0,0.0,0.0,0.0,0.0,0.0,0.0,0.0,0.0,-0.0,-0.053,-0.1064,-0.1419,-0.2482,-0.2838,-0.2435,-0.2474,-0.2514,-0.2514,-0.2514,-0.2514,-0.2514,-0.2514,-0.2514,-0.2514,-0.2514,-0.2514,-0.2514,-0.2514,-0.2514,0.0,0.0,-0.2514,-0.2514,-0.2548,-0.2579,-0.26,0.0,-0.2669,-0.269,-0.2692,-0.2692,-0.2692,-0.2692,-0.2692,-0.2692,-0.2701,-0.2702,-0.2692,-0.2701,-0.2706,-0.2706,-0.2714,-0.272,-0.272,-0.2742,-0.2751,-0.2752,-0.2773,-0.2788,-0.2796,-0.2796,-0.2801,-0.281,-0.281,-0.281,-0.2812,-0.2833,-0.2842,-0.2845,-0.2866,-0.2874,-0.2874,-0.2874,-0.2874,-0.2874,-0.2874,-0.2874,-0.2866,-0.2823,-0.281,-0.281,-0.281,-0.281,-0.281,-0.281,-0.2826,-0.2848,-0.2868,-0.2874,-0.2874,-0.2874,-0.2874,-0.2874,-0.2874,-0.2874,-0.2874,-0.2874,-0.2874,-0.2874,-0.2874,-0.2874,-0.2874,-0.2874,-0.2874,-0.2874,-0.2874,-0.2874,-0.2874,-0.2874,-0.2335,-0.1253,-0.0,0.0,0.0,0.0,0.0,0.0,0.0,0.0,-0.0355,-0.0888,-0.1611,-0.1616,-0.1436,-0.2515,-0.2874,-0.2461,-0.2491,-0.2514,-0.2514,-0.2514,-0.2514,-0.2514,-0.2514,-0.2514,-0.2514,-0.2514,-0.2514,-0.2514,-0.2514,-0.2514,-0.2514,-0.2514,0.0,-0.2514,-0.2564,-0.2601,0.0,-0.2656,-0.2692,-0.2692,-0.2692,-0.2692,-0.2692,-0.2692,-0.2692,-0.2692,-0.2721,-0.2724,-0.2694,-0.2721,-0.2737,-0.2737,-0.2767,-0.2782,-0.2782,-0.2782,-0.2782,-0.2782,-0.2784,-0.28,-0.2829,-0.2829,-0.2845,-0.2872,-0.2872,-0.2872,-0.2872,-0.2874,-0.2874,-0.2874,-0.2874,-0.2874,-0.2874,-0.2874,-0.2874,-0.2874,-0.2874,-0.2874,-0.2874,-0.2874,-0.2872,-0.2872,-0.2872,-0.2872,-0.2872,-0.2872,-0.2874,-0.2874,-0.2874,-0.2874,-0.2874,-0.2874,-0.2874,-0.2874,-0.2874,-0.2874,-0.2874,-0.2874,-0.2874,-0.2874,-0.2874,-0.2874,-0.2874,-0.2874,-0.2874,-0.2874,-0.2874,-0.2874,-0.2874,-0.2874,-0.2874,-0.1976,-0.018,0.0,0.0,0.0,0.0,0.0,0.0,0.0,-0.0898,-0.2874,-0.2874,-0.2335,-0.1436,-0.2515,-0.2874,-0.2435,-0.2476,-0.2514,-0.2514,-0.2514,-0.2514,-0.2514,-0.2514,-0.2514,-0.2514,-0.2514,-0.2514,-0.2514,-0.2514,-0.2514,-0.2514,-0.2514,-0.2514,-0.2514,0.0,0.0,-0.2601,-0.2656,-0.2692,-0.2692,-0.2692,-0.2692,-0.2692,-0.2692,-0.2702,-0.2722,-0.2732,-0.2733,-0.2724,-0.2752,-0.2769,-0.2769,-0.2778,-0.2784,-0.2784,-0.2804,-0.2814,-0.2815,-0.2836,-0.2851,-0.286,-0.286,-0.2866,-0.2874,-0.2874,-0.2874,-0.2874,-0.2874,-0.2874,-0.2874,-0.2874,-0.2874,-0.2874,-0.2874,-0.2874,-0.2874,-0.2874,-0.2874,-0.2874,-0.2874,-0.2874,-0.2874,-0.2874,-0.2874,-0.2874,-0.2874,-0.2874,-0.2874,-0.2874,-0.2874,-0.2874,-0.2874,-0.2874,-0.2874,-0.2874,-0.2874,-0.2874,-0.2874,-0.2874,-0.2874,-0.2874,-0.2874,-0.2874,-0.2874,-0.2874,-0.2874,-0.2874,-0.2874,-0.2874,-0.2874,-0.2874,-0.2694,-0.1976,-0.0718,0.0,0.0,0.0,0.0,0.0,-0.1257,-0.2335,-0.2874,-0.2874,-0.2694,-0.2515,-0.2694,-0.2874,0.0,-0.2477,-0.2514,-0.2514,-0.2514,-0.2514,-0.2514,-0.2514,-0.2514,-0.2514,-0.2514,-0.2514,-0.2514,-0.2514,-0.2514,-0.2514,-0.2514,-0.2514,-0.2514,-0.2564,0.0,-0.2632,-0.2669,-0.2692,-0.2692,-0.2692,-0.2692,-0.2692,-0.2703,-0.2718,-0.2736,-0.2759,-0.2772,-0.2772,-0.2791,-0.28,-0.28,-0.2812,-0.2818,-0.2818,-0.2837,-0.2845,-0.2846,-0.2866,-0.2874,-0.2874,-0.2874,-0.2874,0.0,-0.2874,-0.2874,-0.2874,-0.2874,-0.2874,-0.2874,-0.2874,-0.2874,-0.2874,-0.2874,-0.2874,-0.2874,-0.2874,-0.2874,-0.2874,-0.2874,-0.2874,-0.2874,-0.2874,-0.2874,-0.2874,-0.2874,-0.2874,-0.2874,-0.2874,-0.2874,-0.2874,-0.2874,-0.2874,-0.2874,-0.2874,-0.2874,-0.2874,-0.2874,-0.2874,-0.2874,-0.2874,-0.2874,-0.2874,-0.2874,-0.2874,-0.2874,-0.2874,-0.2874,-0.2874,-0.2874,-0.2874,-0.2874,-0.2874,-0.1795,-0.0898,-0.0539,-0.0539,-0.0539,-0.0539,-0.1795,-0.2335,-0.2335,-0.2694,-0.2874,-0.2874,-0.2874,-0.2874,0.0,-0.2489,-0.2514,-0.2514,-0.2514,-0.2514,-0.2514,-0.2514,0.0,-0.2514,-0.2514,-0.2514,-0.2514,-0.2514,-0.2514,-0.2514,-0.2514,-0.2514,-0.2514,-0.2564,0.0,-0.2686,-0.2692,-0.2692,-0.2692,-0.2692,-0.2694,-0.2695,-0.2721,-0.274,-0.2744,-0.2797,-0.283,-0.2831,-0.2831,-0.2831,-0.2831,-0.286,-0.2874,-0.2874,-0.2874,-0.2874,-0.2874,-0.2874,-0.2874,-0.2874,-0.2874,-0.2874,-0.2874,-0.2874,-0.2874,-0.2874,-0.2874,-0.2874,-0.2874,-0.2874,-0.2874,-0.2874,-0.2874,-0.2874,-0.2874,-0.2874,-0.2874,-0.2874,-0.2874,-0.2874,-0.2874,-0.2874,-0.2874,-0.2874,-0.2874,-0.2874,-0.2874,-0.2874,-0.2874,-0.2874,-0.2874,-0.2874,-0.2874,-0.2874,-0.2874,-0.2874,-0.2874,-0.2874,-0.2874,-0.2874,-0.2874,-0.2874,-0.2874,-0.2874,-0.2874,-0.2874,-0.2874,-0.2874,-0.2874,-0.2874,-0.2874,-0.2874,-0.2874,-0.2515,-0.1616,-0.1436,-0.1436,-0.1436,-0.1436,-0.1436,-0.1436,-0.2515,-0.2874,-0.2874,-0.2874,-0.2874,-0.2432,0.0,-0.2514,-0.2514,-0.2514,-0.2514,0.0,-0.2514,0.0,0.0,0.0,-0.2514,-0.2514,-0.2514,-0.2514,-0.2514,-0.2514,-0.2514,-0.2514,-0.2564,-0.2624,-0.2686,-0.2692,-0.2692,-0.2692,-0.2692,-0.2702,-0.2725,-0.2733,-0.2758,-0.2804,-0.2821,-0.284,-0.2863,-0.2863,-0.2863,-0.2863,-0.2871,-0.2874,-0.2874,-0.2874,-0.2874,-0.2874,-0.2874,-0.2874,-0.2874,-0.2874,-0.2874,-0.2874,-0.2874,-0.2874,-0.2874,-0.2874,-0.2874,-0.2874,-0.2874,-0.2874,-0.2874,-0.2874,-0.2874,-0.2874,-0.2874,-0.2874,-0.2874,-0.2874,-0.2874,-0.2874,-0.2874,-0.2874,-0.2874,-0.2874,-0.2874,-0.2874,-0.2874,-0.2874,-0.2874,-0.2874,-0.2874,-0.2874,-0.2874,-0.2874,-0.2874,-0.2874,-0.2874,-0.2874,-0.2874,-0.2874,-0.2874,-0.2874,-0.2874,-0.2874,-0.2874,-0.2874,-0.2874,-0.2874,-0.2874,-0.2874,-0.2874,-0.2874,-0.2874,-0.2515,-0.2515,-0.2515,-0.2515,-0.2515,-0.2515,-0.2515,-0.2874,-0.2874,-0.2874,-0.2874,-0.2874,-0.2424,-0.2467,-0.2514,-0.2514,-0.2514,-0.2514,0.0,0.0,0.0,0.0,0.0,-0.2514,-0.2514,-0.2514,-0.2514,-0.2514,-0.2514,-0.2523,-0.2551,-0.2582,-0.2624,-0.2686,-0.2692,-0.2692,-0.2692,-0.2705,-0.272,-0.2736,-0.2763,-0.2793,-0.2827,-0.2842,-0.2857,-0.2874,-0.2874,-0.2874,-0.2874,-0.2874,-0.2874,-0.2874,-0.2874,-0.2874,-0.2874,-0.2874,-0.2874,-0.2874,-0.2874,-0.2874,-0.2874,-0.2874,-0.2874,-0.2874,-0.2874,-0.2874,-0.2874,-0.2874,-0.2874,-0.2874,-0.2874,-0.2874,-0.2874,-0.2874,-0.2874,-0.2874,-0.2874,-0.2874,-0.2874,-0.2874,-0.2874,-0.2874,-0.2874,-0.2874,-0.2874,-0.2874,-0.2874,-0.2874,-0.2874,-0.2874,-0.2874,-0.2874,-0.2874,-0.2874,-0.2874,-0.2874,-0.2874,-0.2874,-0.2874,-0.2874,-0.2874,-0.2874,-0.2874,-0.2874,-0.2874,-0.2874,-0.2874,-0.2874,-0.2874,-0.2874,-0.2874,-0.2874,-0.2874,-0.2874,-0.2874,-0.2874,-0.2874,-0.2874,-0.2874,-0.2874,-0.2874,-0.2874,-0.2874,-0.2874,-0.2424,-0.2467,-0.2514,-0.2514,-0.2514,-0.2514,0.0,0.0,0.0,0.0,0.0,0.0,0.0,-0.2514,0.0,-0.2514,-0.2518,-0.254,-0.2594,-0.2605,-0.263,-0.2686,-0.2692,-0.2692,-0.2692,-0.272,-0.274,-0.2744,-0.2797,-0.283,-0.2836,-0.286,-0.2874,-0.2874,-0.2874,-0.2874,-0.2874,-0.2874,-0.2874,-0.2874,-0.2874,-0.2874,-0.2874,-0.2874,-0.2874,-0.2874,-0.2874,-0.2874,-0.2874,-0.2874,-0.2874,-0.2874,-0.2874,-0.2874,-0.2874,-0.2874,-0.2874,-0.2874,-0.2874,-0.2874,-0.2874,-0.2874,-0.2874,-0.2874,-0.2874,-0.2874,-0.2874,-0.2874,-0.2874,-0.2874,-0.2874,-0.2874,-0.2874,-0.2874,-0.2874,-0.2874,-0.2874,-0.2874,-0.2874,-0.2874,-0.2874,-0.2874,-0.2874,-0.2874,-0.2874,-0.2874,-0.2874,-0.2874,-0.2874,-0.2874,-0.2874,-0.2874,-0.2874,-0.2874,-0.2874,-0.2874,-0.2874,-0.2874,-0.2874,-0.2874,-0.2874,-0.2874,-0.2874,-0.2874,-0.2874,-0.2874,-0.2874,-0.2874,-0.2874,-0.2874,-0.2874,-0.2874,-0.2424,-0.2467,-0.2514,-0.2514,-0.2514,-0.2514,0.0,0.0,0.0,0.0,0.0,0.0,0.0,-0.2514,-0.2514,0.0,-0.2536,-0.2564,-0.2597,-0.2624,-0.2653,-0.2688,-0.2692,-0.2692,-0.2692,-0.272,-0.2748,-0.2774,-0.2808,-0.284,-0.2866,-0.2871,-0.2874,-0.2874,-0.2874,-0.2874,-0.2874,-0.2874,-0.2874,-0.2874,-0.2874,-0.2874,-0.2874,-0.2874,-0.2874,-0.2874,-0.2874,-0.2874,-0.2874,-0.2874,-0.2874,-0.2874,-0.2874,-0.2874,-0.2874,-0.2874,-0.2874,-0.2874,-0.2874,-0.2874,-0.2874,-0.2874,-0.2874,-0.2874,-0.2874,-0.2874,-0.2874,-0.2874,-0.2874,-0.2874,-0.2874,-0.2874,-0.2874,-0.2874,-0.2874,-0.2874,-0.2874,-0.2874,-0.2874,-0.2874,-0.2874,-0.2874,-0.2874,-0.2874,-0.2874,-0.2874,-0.2874,-0.2874,-0.2874,-0.2874,-0.2874,-0.2874,-0.2874,-0.2874,-0.2874,-0.2874,-0.2874,-0.2874,-0.2874,-0.2874,-0.2874,-0.2874,-0.2874,-0.2874,-0.2874,-0.2874,-0.2874,-0.2874,-0.2874,-0.2874,-0.2874,-0.2874,-0.2424,-0.2467,-0.2514,-0.2514,-0.2514,0.0,0.0,0.0,0.0,0.0,0.0,0.0,0.0,0.0,-0.2514,-0.2514,-0.254,-0.257,-0.2598,-0.2628,-0.2658,-0.2688,-0.2692,-0.2699,-0.2716,-0.2744,-0.2774,-0.2806,-0.2836,-0.2859,-0.2874,-0.2874,-0.2874,-0.2874,-0.2874,-0.2874,-0.2874,-0.2874,-0.2874,-0.2874,-0.2874,-0.2874,-0.2874,-0.2874,-0.2874,-0.2874,-0.2874,-0.2874,-0.2874,-0.2874,-0.2874,-0.2874,-0.2874,-0.2874,-0.2874,-0.2874,-0.2874,-0.2874,-0.2874,-0.2874,-0.2874,-0.2874,-0.2874,-0.2874,-0.2874,-0.2874,-0.2874,-0.2874,-0.2874,-0.2874,-0.2874,-0.2874,-0.2874,-0.2874,-0.2874,-0.2874,-0.2874,-0.2874,-0.2874,-0.2874,-0.2874,-0.2874,-0.2874,-0.2874,-0.2874,-0.2874,-0.2874,-0.2874,-0.2874,-0.2874,-0.2874,-0.2874,-0.2874,-0.2874,-0.2874,-0.2874,-0.2874,-0.2874,-0.2874,-0.2874,-0.2874,-0.2874,-0.2874,-0.2874,-0.2874,-0.2874,-0.2874,-0.2874,-0.2874,-0.2874,-0.2874,-0.2874,-0.2432,-0.2473,-0.2514,-0.2514,0.0,0.0,0.0,0.0,0.0,0.0,0.0,0.0,0.0,-0.2514,0.0,-0.2514,-0.2545,-0.2577,-0.2598,-0.2634,-0.2667,-0.269,-0.2692,-0.2705,-0.2735,-0.2765,-0.2796,-0.2826,-0.2857,-0.2874,-0.2874,-0.2874,-0.2874,-0.2874,-0.2874,-0.2874,-0.2874,-0.2874,-0.2874,-0.2874,-0.2874,-0.2874,-0.2874,-0.2874,-0.2874,-0.2874,-0.2874,-0.2874,-0.2874,-0.2874,-0.2874,-0.2874,-0.2874,-0.2874,-0.2874,-0.2874,-0.2874,-0.2874,-0.2874,-0.2874,-0.2874,-0.2874,-0.2874,-0.2874,-0.2874,-0.2874,-0.2874,-0.2874,-0.2874,-0.2874,-0.2874,-0.2874,-0.2874,-0.2874,-0.2874,-0.2874,-0.2874,-0.2874,-0.2874,-0.2874,-0.2874,-0.2874,-0.2874,-0.2874,-0.2874,-0.2874,-0.2874,-0.2874,-0.2874,-0.2874,-0.2874,-0.2874,-0.2874,-0.2874,-0.2874,-0.2874,-0.2874,-0.2874,-0.2874,-0.2874,-0.2874,-0.2874,-0.2874,-0.2874,-0.2874,-0.2874,-0.2874,-0.2874,-0.2874,-0.2874,-0.2874,-0.2874,-0.2458,-0.2489,-0.2514,-0.2514,0.0,0.0,0.0,0.0,0.0,0.0,0.0,0.0,0.0,-0.2514,-0.2514,-0.2514,-0.2562,-0.26,-0.2601,-0.2653,-0.269,-0.2692,-0.2692,-0.2705,-0.2735,-0.2765,-0.2796,-0.2826,-0.2857,-0.2874,-0.2874,-0.2874,-0.2874,-0.2874,-0.2874,-0.2874,-0.2874,-0.2874,-0.2874,-0.2874,-0.2874,-0.2874,-0.2874,-0.2874,-0.2874,-0.2874,-0.2874,-0.2874,-0.2874,-0.2874,-0.2874,-0.2874,-0.2874,-0.2874,-0.2874,-0.2874,-0.2874,-0.2874,-0.2874,-0.2874,-0.2874,-0.2874,-0.2874,-0.2874,-0.2874,-0.2874,-0.2874,-0.2874,-0.2874,-0.2874,-0.2874,-0.2874,-0.2874,-0.2874,-0.2874,-0.2874,-0.2874,-0.2874,-0.2874,-0.2874,-0.2874,-0.2874,-0.2874,-0.2874,-0.2874,-0.2874,-0.2874,-0.2874,-0.2874,-0.2874,-0.2874,-0.2874,-0.2874,-0.2874,-0.2874,-0.2874,-0.2874,-0.2874,-0.2874,-0.2874,-0.2874,-0.2874,-0.2874,-0.2874,-0.2874,-0.2874,-0.2874,-0.2874,-0.2874,-0.2874,-0.2874,-0.2874,-0.2461,-0.2491,-0.2514,-0.2514,0.0,0.0,0.0,0.0,0.0,0.0,0.0,0.0,0.0,0.0,-0.2521,-0.254,-0.2575,-0.2608,-0.2627,-0.2665,-0.2692,-0.2692,-0.2709,-0.2732,-0.2763,-0.2793,-0.2825,-0.2855,-0.2867,-0.2874,-0.2874,-0.2874,-0.2874,-0.2874,-0.2874,-0.2874,-0.2874,-0.2874,-0.2874,-0.2874,-0.2874,-0.2874,-0.2874,-0.2874,-0.2874,-0.2874,-0.2874,-0.2874,-0.2874,-0.2874,-0.2874,-0.2874,-0.2874,-0.2874,-0.2874,-0.2874,-0.2874,-0.2874,-0.2874,-0.2874,-0.2874,-0.2874,-0.2874,-0.2874,-0.2874,-0.2874,-0.2874,-0.2874,-0.2874,-0.2874,-0.2874,-0.2874,-0.2874,-0.2874,-0.2874,-0.2874,-0.2874,-0.2874,-0.2874,-0.2874,-0.2874,-0.2874,-0.2874,-0.2874,-0.2874,-0.2874,-0.2874,-0.2874,-0.2874,-0.2874,-0.2874,-0.2874,-0.2874,-0.2874,-0.2874,-0.2874,-0.2874,-0.2874,-0.2874,-0.2874,-0.2874,-0.2874,-0.2874,-0.2874,-0.2874,-0.2874,-0.2874,-0.2874,-0.2874,-0.2874,-0.2874,-0.2874,-0.2473,-0.2499,-0.2514,-0.2514,0.0,0.0,0.0,0.0,0.0,0.0,0.0,0.0,0.0,0.0,0.0,-0.2556,-0.2592,-0.2623,-0.2645,-0.2673,-0.2692,-0.2692,-0.272,-0.275,-0.2781,-0.2811,-0.2841,-0.2871,-0.2874,-0.2874,-0.2874,-0.2874,-0.2874,-0.2874,-0.2874,-0.2874,-0.2874,-0.2874,-0.2874,-0.2874,-0.2874,-0.2874,-0.2874,-0.2874,-0.2874,-0.2874,-0.2874,-0.2874,-0.2874,-0.2874,-0.2874,-0.2874,-0.2874,-0.2874,-0.2874,-0.2874,-0.2874,-0.2874,-0.2874,-0.2874,-0.2874,-0.2874,-0.2874,-0.2874,-0.2874,-0.2874,-0.2874,-0.2874,-0.2874,-0.2874,-0.2874,-0.2874,-0.2874,-0.2874,-0.2874,-0.2874,-0.2874,-0.2874,-0.2874,-0.2874,-0.2874,-0.2874,-0.2874,-0.2874,-0.2874,-0.2874,-0.2874,-0.2874,-0.2874,-0.2874,-0.2874,-0.2874,-0.2874,-0.2874,-0.2874,-0.2874,-0.2874,-0.2874,-0.2874,-0.2874,-0.2874,-0.2874,-0.2874,-0.2874,-0.2874,-0.2874,-0.2874,-0.2874,-0.2874,-0.2874,-0.2874,-0.2874,-0.2497,-0.2514,-0.2514,-0.2514,0.0,0.0,0.0,0.0,0.0,0.0,0.0,0.0,-0.2515,0.0,0.0,-0.256,-0.2609,-0.2647,-0.2647,-0.2673,-0.2692,-0.2692,-0.272,-0.275,-0.2781,-0.2811,-0.2841,-0.2872,-0.2874,-0.2874,-0.2874,-0.2874,-0.2874,-0.2874,-0.2874,-0.2874,-0.2874,-0.2874,-0.2874,-0.2874,-0.2874,-0.2874,-0.2874,-0.2874,-0.2874,-0.2874,-0.2874,-0.2874,-0.2874,-0.2874,-0.2874,-0.2874,-0.2874,-0.2874,-0.2874,-0.2874,-0.2874,-0.2874,-0.2874,-0.2874,-0.2874,-0.2874,-0.2874,-0.2874,-0.2874,-0.2874,-0.2874,-0.2874,-0.2874,-0.2874,-0.2874,-0.2874,-0.2874,-0.2874,-0.2874,-0.2874,-0.2874,-0.2874,-0.2874,-0.2874,-0.2874,-0.2874,-0.2874,-0.2874,-0.2874,-0.2874,-0.2874,-0.2874,-0.2874,-0.2874,-0.2874,-0.2874,-0.2874,-0.2874,-0.2874,-0.2874,-0.2874,-0.2874,-0.2874,-0.2874,-0.2874,-0.2874,-0.2874,-0.2874,-0.2874,-0.2874,-0.2874,-0.2874,-0.2874,-0.2874,-0.2874,-0.2874,-0.2503,-0.2514,0.0,-0.2514,0.0,0.0,0.0,0.0,0.0,0.0,0.0,-0.2521,-0.2542,-0.2553,0.0,-0.2615,-0.2635,-0.2654,-0.2676,-0.2687,-0.2692,-0.2692,-0.2739,-0.2773,-0.2782,-0.283,-0.2864,-0.2874,-0.2874,-0.2874,-0.2874,-0.2874,-0.2874,-0.2874,-0.2874,-0.2874,-0.2874,-0.2874,-0.2874,-0.2874,-0.2874,-0.2874,-0.2874,-0.2874,-0.2874,-0.2874,-0.2874,-0.2874,-0.2874,-0.2874,-0.2874,-0.2874,-0.2874,-0.2874,-0.2874,-0.2874,-0.2874,-0.2874,-0.2874,-0.2874,-0.2874,-0.2874,-0.2874,-0.2874,-0.2874,-0.2874,-0.2874,-0.2874,-0.2874,-0.2874,-0.2874,-0.2874,-0.2874,-0.2874,-0.2874,-0.2874,-0.2874,-0.2874,-0.2874,-0.2874,-0.2874,-0.2874,-0.2874,-0.2874,-0.2874,-0.2874,-0.2874,-0.2874,-0.2874,-0.2874,-0.2874,-0.2874,-0.2874,-0.2874,-0.2874,-0.2874,-0.2874,-0.2874,-0.2874,-0.2874,-0.2874,-0.2874,-0.2874,-0.2874,-0.2874,-0.2874,-0.2874,-0.2874,-0.2874,-0.2874,-0.2874,-0.2874,-0.2506,-0.2514,0.0,-0.2514,-0.2514,-0.2514,-0.2514,0.0,0.0,0.0,0.0,-0.2523,-0.2555,-0.2568,-0.2592,-0.2639,-0.2657,-0.2672,-0.269,-0.2692,-0.2697,-0.2709,-0.2754,-0.2788,-0.28,-0.2845,-0.2874,-0.2874,-0.2874,-0.2874,-0.2874,-0.2874,-0.2874,-0.2874,-0.2874,-0.2874,-0.2874,-0.2874,-0.2874,-0.2874,-0.2874,-0.2874,-0.2874,-0.2874,-0.2874,-0.2874,-0.2874,-0.2874,-0.2874,-0.2874,-0.2874,-0.2874,-0.2874,-0.2874,-0.2874,-0.2874,-0.2874,-0.2874,-0.2874,-0.2874,-0.2874,-0.2874,-0.2874,-0.2874,-0.2874,-0.2874,-0.2874,-0.2874,-0.2874,-0.2874,-0.2874,-0.2874,-0.2874,-0.2874,-0.2874,-0.2874,-0.2874,-0.2874,-0.2874,-0.2874,-0.2874,-0.2874,-0.2874,-0.2874,-0.2874,-0.2874,-0.2874,-0.2874,-0.2874,-0.2874,-0.2874,-0.2874,-0.2874,-0.2874,-0.2874,-0.2874,-0.2874,-0.2874,-0.2874,-0.2874,-0.2874,-0.2874,-0.2874,-0.2874,-0.2874,-0.2874,-0.2874,-0.2874,-0.2874,-0.2874,-0.2886,-0.289,-0.2507,0.0,0.0,-0.2514,-0.2514,0.0,-0.2514,-0.2514,-0.2514,-0.2514,0.0,-0.2527,-0.2557,-0.2586,-0.2616,-0.2646,-0.2675,-0.2692,-0.2692,-0.2692,-0.2703,-0.2735,-0.2765,-0.2795,-0.2826,-0.2856,-0.2874,-0.2874,-0.2874,-0.2874,-0.2874,-0.2874,-0.2874,-0.2874,-0.2874,-0.2874,-0.2874,-0.2874,-0.2874,-0.2874,-0.2874,-0.2874,-0.2874,-0.2874,-0.2874,-0.2874,-0.2874,-0.2874,-0.2874,-0.2874,-0.2874,-0.2874,-0.2874,-0.2874,-0.2874,-0.2874,-0.2874,-0.2874,-0.2874,-0.2874,-0.2874,-0.2874,-0.2874,-0.2874,-0.2874,-0.2874,-0.2874,-0.2874,-0.2874,-0.2874,-0.2874,-0.2874,-0.2874,-0.2874,-0.2874,-0.2874,-0.2874,-0.2874,-0.2874,-0.2874,-0.2874,-0.2874,-0.2874,-0.2874,-0.2874,-0.2874,-0.2874,-0.2874,-0.2874,-0.2874,-0.2874,-0.2874,-0.2874,-0.2874,-0.2874,-0.2874,-0.2874,-0.2874,-0.2874,-0.2874,-0.2874,-0.2874,-0.2874,-0.2874,-0.2874,-0.2874,-0.2874,-0.2876,-0.2878,-0.2879,-0.2906,-0.292,-0.2512,-0.2514,0.0,0.0,-0.2514,-0.2514,-0.2514,-0.2514,-0.2514,-0.2514,-0.2533,-0.2559,-0.2587,-0.2617,-0.2647,-0.2677,-0.2688,-0.2692,-0.2692,-0.2692,-0.2703,-0.2735,-0.2765,-0.2795,-0.2826,-0.2856,-0.2874,-0.2874,-0.2874,-0.2874,-0.2874,-0.2874,-0.2874,-0.2874,-0.2874,-0.2874,-0.2874,-0.2874,-0.2874,-0.2874,-0.2874,-0.2874,-0.2874,-0.2874,-0.2874,-0.2874,-0.2874,-0.2874,-0.2874,-0.2874,-0.2874,-0.2874,-0.2874,-0.2874,-0.2874,-0.2874,-0.2874,-0.2874,-0.2874,-0.2874,-0.2874,-0.2874,-0.2874,-0.2874,-0.2874,-0.2874,-0.2874,-0.2874,-0.2874,-0.2874,-0.2874,-0.2874,-0.2874,-0.2874,-0.2874,-0.2874,-0.2874,-0.2874,-0.2874,-0.2874,-0.2874,-0.2874,-0.2874,-0.2874,-0.2874,-0.2874,-0.2874,-0.2874,-0.2874,-0.2874,-0.2874,-0.2874,-0.2874,-0.2874,-0.2874,-0.2874,-0.2874,-0.2874,-0.2874,-0.2874,-0.2874,-0.2874,-0.2874,-0.2874,-0.2874,-0.2874,-0.2874,-0.2896,-0.2906,-0.2908,-0.2938,-0.2951,-0.2514,0.0,0.0,-0.2514,0.0,-0.2514,-0.2514,-0.2514,-0.2514,-0.2514,-0.2538,-0.2568,-0.2597,-0.2627,-0.2657,-0.2687,-0.2692,-0.2692,-0.2692,-0.2692,-0.2709,-0.2754,-0.2773,-0.2801,-0.2846,-0.2864,-0.2874,-0.2874,-0.2874,-0.2874,-0.2874,-0.2874,-0.2874,-0.2874,-0.2874,-0.2874,-0.2874,-0.2874,-0.2874,-0.2874,-0.2874,-0.2874,-0.2874,-0.2874,-0.2874,-0.2874,-0.2874,-0.2874,-0.2874,-0.2874,-0.2874,-0.2874,-0.2874,-0.2874,-0.2874,-0.2874,-0.2874,-0.2874,-0.2874,-0.2874,-0.2874,-0.2874,-0.2874,-0.2874,-0.2874,-0.2874,-0.2874,-0.2874,-0.2874,-0.2874,-0.2874,-0.2874,-0.2874,-0.2874,-0.2874,-0.2874,-0.2874,-0.2874,-0.2874,-0.2874,-0.2874,-0.2874,-0.2874,-0.2874,-0.2874,-0.2874,-0.2874,-0.2874,-0.2874,-0.2874,-0.2874,-0.2874,-0.2874,-0.2874,-0.2874,-0.2874,-0.2874,-0.2874,-0.2874,-0.2874,-0.2874,-0.2887,-0.2887,-0.2874,-0.2887,-0.2894,-0.2894,-0.2923,-0.2938,-0.2938,-0.2969,-0.2983,-0.2514,0.0,-0.2514,-0.2514,-0.2514,0.0,-0.2514,-0.2514,-0.2515,-0.2521,-0.2547,-0.2574,-0.2597,-0.2631,-0.2662,-0.2688,-0.2692,-0.2692,-0.2692,-0.2692,-0.2716,-0.2776,-0.2784,-0.2807,-0.2868,-0.2874,-0.2874,-0.2874,-0.2874,-0.2874,-0.2874,-0.2874,-0.2874,-0.2874,-0.2874,-0.2874,-0.2874,-0.2874,-0.2874,-0.2874,-0.2874,-0.2874,-0.2874,-0.2874,-0.2874,-0.2874,-0.2874,-0.2874,-0.2874,-0.2874,-0.2874,-0.2874,-0.2874,-0.2874,-0.2874,-0.2874,-0.2874,-0.2874,-0.2874,-0.2874,-0.2874,-0.2874,-0.2874,-0.2874,-0.2874,-0.2874,-0.2874,-0.2874,-0.2874,-0.2874,-0.2874,-0.2874,-0.2874,-0.2874,-0.2874,-0.2874,-0.2874,-0.2874,-0.2874,-0.2874,-0.2874,-0.2874,-0.2874,-0.2874,-0.2874,-0.2874,-0.2874,-0.2874,-0.2874,-0.2874,-0.2874,-0.2874,-0.2874,-0.2874,-0.2874,-0.2874,-0.2874,-0.2874,-0.2879,-0.2882,-0.2882,-0.2909,-0.2913,-0.2889,-0.2912,-0.2924,-0.2924,-0.2954,-0.2969,-0.2971,-0.3001,-0.3014,0.0,0.0,-0.2514,0.0,-0.2514,-0.2514,0.0,0.0,-0.2522,-0.2548,-0.2577,-0.2597,-0.2601,-0.2647,-0.2687,-0.2691,-0.2692,-0.2692,-0.2692,-0.2692,-0.2716,-0.2776,-0.2784,-0.2807,-0.2868,-0.2874,-0.2874,-0.2874,-0.2874,-0.2874,-0.2874,-0.2874,-0.2874,-0.2874,-0.2874,-0.2874,-0.2874,-0.2874,-0.2874,-0.2874,-0.2874,-0.2874,-0.2874,-0.2874,-0.2874,-0.2874,-0.2874,-0.2874,-0.2874,-0.2874,-0.2874,-0.2874,-0.2874,-0.2874,-0.2874,-0.2874,-0.2874,-0.2874,-0.2874,-0.2874,-0.2874,-0.2874,-0.2874,-0.2874,-0.2874,-0.2874,-0.2874,-0.2874,-0.2874,-0.2874,-0.2874,-0.2874,-0.2874,-0.2874,-0.2874,-0.2874,-0.2874,-0.2874,-0.2874,-0.2874,-0.2874,-0.2874,-0.2874,-0.2874,-0.2874,-0.2874,-0.2874,-0.2874,-0.2874,-0.2874,-0.2874,-0.2874,-0.2874,-0.2874,-0.2874,-0.2874,-0.2874,-0.2874,-0.2897,-0.2911,-0.2911,-0.2939,-0.2954,-0.295,-0.2953,-0.2956,-0.2956,-0.2986,-0.3001,-0.3002,-0.3032,-0.3046,-0.2514,-0.2514,-0.2514,0.0,-0.2514,-0.2514,-0.2514,-0.2514,-0.2523,-0.2553,-0.2582,-0.2607,-0.2624,-0.2662,-0.2692,-0.2692,-0.2692,-0.2692,-0.2692,-0.2692,-0.2716,-0.2776,-0.2784,-0.2807,-0.2868,-0.2874,-0.2874,-0.2874,-0.2874,-0.2874,-0.2874,-0.2874,-0.2874,-0.2874,-0.2874,-0.2874,-0.2874,-0.2874,-0.2874,-0.2874,-0.2874,-0.2874,-0.2874,-0.2874,-0.2874,-0.2874,-0.2874,-0.2874,-0.2874,-0.2874,-0.2874,-0.2874,-0.2874,-0.2874,-0.2874,-0.2874,-0.2874,-0.2874,-0.2874,-0.2874,-0.2874,-0.2874,-0.2874,-0.2874,-0.2874,-0.2874,-0.2874,-0.2874,-0.2874,-0.2874,-0.2874,-0.2874,-0.2874,-0.2874,-0.2874,-0.2874,-0.2874,-0.2874,-0.2874,-0.2874,-0.2874,-0.2874,-0.2874,-0.2874,-0.2874,-0.2874,-0.2874,-0.2874,-0.2874,-0.2874,-0.2874,-0.2874,-0.2874,-0.2874,-0.2874,-0.2889,-0.2897,-0.2897,-0.2926,-0.2942,-0.2942,-0.2971,-0.2987,-0.2987,-0.2987,-0.2987,-0.2987,-0.3017,-0.3032,-0.3032,-0.3046,-0.3052,0.0,0.0,-0.2514,-0.2514,-0.2514,-0.2514,0.0,-0.2514,-0.2523,-0.2553,-0.2582,-0.2611,-0.2642,-0.2672,-0.2692,-0.2692,-0.2692,-0.2692,-0.2692,-0.2692,-0.2716,-0.2776,-0.2784,-0.2807,-0.2868,-0.2874,-0.2874,-0.2874,-0.2874,-0.2874,-0.2874,-0.2874,-0.2874,-0.2874,-0.2874,-0.2874,-0.2874,-0.2874,-0.2874,-0.2874,-0.2874,-0.2874,-0.2874,-0.2874,-0.2874,-0.2874,-0.2874,-0.2874,-0.2874,-0.2874,-0.2874,-0.2874,-0.2874,-0.2874,-0.2874,-0.2874,-0.2874,-0.2874,-0.2874,-0.2874,-0.2874,-0.2874,-0.2874,-0.2874,-0.2874,-0.2874,-0.2874,-0.2874,-0.2874,-0.2874,-0.2874,-0.2874,-0.2874,-0.2874,-0.2874,-0.2874,-0.2874,-0.2874,-0.2874,-0.2874,-0.2874,-0.2874,-0.2874,-0.2874,-0.2874,-0.2874,-0.2874,-0.2874,-0.2874,-0.2874,-0.2874,-0.2874,-0.2874,-0.2876,-0.2885,-0.2904,-0.2919,-0.2927,-0.2956,-0.2973,-0.2973,-0.3002,-0.3018,-0.3018,-0.3018,-0.3018,-0.3018,-0.3041,-0.3052,-0.3052,-0.3052,-0.3052,0.0,-0.2514,0.0,-0.2514,-0.2514,-0.2514,-0.2514,-0.2514,-0.2523,-0.2553,-0.2582,-0.2611,-0.2642,-0.2672,-0.2692,-0.2692,-0.2692,-0.2692,-0.2692,-0.2692,-0.2716,-0.2776,-0.2784,-0.2807,-0.2868,-0.2874,-0.2874,-0.2874,-0.2874,-0.2874,-0.2874,-0.2874,-0.2874,-0.2874,-0.2874,-0.2874,-0.2874,-0.2874,-0.2874,-0.2874,-0.2874,-0.2874,-0.2874,-0.2874,-0.2874,-0.2874,-0.2874,-0.2874,-0.2874,-0.2874,-0.2874,-0.2874,-0.2874,-0.2874,-0.2874,-0.2874,-0.2874,-0.2874,-0.2874,-0.2874,-0.2874,-0.2874,-0.2874,-0.2874,-0.2874,-0.2874,-0.2874,-0.2874,-0.2874,-0.2874,-0.2874,-0.2874,-0.2874,-0.2874,-0.2874,-0.2874,-0.2874,-0.2874,-0.2874,-0.2874,-0.2874,-0.2874,-0.2874,-0.2874,-0.2874,-0.2874,-0.2874,-0.2874,-0.2874,-0.2874,-0.2874,-0.2874,-0.2874,-0.2885,-0.2912,-0.2915,-0.2928,-0.2957,-0.2987,-0.3005,-0.3005,-0.3033,-0.305,-0.305,-0.305,-0.305,-0.305,-0.3051,-0.3052,-0.3052,-0.3052,-0.3052,0.0,0.0,0.0,-0.2514,-0.2514,-0.2514,-0.2514,-0.2514,-0.2523,-0.2553,-0.2582,-0.2611,-0.2642,-0.2672,-0.2692,-0.2692,-0.2692,-0.2692,-0.2692,-0.2692,-0.2716,-0.2776,-0.2784,-0.2807,-0.2868,-0.2874,-0.2874,-0.2874,-0.2874,-0.2874,-0.2874,-0.2874,-0.2874,-0.2874,-0.2874,-0.2874,-0.2874,-0.2874,-0.2874,-0.2874,-0.2874,-0.2874,-0.2874,-0.2874,-0.2874,-0.2874,-0.2874,-0.2874,-0.2874,-0.2874,-0.2874,-0.2874,-0.2874,-0.2874,-0.2874,-0.2874,-0.2874,-0.2874,-0.2874,-0.2874,-0.2874,-0.2874,-0.2874,-0.2874,-0.2874,-0.2874,-0.2874,-0.2874,-0.2874,-0.2874,-0.2874,-0.2874,-0.2874,-0.2874,-0.2874,-0.2874,-0.2874,-0.2874,-0.2874,-0.2874,-0.2874,-0.2874,-0.2874,-0.2874,-0.2874,-0.2874,-0.2874,-0.2874,-0.2874,-0.2874,-0.2874,-0.2874,-0.289,-0.2905,-0.2915,-0.2951,-0.2979,-0.299,-0.3018,-0.3036,-0.3036,-0.3046,-0.3052,-0.3052,-0.3052,-0.3052,-0.3052,-0.3052,-0.3052,-0.3052,-0.3052,-0.3052,-0.2514,0.0,0.0,0.0,-0.2514,-0.2514,-0.2514,-0.2514,-0.2519,-0.254,-0.2575,-0.2608,-0.2628,-0.2665,-0.2692,-0.2692,-0.2692,-0.2692,-0.2692,-0.2692,-0.2712,-0.2762,-0.2777,-0.2803,-0.2853,-0.2868,-0.2874,-0.2874,-0.2874,-0.2874,-0.2874,-0.2874,-0.2874,-0.2874,-0.2874,-0.2874,-0.2874,-0.2874,-0.2874,-0.2874,-0.2874,-0.2874,-0.2874,-0.2874,-0.2874,-0.2874,-0.2874,-0.2874,-0.2874,-0.2874,-0.2874,-0.2874,-0.2874,-0.2874,-0.2874,-0.2874,-0.2874,-0.2874,-0.2874,-0.2881,-0.2887,-0.2887,-0.2896,-0.2904,-0.2904,-0.2904,-0.2904,-0.2904,-0.2904,-0.2904,-0.2904,-0.2896,-0.2887,-0.2887,-0.2881,-0.2874,-0.2874,-0.2874,-0.2874,-0.2874,-0.2874,-0.2874,-0.2874,-0.2874,-0.2874,-0.2874,-0.2874,-0.2874,-0.2874,-0.2874,-0.2878,-0.2887,-0.2905,-0.2924,-0.2945,-0.2983,-0.3011,-0.3021,-0.3041,-0.3052,-0.3052,-0.3052,-0.3052,-0.3052,-0.3052,-0.3052,-0.3052,-0.3052,-0.3052,-0.3052,-0.3052,-0.3052,0.0,0.0,0.0,0.0,-0.2514,-0.2514,-0.2514,-0.2514,-0.2514,-0.2514,-0.256,-0.2601,-0.2601,-0.2652,-0.2692,-0.2692,-0.2692,-0.2692,-0.2692,-0.2692,-0.2703,-0.2735,-0.2763,-0.2795,-0.2826,-0.2856,-0.2872,-0.2874,-0.2874,-0.2874,-0.2874,-0.2874,-0.2874,-0.2874,-0.2874,-0.2874,-0.2874,-0.2874,-0.2874,-0.2874,-0.2874,-0.2874,-0.2874,-0.2874,-0.2874,-0.2874,-0.2874,-0.2874,-0.2874,-0.2874,-0.2874,-0.2874,-0.2874,-0.2874,-0.2874,-0.2874,-0.2875,-0.2875,-0.2875,-0.2894,-0.2917,-0.2917,-0.2938,-0.2961,-0.2961,-0.2961,-0.2961,-0.2961,-0.2961,-0.2961,-0.2961,-0.2939,-0.2917,-0.2917,-0.2897,-0.2876,-0.2875,-0.2875,-0.2875,-0.2874,-0.2874,-0.2874,-0.2874,-0.2874,-0.2874,-0.2874,-0.2874,-0.2874,-0.2874,-0.2875,-0.2886,-0.2913,-0.2917,-0.2942,-0.3002,-0.3007,-0.3021,-0.3051,-0.3052,-0.3052,-0.3052,-0.3052,-0.3052,-0.3052,-0.3052,-0.3052,-0.3052,-0.3052,-0.3052,-0.3052,-0.3052,-0.3052,-0.2514,0.0,0.0,0.0,0.0,0.0,-0.2514,-0.2514,-0.2514,-0.2514,-0.256,-0.2601,-0.2601,-0.2652,-0.2692,-0.2692,-0.2692,-0.2692,-0.2692,-0.2692,-0.2703,-0.2735,-0.2746,-0.2772,-0.2823,-0.2836,-0.2851,-0.2872,-0.2874,-0.2874,-0.2874,-0.2874,-0.2874,-0.2874,-0.2874,-0.2874,-0.2874,-0.2874,-0.2874,-0.2874,-0.2874,-0.2874,-0.2874,-0.2874,-0.2874,-0.2874,-0.2874,-0.2874,-0.2874,-0.2874,-0.2874,-0.2874,-0.2874,-0.2874,-0.2874,-0.2874,-0.2887,-0.2904,-0.2904,-0.2924,-0.2949,-0.2949,-0.2954,-0.2961,-0.2961,-0.2961,-0.2961,-0.2961,-0.2961,-0.2961,-0.2961,-0.2956,-0.2949,-0.2949,-0.2943,-0.2931,-0.2909,-0.2904,-0.2898,-0.2878,-0.2874,-0.2874,-0.2874,-0.2874,-0.2874,-0.2874,-0.2874,-0.2874,-0.2874,-0.2891,-0.2906,-0.2915,-0.2956,-0.2988,-0.3005,-0.3026,-0.3043,-0.3051,-0.3052,-0.3052,-0.3052,-0.3052,-0.3052,-0.3052,-0.3052,-0.3052,-0.3052,-0.3052,-0.3052,-0.3052,-0.3052,-0.3052,0.0,0.0,0.0,0.0,0.0,0.0,-0.2514,-0.2514,-0.2514,-0.2514,-0.2552,-0.2587,-0.26,-0.2641,-0.2677,-0.269,-0.2692,-0.2692,-0.2692,-0.2692,-0.2699,-0.2717,-0.2731,-0.2751,-0.2788,-0.2814,-0.2836,-0.2853,-0.2867,-0.2874,-0.2874,-0.2874,-0.2874,-0.2874,-0.2874,-0.2874,-0.2874,-0.2874,-0.2874,-0.2874,-0.2874,-0.2874,-0.2874,-0.2874,-0.2874,-0.2874,-0.2874,-0.2874,-0.2874,-0.2874,-0.2874,-0.2874,-0.2874,-0.2882,-0.2891,-0.2891,-0.2911,-0.2935,-0.2935,-0.2954,-0.298,-0.298,-0.2988,-0.2999,-0.2999,-0.2999,-0.2999,-0.2999,-0.2999,-0.2999,-0.2999,-0.299,-0.298,-0.298,-0.2971,-0.2957,-0.2939,-0.2935,-0.2923,-0.2882,-0.2874,-0.2874,-0.2874,-0.2874,-0.2874,-0.2874,-0.2874,-0.2878,-0.289,-0.2905,-0.2926,-0.2951,-0.2986,-0.3011,-0.3025,-0.3041,-0.3052,-0.3052,-0.3052,-0.3052,-0.3052,-0.3052,-0.3052,-0.3052,-0.3052,-0.3052,-0.3052,-0.3052,-0.3052,-0.3052,-0.3052,-0.3052,0.0,0.0,0.0,0.0,-0.2514,0.0,-0.2514,-0.2514,-0.2514,-0.2514,-0.2538,-0.2568,-0.2597,-0.2627,-0.2657,-0.2687,-0.2692,-0.2692,-0.2692,-0.2692,-0.2692,-0.2692,-0.2716,-0.2733,-0.2737,-0.2787,-0.2821,-0.2829,-0.2857,-0.2874,-0.2874,-0.2874,-0.2874,-0.2874,-0.2874,-0.2874,-0.2874,-0.2874,-0.2874,-0.2874,-0.2874,-0.2874,-0.2874,-0.2874,-0.2874,-0.2874,-0.2874,-0.2874,-0.2874,-0.2874,-0.2874,-0.2874,-0.2878,-0.2894,-0.2916,-0.292,-0.2941,-0.2966,-0.2966,-0.2987,-0.3011,-0.3011,-0.3031,-0.3052,-0.3052,-0.3052,-0.3052,-0.3052,-0.3052,-0.3052,-0.3052,-0.3032,-0.3011,-0.3011,-0.2991,-0.2971,-0.2968,-0.2966,-0.295,-0.2894,-0.2881,-0.2878,-0.2875,-0.2874,-0.2874,-0.2874,-0.2876,-0.2887,-0.2913,-0.2921,-0.2946,-0.3001,-0.301,-0.3022,-0.305,-0.3052,-0.3052,-0.3052,-0.3052,-0.3052,-0.3052,-0.3052,-0.3052,-0.3052,-0.3052,-0.3052,-0.3052,-0.3052,-0.3052,-0.3052,-0.3052,-0.3052,0.0,0.0,0.0,-0.2514,-0.2514,0.0,-0.2514,-0.2514,-0.2514,-0.2514,-0.2538,-0.2568,-0.2598,-0.2628,-0.2657,-0.2687,-0.2692,-0.2692,-0.2692,-0.2692,-0.2692,-0.2692,-0.2698,-0.2712,-0.2735,-0.2748,-0.2776,-0.2825,-0.2857,-0.2874,-0.2874,-0.2874,-0.2874,-0.2874,-0.2874,-0.2874,-0.2874,-0.2874,-0.2874,-0.2874,-0.2874,-0.2874,-0.2874,-0.2874,-0.2874,-0.2874,-0.2874,-0.2874,-0.2874,-0.2874,-0.2874,-0.2876,-0.2898,-0.2911,-0.2919,-0.2943,-0.2972,-0.2998,-0.2998,-0.3018,-0.3043,-0.3043,-0.3047,-0.3052,-0.3052,-0.3052,-0.3052,-0.3052,-0.3052,-0.3052,-0.3052,-0.3048,-0.3043,-0.3043,-0.3039,-0.3028,-0.3003,-0.2998,-0.2987,-0.2951,-0.2924,-0.2901,-0.2878,-0.2874,-0.2874,-0.2874,-0.2893,-0.2909,-0.2915,-0.2958,-0.2994,-0.3005,-0.3029,-0.3046,-0.3052,-0.3052,-0.3052,-0.3052,-0.3052,-0.3052,-0.3052,-0.3052,-0.3052,-0.3052,-0.3052,-0.3052,-0.3052,-0.3052,-0.3052,-0.3052,-0.3052,-0.3052,-0.2514,-0.2514,-0.2514,-0.2514,-0.2514,0.0,0.0,-0.2514,-0.2514,-0.2514,-0.2526,-0.2551,-0.2596,-0.2615,-0.2639,-0.2686,-0.2692,-0.2692,-0.2692,-0.2692,-0.2692,-0.2692,-0.2692,-0.2698,-0.2714,-0.2729,-0.2763,-0.2825,-0.2842,-0.2857,-0.2874,-0.2874,-0.2874,-0.2874,-0.2874,-0.2874,-0.2874,-0.2874,-0.2874,-0.2874,-0.2874,-0.2874,-0.2874,-0.2874,-0.2874,-0.2874,-0.2874,-0.2874,-0.2874,-0.2874,-0.2882,-0.2897,-0.2911,-0.2934,-0.2962,-0.2979,-0.3003,-0.3029,-0.3029,-0.3039,-0.3052,-0.3052,-0.3052,-0.3052,-0.3052,-0.3052,-0.3052,-0.3052,-0.3052,-0.3052,-0.3052,-0.3052,-0.3052,-0.3052,-0.3052,-0.3048,-0.3032,-0.3029,-0.3021,-0.299,-0.2972,-0.2951,-0.2923,-0.2917,-0.2917,-0.2917,-0.293,-0.2945,-0.296,-0.2988,-0.3013,-0.3028,-0.3043,-0.3052,-0.3052,-0.3052,-0.3052,-0.3052,-0.3052,-0.3052,-0.3052,-0.3052,-0.3052,-0.3052,-0.3052,-0.3052,-0.3052,-0.3052,-0.3052,-0.3052,-0.3052,-0.3052,-0.2514,-0.2514,-0.2514,-0.2514,-0.2514,-0.2514,0.0,0.0,0.0,-0.2514,-0.2514,-0.253,-0.2583,-0.2598,-0.2617,-0.2667,-0.2684,-0.269,-0.2684,-0.2688,-0.2692,-0.2692,-0.2692,-0.2692,-0.2692,-0.272,-0.2761,-0.2815,-0.2826,-0.2842,-0.2872,-0.2874,-0.2874,-0.2874,-0.2874,-0.2874,-0.2874,-0.2874,-0.2874,-0.2874,-0.2874,-0.2874,-0.2874,-0.2874,-0.2874,-0.2874,-0.2874,-0.2874,-0.2874,-0.2874,-0.2894,-0.2924,-0.2924,-0.2958,-0.3007,-0.3013,-0.3031,-0.3052,-0.3052,-0.3052,-0.3052,-0.3052,-0.3052,-0.3052,-0.3052,-0.3052,-0.3052,-0.3052,-0.3052,-0.3052,-0.3052,-0.3052,-0.3052,-0.3052,-0.3052,-0.3052,-0.3052,-0.3052,-0.3044,-0.3021,-0.3016,-0.3003,-0.2968,-0.2961,-0.2961,-0.2961,-0.2966,-0.2979,-0.3003,-0.3011,-0.3025,-0.305,-0.3052,-0.3052,-0.3052,-0.3052,-0.3052,-0.3052,-0.3052,-0.3052,-0.3052,-0.3052,-0.3052,-0.3052,-0.3052,-0.3052,-0.3052,-0.3052,-0.3052,-0.3052,-0.3052,-0.3052,-0.2514,-0.2514,-0.2514,-0.2514,-0.2514,-0.2514,-0.2514,0.0,-0.2514,-0.2514,0.0,-0.2525,-0.2559,0.0,0.0,-0.2611,-0.2657,-0.2683,-0.2656,-0.2675,-0.2692,-0.2692,-0.2692,-0.2692,-0.2692,-0.272,-0.2751,-0.2785,-0.2814,-0.2842,-0.2872,-0.2874,-0.2874,-0.2874,-0.2874,-0.2874,-0.2874,-0.2874,-0.2874,-0.2874,-0.2874,-0.2874,-0.2874,-0.2874,-0.2874,-0.2874,-0.2874,-0.2874,-0.2874,-0.2874,-0.2906,-0.2956,-0.2956,-0.2977,-0.301,-0.3037,-0.305,-0.3052,-0.3052,-0.3052,-0.3052,-0.3052,-0.3052,-0.3052,-0.3052,-0.3052,-0.3052,-0.3052,-0.3052,-0.3052,-0.3052,-0.3052,-0.3052,-0.3052,-0.3052,-0.3052,-0.3052,-0.3052,-0.3051,-0.3048,-0.3047,-0.3029,-0.2971,-0.2961,-0.2961,-0.2961,-0.2984,-0.3003,-0.3006,-0.3031,-0.3048,-0.3052,-0.3052,-0.3052,-0.3052,-0.3052,-0.3052,-0.3052,-0.3052,-0.3052,-0.3052,-0.3052,-0.3052,-0.3052,-0.3052,-0.3052,-0.3052,-0.3052,-0.3052,-0.3052,-0.3052,-0.3052,-0.2514,-0.2514,-0.2514,-0.2514,-0.2514,-0.2514,-0.2514,-0.2514,-0.2514,-0.2514,0.0,0.0,0.0,0.0,0.0,0.0,-0.2623,-0.2642,-0.2646,-0.2658,-0.2672,-0.269,-0.2692,-0.2692,-0.2692,-0.2703,-0.2724,-0.2755,-0.2785,-0.2815,-0.2846,-0.2864,-0.2874,-0.2874,-0.2874,-0.2874,-0.2874,-0.2874,-0.2874,-0.2874,-0.2874,-0.2874,-0.2874,-0.2874,-0.2874,-0.2874,-0.2874,-0.2874,-0.2874,-0.2874,-0.2909,-0.2961,-0.2961,-0.2991,-0.3035,-0.3048,-0.3052,-0.3052,-0.3052,-0.3052,-0.3052,-0.3052,-0.3052,-0.3052,-0.3052,-0.3052,-0.3052,-0.3052,-0.3052,-0.3052,-0.3052,-0.3052,-0.3052,-0.3052,-0.3052,-0.3052,-0.3052,-0.3052,-0.3052,-0.3052,-0.3052,-0.3044,-0.3018,-0.3014,-0.3014,-0.3014,-0.3025,-0.3033,-0.3033,-0.3044,-0.3052,-0.3052,-0.3052,-0.3052,-0.3052,-0.3052,-0.3052,-0.3052,-0.3052,-0.3052,-0.3052,-0.3052,-0.3052,-0.3052,-0.3052,-0.3052,-0.3052,-0.3052,-0.3052,-0.3052,-0.3052,-0.3052,-0.2514,-0.2514,-0.2514,-0.2514,-0.2514,-0.2514,-0.2514,-0.2514,-0.2514,-0.2514,-0.2514,0.0,0.0,0.0,0.0,0.0,0.0,-0.2607,-0.2622,-0.263,-0.2649,-0.2688,-0.2692,-0.2692,-0.2692,-0.2692,-0.2705,-0.2735,-0.2758,-0.2788,-0.2826,-0.2849,-0.2866,-0.2874,-0.2874,-0.2874,-0.2874,-0.2874,-0.2874,-0.2874,-0.2874,-0.2874,-0.2874,-0.2874,-0.2874,-0.2874,-0.2874,-0.2874,-0.2874,-0.2874,-0.2909,-0.2961,-0.2961,-0.2999,-0.3052,-0.3052,-0.3052,-0.3052,-0.3052,-0.3052,-0.3052,-0.3052,-0.3052,-0.3052,-0.3052,-0.3052,-0.3052,-0.3052,-0.3052,-0.3052,-0.3052,-0.3052,-0.3052,-0.3052,-0.3052,-0.3052,-0.3052,-0.3052,-0.3052,-0.3052,-0.3052,-0.3052,-0.3052,-0.3052,-0.3052,-0.3052,-0.3052,-0.3052,-0.3052,-0.3052,-0.3052,-0.3052,-0.3052,-0.3052,-0.3052,-0.3052,-0.3052,-0.3052,-0.3052,-0.3052,-0.3052,-0.3052,-0.3052,-0.3052,-0.3052,-0.3052,-0.3052,-0.3052,-0.3052,-0.3052,-0.3052,-0.3052,-0.2514,-0.2514,-0.2514,-0.2514,-0.2514,-0.2514,-0.2514,-0.2514,-0.2514,-0.2514,-0.2514,-0.2515,-0.2515,0.0,0.0,0.0,0.0,0.0,0.0,-0.2586,-0.2626,-0.2686,-0.2692,-0.2692,-0.2692,-0.2692,-0.2705,-0.2735,-0.2739,-0.2765,-0.2826,-0.283,-0.2844,-0.2872,-0.2874,-0.2874,-0.2874,-0.2874,-0.2874,-0.2874,-0.2874,-0.2874,-0.2874,-0.2874,-0.2874,-0.2874,-0.2874,-0.2874,-0.2874,-0.2874,-0.2909,-0.2961,-0.2961,-0.2999,-0.3052,-0.3052,-0.3052,-0.3052,-0.3052,-0.3052,-0.3052,-0.3052,-0.3052,-0.3052,-0.3052,-0.3052,-0.3052,-0.3052,-0.3052,-0.3052,-0.3052,-0.3052,-0.3052,-0.3052,-0.3052,-0.3052,-0.3052,-0.3052,-0.3052,-0.3052,-0.3052,-0.3052,-0.3052,-0.3052,-0.3052,-0.3052,-0.3052,-0.3052,-0.3052,-0.3052,-0.3052,-0.3052,-0.3052,-0.3052,-0.3052,-0.3052,-0.3052,-0.3052,-0.3052,-0.3052,-0.3052,-0.3052,-0.3052,-0.3052,-0.3052,-0.3052,-0.3052,-0.3052,-0.3052,-0.3052,-0.3052,-0.3052,-0.2514,-0.2514,-0.2514,-0.2514,-0.2514,-0.2514,-0.2514,-0.2514,-0.2514,-0.2514,-0.2514,-0.2514,-0.2514,0.0,0.0,0.0,0.0,0.0,0.0,-0.2583,-0.2616,-0.2657,-0.268,-0.2692,-0.2692,-0.2692,-0.2697,-0.2707,-0.2727,-0.2755,-0.2796,-0.2818,-0.2842,-0.2872,-0.2874,-0.2874,-0.2874,-0.2874,-0.2874,-0.2874,-0.2874,-0.2874,-0.2874,-0.2874,-0.2874,-0.2874,-0.2874,-0.2874,-0.2874,-0.2874,-0.2909,-0.2961,-0.2961,-0.2999,-0.3052,-0.3052,-0.3052,-0.3052,-0.3052,-0.3052,-0.3052,-0.3052,-0.3052,-0.3052,-0.3052,-0.3052,-0.3052,-0.3052,-0.3052,-0.3052,-0.3052,-0.3052,-0.3052,-0.3052,-0.3052,-0.3052,-0.3052,-0.3052,-0.3052,-0.3052,-0.3052,-0.3052,-0.3052,-0.3052,-0.3052,-0.3052,-0.3052,-0.3052,-0.3052,-0.3052,-0.3052,-0.3052,-0.3052,-0.3052,-0.3052,-0.3052,-0.3052,-0.3052,-0.3052,-0.3052,-0.3052,-0.3052,-0.3052,-0.3052,-0.3052,-0.3052,-0.3052,-0.3052,-0.3052,-0.3052,-0.3052,-0.3052,-0.2514,-0.2514,-0.2514,-0.2514,-0.2514,-0.2514,-0.2514,-0.2514,-0.2514,-0.2514,-0.2514,-0.2514,-0.2514,-0.2514,0.0,0.0,0.0,0.0,0.0,-0.2568,-0.2598,-0.2627,-0.2658,-0.268,-0.2691,-0.2692,-0.2692,-0.2692,-0.271,-0.2735,-0.2765,-0.2796,-0.2826,-0.2857,-0.2868,-0.2874,-0.2874,-0.2874,-0.2874,-0.2874,-0.2874,-0.2874,-0.2874,-0.2874,-0.2874,-0.2874,-0.2874,-0.2874,-0.2874,-0.2874,-0.2909,-0.2961,-0.2961,-0.2999,-0.3052,-0.3052,-0.3052,-0.3052,-0.3052,-0.3052,-0.3052,-0.3052,-0.3052,-0.3052,-0.3052,-0.3052,-0.3054,-0.3066,-0.3061,-0.3055,-0.3066,-0.3061,-0.3052,-0.3052,-0.3052,-0.3052,-0.3052,-0.3052,-0.3052,-0.3052,-0.3052,-0.3052,-0.3052,-0.3052,-0.3052,-0.3052,-0.3052,-0.3052,-0.3052,-0.3052,-0.3052,-0.3052,-0.3052,-0.3052,-0.3052,-0.3052,-0.3052,-0.3052,-0.3052,-0.3052,-0.3052,-0.3052,-0.3052,-0.3052,-0.3052,-0.3052,-0.3052,-0.3052,-0.3052,-0.3052,-0.3052,-0.3052]}]]